GFSNGP_sfc_30mbdewp_000.txt.gz
Dewpoint
32 33 33 35 34 34 34 32 28 26 29 30 30 26 30 34 36 37 38 40 40 39 38 36 34 29 24 18 15 13 12 11 11 12 12 12 13 12 12 12 12 11 12 13
30 36 35 36 37 37 37 35 35 35 34 30 29 29 31 34 36 37 38 39 40 39 38 35 33 27 21 16 14 13 12 12 13 12 13 13 12 11 10 10 10 12 13 13
31 38 36 34 35 37 35 35 34 33 34 27 28 29 32 36 36 37 38 39 39 38 37 34 31 24 19 15 14 13 13 13 12 13 12 11 10 9 8 9 12 14 14 13
32 36 25 27 36 38 37 38 39 32 27 28 30 34 35 35 36 37 38 40 38 36 34 31 26 21 17 13 13 13 12 11 12 11 10 10 9 9 8 11 13 14 13 13
30 28 28 25 27 34 34 34 32 28 31 32 33 33 34 37 37 37 38 38 36 33 30 26 22 17 14 13 12 12 10 10 11 10 9 9 8 8 10 12 13 13 13 12
33 27 23 24 28 28 29 28 29 31 31 31 31 27 33 36 35 33 32 31 30 27 23 21 17 15 14 12 11 10 9 10 10 10 9 8 7 9 12 13 13 13 11 11
31 31 29 31 29 29 26 26 29 32 32 32 29 32 35 34 32 30 28 26 24 23 21 17 15 14 13 11 10 9 10 9 9 8 7 8 10 12 12 12 12 11 11 11
31 30 26 33 28 24 28 32 33 33 33 33 35 35 33 32 30 29 28 25 22 19 16 15 14 13 10 9 9 9 9 8 8 7 7 10 11 12 12 12 12 12 13 13
33 31 34 33 32 35 33 33 33 33 34 34 34 33 32 31 30 28 25 21 19 16 16 14 12 10 10 9 9 8 7 6 6 7 11 11 12 11 11 13 13 14 15 15
34 33 33 33 35 35 34 34 33 34 34 34 32 31 30 29 28 26 21 18 16 16 14 12 10 10 9 8 8 6 5 5 7 9 14 12 12 12 13 14 14 16 16 15
32 32 32 33 34 34 33 33 33 33 33 32 30 30 29 28 27 25 22 18 17 15 12 9 9 9 8 8 7 6 5 6 7 11 12 12 12 13 15 15 16 16 16 16
33 32 32 31 34 33 33 33 33 32 32 32 31 30 30 29 28 26 23 21 19 16 11 8 8 8 8 7 6 5 5 7 10 13 12 12 12 13 16 15 16 16 16 16
33 33 32 33 33 33 33 33 33 32 32 32 32 32 31 30 29 28 25 23 21 16 13 9 9 9 8 8 7 6 6 9 12 12 12 12 13 13 13 14 15 15 14 15
33 33 32 32 32 32 32 32 32 31 31 31 31 31 31 31 30 27 26 24 20 14 11 9 8 8 9 8 7 7 8 15 13 13 13 13 14 13 14 14 13 12 13 14
33 33 33 32 31 30 30 29 29 28 28 28 28 28 27 27 26 25 23 18 14 11 9 8 8 7 8 8 8 10 11 14 15 14 13 15 14 14 14 14 13 12 11 11
32 31 31 30 28 27 27 26 25 26 26 26 25 25 25 24 21 18 15 12 11 10 9 8 7 8 9 9 11 12 12 15 16 15 14 15 15 14 14 12 11 10 10 11
31 29 29 28 27 25 25 25 25 26 26 25 25 25 22 19 16 14 14 14 12 10 9 9 9 11 11 12 13 12 12 13 16 15 16 16 14 13 12 10 10 10 11 12
32 31 30 28 25 24 24 26 27 28 27 27 26 23 20 18 17 15 12 12 10 10 10 10 10 12 14 14 13 13 14 15 15 16 16 13 12 10 9 10 10 11 12 13
32 30 27 24 24 25 25 26 27 28 29 27 26 24 23 21 18 14 11 10 9 8 10 13 16 14 12 13 15 15 16 15 15 14 12 10 9 9 10 11 11 12 13 14
26 24 25 25 26 25 26 28 29 29 28 27 25 23 21 19 15 12 10 9 9 9 11 14 13 12 11 14 18 15 13 13 12 10 9 10 9 10 10 11 12 13 14 13
25 25 25 25 26 27 27 27 27 27 27 25 23 19 16 13 12 11 10 10 13 15 15 15 13 13 15 17 14 12 12 10 9 9 9 10 10 10 11 13 14 13 13 14
25 25 25 26 25 25 25 25 25 24 23 21 17 14 12 11 11 11 11 11 16 16 13 12 12 15 16 16 11 10 10 9 9 9 10 10 11 12 13 13 13 14 14 14
24 24 24 24 24 23 21 20 19 18 16 14 12 11 11 11 12 11 11 16 15 14 10 11 13 14 16 10 10 10 10 10 10 10 10 11 12 12 12 13 14 14 14 14
23 23 21 20 19 18 17 15 14 14 13 13 12 12 12 12 12 14 15 15 14 10 9 11 13 13 13 10 10 10 10 10 10 10 12 11 11 12 13 13 13 13 13 13
21 20 19 18 17 15 14 13 12 12 11 11 11 11 11 11 9 8 8 8 11 5 4 10 11 12 9 9 10 11 10 9 10 11 10 11 12 12 11 11 11 12 13 12
21 19 18 17 15 14 12 12 11 11 9 8 8 8 8 8 8 6 6 5 6 7 6 7 9 10 10 9 10 8 8 8 8 10 11 11 11 10 11 11 11 11 11 11
21 19 16 15 14 13 13 12 12 12 9 6 5 5 5 5 7 6 5 4 6 7 7 7 7 8 8 8 6 6 7 8 9 11 11 11 11 11 11 11 11 11 11 10

GFSNGP_sfc_30mbdewp_003.txt.gz
Dewpoint
32 32 33 32 31 30 27 25 22 23 28 29 30 31 31 34 37 38 40 41 41 39 37 35 32 27 22 18 15 14 12 11 11 12 12 13 13 12 12 12 11 13 14 14
29 33 32 30 33 35 29 30 28 32 30 33 33 33 31 34 36 37 39 40 40 39 37 34 31 25 19 16 14 14 13 13 13 13 14 14 12 11 10 11 13 15 14 14
27 35 33 27 31 34 32 33 33 32 33 34 34 30 31 34 36 36 38 39 39 38 36 33 28 22 18 15 14 14 14 14 14 14 13 11 10 9 10 11 14 14 13 13
30 33 26 32 38 36 34 35 36 36 38 37 35 32 34 35 36 36 38 39 38 37 34 30 24 20 16 15 14 14 14 13 14 13 11 11 10 9 11 13 13 14 13 13
31 29 28 34 39 38 37 35 38 38 38 36 33 34 35 36 36 37 39 38 36 34 30 25 21 16 14 14 14 14 12 12 12 11 10 10 9 10 12 13 13 13 13 12
31 28 20 24 37 35 39 32 38 39 39 34 32 29 32 33 33 34 34 33 31 28 24 21 17 15 14 13 12 12 11 11 11 10 9 9 11 12 13 13 12 12 12 13
30 30 29 31 29 31 32 27 32 37 36 32 30 32 33 30 28 28 27 26 25 24 21 17 15 14 13 12 12 11 11 10 10 9 9 12 12 13 12 12 12 13 14 14
31 29 24 33 29 26 28 32 31 32 33 33 34 31 30 28 27 26 24 22 21 19 17 15 14 13 12 12 10 10 10 9 8 9 12 12 12 12 12 13 13 14 15 15
30 29 33 33 33 34 33 33 33 33 34 34 32 31 30 28 26 23 21 19 18 17 14 13 13 12 11 9 9 9 8 7 8 13 12 13 12 11 12 14 15 15 16 16
34 33 35 33 35 34 34 33 34 35 34 34 32 31 29 27 24 21 19 18 17 15 13 11 11 12 9 9 8 7 6 7 10 11 14 12 12 12 14 15 15 17 16 16
33 32 32 32 34 33 33 34 34 33 33 32 31 29 28 26 23 20 18 17 16 14 12 11 10 9 8 8 7 5 6 7 10 13 12 12 12 13 16 16 17 17 17 17
33 34 32 32 34 33 33 32 32 31 30 29 29 28 27 25 23 20 18 17 15 12 11 9 9 8 7 7 6 5 5 7 13 13 12 12 13 13 15 16 17 16 16 16
35 33 33 33 33 33 33 32 32 31 30 29 29 28 28 26 24 23 20 18 14 12 9 9 8 8 8 7 6 5 6 11 13 13 12 13 14 13 13 14 15 14 14 15
33 33 32 32 32 33 33 33 32 31 31 30 30 30 29 28 28 23 22 20 15 11 9 9 9 8 9 7 7 7 10 16 13 13 13 14 14 14 13 13 13 12 12 14
33 33 33 32 32 31 31 30 29 29 29 29 30 29 28 26 26 24 21 16 13 10 9 8 8 8 8 8 8 11 12 13 15 14 14 16 15 14 14 13 12 11 11 11
31 31 31 30 29 29 29 28 28 27 27 27 27 27 26 24 22 17 14 12 12 9 8 8 7 8 9 10 12 12 11 15 17 16 15 15 14 13 13 11 10 10 10 11
30 29 28 28 28 27 27 27 26 25 25 24 24 23 21 18 15 13 12 12 10 9 8 8 8 11 11 13 12 12 12 14 16 15 15 15 12 12 10 9 10 10 11 12
31 30 30 29 26 25 25 25 25 24 24 24 22 19 17 17 15 13 12 11 10 10 10 10 10 12 14 13 13 13 15 14 14 14 14 10 11 9 9 10 11 11 12 13
30 29 27 26 25 25 25 25 26 26 25 22 20 19 18 16 14 12 10 9 8 8 9 12 16 14 11 16 16 16 13 12 12 11 9 10 10 9 10 11 11 12 13 13
27 26 25 25 25 25 26 27 27 26 25 23 22 21 18 16 12 11 9 8 8 8 12 16 13 11 12 15 18 12 11 10 9 8 9 10 9 10 10 11 12 13 13 12
25 25 25 25 25 26 27 27 26 26 25 24 22 20 18 14 12 10 9 9 13 15 15 15 12 13 15 17 12 10 10 9 9 9 9 9 10 10 11 12 13 12 12 13
26 25 25 25 25 25 26 27 26 25 23 20 17 15 13 11 11 11 12 11 16 16 12 12 12 15 17 13 10 9 9 9 9 9 9 10 11 12 12 12 12 13 13 13
25 25 25 24 24 24 24 24 23 21 18 16 14 12 11 11 12 12 13 17 14 13 9 12 14 16 16 10 10 9 10 10 10 9 10 11 12 11 11 12 12 12 12 12
24 24 23 22 21 21 20 17 16 15 14 13 12 12 12 12 13 15 16 16 14 10 12 13 13 15 12 10 9 10 10 9 8 9 11 11 10 11 11 11 11 11 11 11
22 22 21 20 18 16 15 14 13 12 12 11 11 11 11 11 11 10 11 12 10 5 6 11 12 12 9 10 10 10 8 8 9 11 9 10 11 10 10 10 10 10 12 11
21 20 18 17 16 14 13 12 11 10 10 9 9 8 8 8 8 5 6 7 7 8 6 7 9 10 9 8 9 7 7 7 8 9 11 11 10 9 9 9 10 10 10 10
18 17 15 14 13 12 12 11 10 10 9 7 5 5 4 5 6 6 6 5 7 7 7 6 6 7 8 8 7 7 7 8 9 10 11 9 9 9 10 10 10 10 10 10

GFSNGP_sfc_30mbdewp_006.txt.gz
Dewpoint
31 30 32 32 31 31 29 27 22 20 20 25 28 32 34 35 39 41 41 40 39 37 35 32 28 24 19 16 14 13 12 12 11 12 13 14 13 12 12 12 13 15 14 14
29 33 32 30 32 33 33 29 27 25 23 28 34 33 34 33 38 40 41 40 39 37 34 31 27 22 18 15 14 13 13 13 13 14 14 13 12 11 11 13 14 14 14 13
26 33 33 26 31 31 31 33 28 26 27 28 33 35 32 33 37 39 40 40 39 37 35 30 25 20 17 15 14 14 14 14 14 15 13 11 10 10 12 13 14 13 13 13
27 30 26 33 36 33 31 33 33 29 34 35 37 35 34 35 36 38 40 40 39 36 32 27 21 18 16 15 15 15 14 14 15 13 11 11 9 11 12 13 13 13 12 12
28 30 31 32 37 33 32 32 33 32 33 36 35 34 34 35 36 38 40 39 37 34 29 23 19 16 15 15 15 14 14 14 13 12 10 10 10 12 13 13 12 12 12 13
31 28 21 26 39 42 39 33 37 37 36 37 35 34 33 33 35 36 36 35 33 28 24 20 16 15 15 14 14 13 13 12 11 11 9 10 12 12 13 12 12 13 13 14
29 29 29 31 35 40 32 29 32 38 38 36 36 34 31 30 29 30 30 29 26 24 21 16 15 15 14 13 12 12 11 10 9 10 12 12 12 12 12 12 13 13 15 15
31 29 25 33 36 32 31 31 32 36 36 35 31 30 29 27 27 27 26 24 22 20 16 15 15 14 13 11 11 11 10 9 10 12 12 12 11 12 12 13 14 14 16 16
31 28 32 33 32 34 33 32 33 33 34 32 31 30 28 25 23 22 22 20 19 17 15 14 14 13 11 10 10 8 8 9 12 12 12 12 11 12 13 14 14 15 17 17
34 32 34 33 35 34 33 33 34 34 33 32 31 28 25 23 22 20 19 17 16 15 13 12 12 11 10 9 8 7 7 9 11 16 12 12 12 12 14 15 15 16 17 16
34 34 32 32 34 33 34 34 34 34 33 31 29 27 25 22 21 20 18 17 15 14 13 11 9 9 8 7 6 6 7 8 12 12 12 12 12 13 15 16 17 17 17 17
33 35 33 32 34 33 33 33 32 32 31 31 29 27 24 22 20 19 17 16 14 12 11 9 8 8 7 7 6 5 5 9 15 12 12 12 13 13 16 16 16 16 15 16
36 33 33 33 33 33 32 32 31 31 30 29 28 26 24 22 20 21 16 14 13 12 10 9 8 7 7 6 5 5 8 12 13 13 12 12 14 14 13 13 14 13 14 15
34 33 32 33 32 33 32 32 31 30 29 29 27 26 25 25 22 18 16 14 11 10 9 9 8 7 7 7 7 8 15 17 13 13 13 13 15 14 13 13 12 11 11 13
33 33 33 33 32 32 31 30 29 28 29 28 28 27 25 22 21 20 16 12 10 10 10 9 8 8 8 8 9 11 13 13 15 15 14 17 15 13 13 12 11 10 10 11
32 32 32 32 31 30 29 28 27 28 28 28 27 26 25 23 20 17 14 12 11 10 9 8 8 8 9 11 12 11 11 16 17 16 15 15 14 11 12 10 9 10 10 11
30 30 30 30 30 29 28 28 28 28 27 27 25 23 20 17 15 14 12 12 10 9 9 8 8 11 12 13 12 12 12 13 15 14 14 14 10 11 10 9 10 10 11 12
32 31 31 31 29 28 27 27 26 26 25 24 21 20 18 17 15 13 11 10 9 9 9 10 11 13 14 13 13 14 15 12 12 12 12 9 10 10 9 10 10 11 12 13
31 31 30 29 27 26 26 25 24 24 22 21 20 19 17 15 13 11 10 10 9 7 9 12 17 14 13 18 17 15 11 10 10 9 8 10 10 9 10 11 11 12 13 12
29 28 27 26 26 26 25 25 23 22 21 20 19 17 15 13 12 11 10 9 8 8 14 17 12 11 13 18 17 10 9 9 8 8 9 10 9 10 10 11 12 13 12 11
26 26 26 26 26 26 26 25 23 22 22 21 19 17 14 12 11 10 9 8 13 15 16 15 12 14 17 16 11 9 9 8 8 9 9 9 9 10 11 12 12 12 11 12
26 26 26 26 26 26 26 25 24 23 22 20 18 15 13 11 11 12 12 11 16 17 13 13 13 17 18 12 9 9 9 9 9 9 9 9 10 11 12 11 11 11 12 12
26 25 25 26 25 25 25 24 22 21 19 17 16 13 12 12 12 12 13 17 15 13 11 14 16 18 15 9 9 9 10 10 9 8 9 10 12 11 11 11 11 11 10 10
25 24 24 25 24 23 22 19 17 16 15 14 13 13 12 12 13 16 17 16 14 13 13 14 15 16 11 9 9 10 10 8 8 8 10 11 10 11 10 10 9 9 10 10
23 23 24 23 22 19 18 16 15 14 13 12 12 12 12 12 13 13 13 12 11 7 8 12 12 13 9 9 8 10 7 7 8 11 9 9 10 9 9 9 9 9 11 11
22 22 21 20 18 17 15 14 12 11 11 10 9 9 9 10 10 8 8 8 9 9 6 6 8 9 7 7 9 7 7 7 8 9 11 10 10 9 8 9 9 9 9 9
19 17 16 15 14 13 13 12 11 11 10 8 7 6 5 6 7 6 7 6 7 6 5 4 3 5 8 9 8 7 8 8 9 10 10 8 8 8 8 9 9 9 10 9

GFSNGP_sfc_30mbdewp_009.txt.gz
Dewpoint
31 30 31 31 31 31 29 27 23 20 21 22 22 25 32 34 35 38 41 39 38 36 34 30 27 24 21 18 16 15 14 13 13 13 14 14 13 13 14 15 15 15 14 14
29 32 32 29 31 32 31 30 27 25 25 26 26 28 34 37 37 38 41 39 37 35 31 28 27 22 18 16 15 14 14 14 15 15 15 14 13 13 15 15 15 14 13 13
26 30 31 28 31 32 32 33 31 27 28 30 30 36 38 37 36 37 42 39 37 34 30 25 21 18 16 15 15 15 14 15 16 15 14 12 12 13 14 14 14 13 12 13
27 30 24 35 37 35 32 31 33 32 30 30 33 35 37 36 35 39 41 39 36 33 28 23 19 17 15 15 15 15 15 16 15 13 12 11 12 13 13 13 13 12 12 13
27 28 32 29 34 34 32 31 32 34 34 31 35 35 35 34 35 39 41 39 36 32 25 21 18 16 15 16 16 15 15 15 13 12 11 12 12 12 13 12 12 12 13 14
30 27 25 26 37 35 37 30 32 33 34 33 36 33 35 33 35 38 37 35 32 27 22 18 16 16 15 15 14 14 14 13 12 11 11 12 12 12 12 12 12 13 14 15
30 29 29 32 34 40 29 28 31 37 35 36 36 36 32 31 31 32 32 30 26 24 19 16 16 15 14 14 13 13 12 11 11 12 12 12 12 12 12 13 13 13 15 16
30 28 25 33 37 34 31 32 32 37 37 35 32 29 29 28 28 28 26 23 21 18 16 15 15 15 13 12 12 11 10 11 12 12 12 11 11 12 13 13 13 14 16 16
31 28 31 34 33 33 34 33 33 35 35 32 30 28 27 25 24 23 22 20 18 16 15 15 14 13 11 11 10 9 11 11 11 12 12 12 12 12 13 14 14 16 16 16
33 32 34 35 34 34 34 33 34 34 32 31 29 26 23 22 21 20 19 17 16 15 14 12 11 11 10 9 9 10 11 13 13 11 12 12 13 13 14 15 16 16 16 15
34 34 34 34 33 33 34 34 33 32 31 29 27 25 23 22 20 18 17 16 16 14 12 10 10 9 8 8 8 8 9 10 12 12 12 12 12 14 16 16 17 16 16 16
32 35 34 32 33 34 33 33 32 31 29 28 26 24 22 20 19 18 16 15 14 12 10 9 8 8 7 7 7 6 9 14 13 12 12 12 13 13 16 15 16 15 15 16
36 34 33 33 33 33 32 32 32 31 29 27 25 23 21 19 18 19 15 14 13 11 10 8 7 7 7 6 6 7 10 12 15 12 12 12 14 14 11 11 13 12 13 14
34 33 33 33 32 32 32 31 30 29 28 26 24 23 22 21 18 16 15 13 11 10 9 8 7 6 7 8 11 17 17 16 13 13 13 14 16 14 12 11 9 8 10 13
33 33 33 33 32 31 31 30 29 28 27 26 25 23 20 19 17 15 12 11 11 10 9 8 7 7 8 10 11 12 13 15 15 15 14 16 15 12 11 11 8 8 9 10
32 32 33 32 31 30 29 29 28 27 26 26 24 23 22 19 16 13 12 11 11 10 9 8 7 8 11 12 11 11 14 18 17 15 14 14 13 10 11 8 8 8 9 10
31 31 31 31 31 29 29 28 27 27 27 25 23 21 19 16 14 12 12 12 11 10 9 9 9 11 13 12 11 12 13 12 14 12 12 12 9 11 9 8 9 9 10 11
32 32 32 32 30 28 28 28 28 27 25 24 21 19 18 16 14 13 11 10 10 9 10 11 12 14 13 13 14 15 12 10 11 11 9 8 11 9 8 9 10 11 11 12
31 31 32 31 29 28 27 26 26 25 23 21 20 18 16 14 12 11 10 9 9 8 10 16 17 15 17 19 16 12 9 8 8 8 8 10 9 8 9 10 11 11 12 12
30 30 29 28 27 26 25 24 23 22 21 19 17 16 14 12 11 10 10 8 8 9 16 15 12 13 16 20 14 9 8 8 8 8 8 9 8 10 10 11 11 11 11 10
27 27 27 27 26 25 24 23 21 21 19 18 16 15 13 11 11 10 9 9 15 17 16 15 13 15 18 15 10 8 8 8 8 9 8 8 8 10 10 11 11 10 10 10
27 27 26 26 25 24 23 22 21 20 19 17 15 13 12 11 11 12 12 12 17 18 14 13 15 19 17 12 9 8 8 9 9 8 8 8 10 11 11 10 10 10 11 11
26 26 26 25 24 24 23 22 21 19 18 15 14 13 12 12 13 12 14 18 15 15 13 15 19 20 14 8 8 9 9 9 8 7 8 10 11 10 10 11 11 11 10 9
26 26 25 25 23 22 20 19 18 17 16 14 14 13 13 13 15 17 17 16 16 14 14 15 17 16 11 8 8 9 9 7 7 8 10 12 9 10 10 9 9 9 9 10
25 25 25 23 22 20 19 17 16 15 14 13 13 13 13 14 15 15 14 15 16 12 12 13 13 13 7 7 7 9 8 7 8 11 10 9 10 10 9 9 9 9 11 11
25 24 24 22 20 19 17 16 14 13 12 11 10 11 12 14 14 10 9 10 9 9 5 6 8 8 6 7 10 8 7 7 8 9 10 11 10 9 8 8 8 9 9 9
21 19 18 18 17 16 15 14 13 12 11 9 9 8 8 8 9 8 8 6 5 4 3 2 2 6 8 9 8 7 8 8 10 10 11 9 8 8 8 8 8 9 9 9

GFSNGP_sfc_30mbdewp_012.txt.gz
Dewpoint
29 29 30 31 30 32 29 28 24 22 21 21 22 23 23 26 30 36 36 39 40 41 42 43 40 33 29 26 24 24 23 21 18 16 15 14 14 13 13 15 15 14 14 13
29 31 31 31 33 33 32 32 29 27 26 28 29 32 33 35 38 37 38 38 40 39 39 37 30 27 26 22 23 20 20 18 16 16 16 15 14 14 16 16 15 14 13 13
25 29 30 29 33 34 34 35 31 28 29 30 34 36 37 39 38 38 37 40 39 37 36 32 27 25 24 24 21 19 17 17 16 16 15 14 14 15 15 15 14 13 12 12
27 30 25 35 37 38 35 35 34 31 30 31 34 37 38 38 38 37 42 40 38 34 31 27 26 24 21 19 18 17 17 16 16 15 13 13 13 14 13 13 12 12 11 12
27 28 29 33 34 37 34 31 32 33 32 32 35 36 35 34 35 38 41 39 37 32 26 23 20 19 18 17 17 17 16 15 14 13 13 13 13 13 12 11 11 11 12 12
30 27 26 32 32 36 35 29 32 33 33 33 35 31 36 33 38 40 38 35 30 25 22 20 18 18 17 16 16 16 15 14 13 12 13 13 13 11 12 12 11 11 11 12
30 29 29 32 33 39 29 28 33 35 34 34 34 34 32 34 33 35 35 32 27 24 21 18 18 17 16 16 15 14 13 12 12 13 12 12 11 11 11 11 11 10 10 11
30 27 26 33 35 31 33 34 33 36 38 37 34 31 31 31 32 31 28 25 23 20 18 17 17 17 15 14 13 12 12 12 12 11 10 10 10 11 12 11 9 9 10 9
31 30 32 34 35 35 35 34 34 36 37 35 32 30 29 28 26 26 25 23 21 19 17 17 16 15 13 12 12 12 12 12 11 10 10 11 11 12 11 10 9 10 10 10
34 33 34 35 35 35 34 34 35 37 34 32 30 29 27 25 24 22 21 19 18 17 15 15 14 13 11 11 12 12 11 10 10 10 10 11 12 11 10 9 10 11 10 10
35 35 35 35 34 34 34 34 33 33 32 30 28 28 26 24 22 21 19 18 17 15 14 13 12 10 10 11 12 12 12 11 11 11 11 11 11 12 12 11 14 13 11 11
30 35 35 34 34 34 34 32 32 30 29 28 27 26 24 22 21 19 18 17 15 14 12 11 10 9 9 10 10 9 9 9 11 11 11 11 10 9 15 15 16 15 15 15
35 34 33 34 34 34 33 32 31 30 28 26 25 24 23 21 19 20 17 16 14 13 11 10 9 8 8 8 8 9 11 12 13 11 10 9 10 9 6 5 10 10 12 14
36 34 33 33 33 33 32 32 30 28 26 25 24 23 22 21 19 17 16 14 12 11 10 9 8 6 7 9 11 12 14 14 11 11 10 11 11 9 5 5 5 2 5 10
35 34 34 34 32 32 31 29 28 26 25 24 24 22 20 19 17 15 14 12 11 10 9 8 7 7 9 11 12 12 13 14 13 11 11 11 9 6 5 7 4 3 4 6
34 33 33 33 32 31 30 30 28 27 25 23 22 20 19 16 14 13 13 12 12 11 9 8 7 8 11 11 12 14 17 18 14 8 8 7 6 4 7 5 3 3 5 7
33 32 32 32 31 31 30 30 29 27 24 23 21 19 16 15 14 13 13 13 12 10 9 9 9 11 12 11 11 12 12 10 13 7 6 5 4 7 5 3 4 6 7 9
33 33 33 33 31 30 29 28 27 25 23 22 19 17 16 15 14 13 12 11 10 10 10 10 12 12 12 13 14 13 9 7 6 6 5 4 7 6 4 6 7 8 9 10
32 32 33 32 30 29 28 27 26 24 22 20 19 18 17 15 14 12 11 10 9 9 10 13 17 14 15 18 14 10 6 5 5 4 5 8 5 5 7 8 9 9 10 9
31 32 31 30 29 28 27 26 24 22 21 20 18 16 15 13 12 11 10 10 9 10 15 16 14 17 20 18 13 8 6 5 4 4 6 7 5 7 8 9 10 10 9 9
30 29 29 29 27 27 26 25 23 21 20 19 18 16 14 12 11 11 10 9 14 17 14 14 14 16 17 15 9 6 5 5 5 6 6 6 7 8 9 9 10 9 9 9
29 28 28 27 26 25 25 24 22 20 18 17 15 13 12 12 12 13 12 12 16 17 14 15 16 18 16 11 6 6 6 7 6 6 6 7 8 9 10 9 10 12 11 11
27 27 26 25 24 23 22 21 20 18 16 15 13 13 12 13 13 12 14 18 17 15 13 18 21 18 13 6 6 6 7 7 6 6 7 9 10 10 10 11 12 12 12 11
27 26 25 24 22 21 20 19 18 16 15 14 14 14 13 13 15 17 17 17 17 16 16 18 19 16 9 6 5 6 7 7 7 7 9 11 10 11 12 11 11 11 11 11
26 26 25 23 22 20 20 19 17 16 14 14 14 14 15 15 15 16 16 17 17 15 14 15 15 11 5 4 5 8 7 7 8 11 11 11 12 12 11 11 11 11 13 13
26 25 24 22 20 19 18 17 16 14 13 12 12 13 14 15 15 13 11 10 8 8 4 5 5 6 4 6 9 8 7 8 8 9 11 11 12 11 11 11 11 11 11 12
24 22 20 19 18 18 17 16 15 14 12 11 12 13 12 11 10 9 8 5 3 1 0 -0 0 5 7 9 8 8 8 9 10 11 12 11 11 11 11 11 11 11 11 11

GFSNGP_sfc_30mbdewp_015.txt.gz
Dewpoint
28 28 29 30 29 30 31 31 28 26 25 24 26 27 32 31 29 27 30 37 37 40 42 44 46 44 40 38 34 30 29 27 26 22 19 18 17 16 16 17 16 16 15 14
28 30 30 30 30 33 35 34 33 33 31 34 31 34 33 35 36 38 37 38 38 40 41 44 39 35 33 30 28 28 28 26 21 19 18 18 17 17 18 17 16 15 14 13
25 27 28 29 35 36 36 36 35 31 34 33 33 36 37 37 38 39 39 38 39 40 41 35 31 28 26 27 28 28 26 23 21 19 18 18 18 18 17 16 15 14 12 12
27 29 26 33 36 37 37 35 33 32 34 35 34 37 40 41 39 38 38 40 39 38 33 28 27 28 27 29 25 25 24 23 19 19 18 18 17 16 15 14 13 12 11 11
27 26 26 34 34 36 36 34 32 34 37 33 33 37 37 37 38 37 41 39 35 30 28 29 31 32 33 33 30 25 21 19 18 17 16 16 15 14 13 12 11 10 12 12
30 26 24 32 33 37 36 30 33 33 36 34 35 34 33 37 43 39 37 31 26 25 26 28 28 25 25 27 27 24 23 17 16 16 16 16 14 12 12 12 11 12 12 12
30 28 29 32 33 36 30 29 34 35 36 34 34 33 34 35 37 36 35 35 34 33 32 30 26 26 21 18 16 15 15 15 15 15 14 12 11 11 10 12 12 10 9 9
29 29 26 33 33 32 34 35 34 34 41 36 33 33 33 33 31 31 28 24 22 21 20 19 19 19 17 15 14 14 14 14 13 12 11 11 10 11 12 11 10 8 8 8
30 29 32 34 34 35 36 34 34 35 38 36 33 32 31 31 29 26 23 21 21 19 19 18 17 15 13 13 14 14 14 13 11 10 10 11 12 12 12 10 8 8 9 9
33 32 34 35 35 35 35 34 35 36 36 35 32 30 28 27 26 24 23 21 19 18 17 15 14 13 13 14 14 13 12 11 10 10 10 12 13 12 10 9 8 9 8 9
34 34 35 35 34 34 34 34 35 36 33 32 31 29 28 26 25 23 21 20 18 16 14 12 12 12 13 14 14 13 12 12 12 12 11 11 11 11 11 10 13 12 10 11
30 35 35 34 34 34 34 33 33 31 30 30 29 28 26 25 23 21 19 18 16 14 13 12 12 12 13 14 13 12 10 10 11 12 12 11 10 9 15 13 15 16 15 15
34 35 34 34 34 34 33 32 31 30 29 28 27 26 25 23 21 21 18 17 16 14 13 12 11 11 11 12 12 12 11 12 13 12 10 9 9 7 5 9 13 12 9 10
37 35 35 34 34 33 32 31 30 29 28 27 26 24 23 22 20 19 17 15 14 12 12 11 10 9 10 10 11 12 13 13 12 11 9 10 9 7 4 3 4 2 3 6
37 35 35 34 33 33 31 29 28 27 26 25 24 23 21 20 18 16 15 14 13 12 11 10 9 10 13 13 14 13 14 13 12 10 10 9 7 5 3 4 3 1 3 5
36 34 34 33 32 32 30 29 27 27 26 24 23 21 20 18 16 15 14 14 13 12 11 9 9 10 11 13 14 16 18 17 12 6 6 5 4 3 4 3 1 2 4 6
35 34 34 33 32 31 31 30 28 27 25 23 21 19 17 16 15 15 15 15 13 12 11 11 11 12 13 12 12 13 12 11 11 5 4 4 3 5 5 2 4 5 7 8
36 35 35 34 32 32 31 30 28 25 24 21 18 17 16 16 15 15 14 13 11 11 11 12 13 13 13 14 14 12 8 6 5 4 3 2 5 6 4 5 7 7 8 9
34 33 34 34 32 32 30 28 26 24 22 19 18 17 17 16 15 14 13 12 11 10 10 14 16 14 15 17 13 9 5 3 3 2 3 5 5 4 6 7 8 9 9 8
33 33 33 33 32 30 28 26 24 22 20 19 18 17 16 15 14 14 13 12 11 10 13 17 17 18 18 17 11 6 4 3 2 2 4 6 5 6 7 8 9 9 9 8
31 32 31 31 30 29 27 25 22 21 21 19 17 16 15 14 13 13 12 11 13 16 14 15 14 17 17 14 7 5 4 3 3 3 5 5 6 7 8 9 9 9 10 10
31 31 30 29 28 27 26 24 22 21 20 19 17 15 14 13 13 13 13 15 16 16 14 14 16 17 16 9 5 4 4 4 4 4 5 6 7 9 10 9 10 13 13 14
29 29 28 27 26 25 24 22 21 20 18 16 15 14 14 14 14 14 14 17 17 15 14 17 21 19 11 5 5 4 4 5 5 5 6 7 9 10 10 13 13 13 14 14
28 27 26 25 24 22 21 20 18 17 16 15 15 14 14 14 15 17 18 18 17 16 18 22 19 14 6 3 3 3 5 6 6 7 8 12 12 12 14 13 13 13 13 13
27 27 25 24 23 22 20 19 18 16 15 14 14 15 15 16 15 16 17 17 18 16 17 18 16 9 3 3 4 6 7 7 8 11 12 12 13 14 14 14 13 13 14 14
27 26 25 24 22 21 19 17 16 15 14 14 15 15 15 16 17 16 17 16 12 10 6 5 4 4 3 5 8 8 7 8 8 9 12 13 14 14 13 13 13 13 13 14
26 24 21 20 20 19 18 16 15 15 14 14 14 15 15 13 12 10 9 7 3 1 -1 -1 -1 3 6 8 8 8 8 9 11 13 13 13 13 13 13 13 13 13 13 13

GFSNGP_sfc_30mbdewp_018.txt.gz
Dewpoint
29 28 28 28 29 29 31 32 28 28 29 31 33 36 36 36 36 35 37 38 38 39 41 44 46 45 43 36 34 30 28 27 25 23 21 19 18 17 18 18 17 16 16 15
28 30 30 29 29 30 32 35 35 35 34 37 37 36 35 35 36 37 38 40 40 39 42 42 39 37 37 34 32 31 28 24 21 20 20 19 18 19 18 17 16 16 15 14
25 28 29 28 31 35 36 35 36 32 36 38 35 35 36 38 38 38 39 40 39 40 38 33 31 31 31 31 30 28 25 26 26 28 28 26 20 20 18 17 16 14 13 12
27 29 24 33 36 36 36 37 37 34 38 39 38 39 39 38 37 37 39 39 39 33 30 29 27 29 29 29 29 31 30 31 32 33 31 25 19 17 16 15 13 12 12 13
27 27 26 32 37 34 35 34 35 32 35 35 38 40 38 39 38 39 37 32 29 28 29 29 30 29 30 31 32 31 33 34 32 29 26 22 19 15 13 12 12 12 14 13
31 26 22 31 34 38 36 33 34 35 37 34 35 33 34 40 36 29 26 27 29 31 33 33 34 35 34 32 33 32 31 30 28 25 18 15 13 13 13 13 13 13 13 12
30 28 29 30 32 36 32 29 35 34 39 35 33 33 34 39 39 36 34 34 34 33 33 34 36 36 34 34 34 34 33 24 18 16 14 13 12 12 13 13 12 11 10 10
30 28 25 33 33 32 35 36 35 35 38 33 34 34 33 33 32 36 37 37 36 36 36 36 35 30 20 15 16 16 15 14 13 12 11 11 11 12 12 11 10 9 8 10
30 30 32 35 35 36 36 35 35 35 36 34 32 32 32 29 24 23 21 21 21 20 20 19 18 15 14 14 14 14 12 12 11 11 12 13 13 12 11 10 9 10 10 10
32 33 34 35 36 35 35 34 35 37 36 33 31 31 29 26 23 21 20 19 17 16 14 14 14 14 15 15 14 12 11 11 11 11 12 13 12 12 10 9 10 10 10 11
34 35 35 35 34 34 34 35 36 33 33 32 30 29 27 25 23 22 20 19 16 14 13 13 14 14 14 14 12 11 12 13 13 13 12 11 12 13 12 15 14 13 14 14
33 35 35 34 34 35 33 33 32 31 31 31 29 28 26 23 22 20 17 16 15 14 14 14 15 15 15 14 13 11 11 13 14 13 12 11 10 10 15 13 13 15 16 15
34 35 35 35 34 34 32 32 31 30 29 27 27 25 24 22 20 19 17 17 16 14 13 13 13 13 13 13 12 13 13 14 14 12 11 10 9 8 6 8 14 15 11 8
37 36 35 34 34 33 32 31 30 28 27 27 26 24 22 21 19 17 16 14 13 12 11 11 10 11 12 13 14 15 15 16 12 11 10 10 9 7 5 4 5 4 5 6
37 36 35 34 33 32 30 29 28 27 25 24 24 22 20 19 17 15 14 13 12 11 10 11 13 13 15 15 15 15 14 13 11 10 10 9 7 5 4 5 4 2 3 7
36 35 34 33 33 31 29 28 27 26 25 23 22 20 18 16 15 14 14 13 12 11 11 11 11 12 14 16 17 18 18 16 9 7 6 5 4 3 6 4 3 4 6 7
36 34 34 33 32 31 30 29 27 26 24 23 20 18 16 16 15 15 15 13 12 11 12 13 13 14 13 14 14 14 14 11 8 5 5 4 4 5 5 4 5 7 8 9
37 37 36 34 33 32 31 29 27 25 24 20 18 17 16 16 15 14 13 12 12 12 13 13 13 13 15 15 13 10 7 6 5 5 4 3 7 8 5 6 7 8 9 10
37 35 35 34 33 32 31 28 26 24 20 19 17 17 17 16 14 13 12 12 11 11 13 15 17 16 17 15 11 7 4 4 3 3 4 5 6 5 6 8 9 9 10 9
33 33 34 35 33 32 29 26 23 21 19 18 18 17 16 14 14 13 13 12 11 12 16 17 17 18 17 14 10 6 4 3 3 3 4 7 6 7 8 8 9 9 9 9
32 32 33 33 31 29 28 27 22 19 19 18 17 16 15 15 14 13 12 11 13 17 17 19 19 18 17 13 7 5 4 4 4 4 5 6 6 7 8 10 10 10 11 13
31 31 31 31 30 29 26 23 21 20 19 18 17 15 14 14 13 14 14 15 16 18 15 16 17 18 15 9 5 4 4 4 5 5 5 6 7 9 10 11 11 13 14 14
29 30 29 28 27 26 23 22 21 20 18 17 16 15 14 14 15 14 15 17 17 16 16 18 20 18 10 6 5 4 4 5 6 6 7 8 9 11 11 12 13 14 13 13
28 28 27 27 25 22 21 21 19 18 17 16 15 15 15 15 16 17 19 19 17 18 21 22 19 11 6 4 3 4 6 7 7 7 9 12 13 13 13 13 13 13 13 13
27 26 25 24 23 22 20 19 18 16 15 15 15 16 16 17 17 18 18 18 19 21 21 21 16 8 3 3 4 7 8 8 8 10 11 10 11 12 13 13 13 13 14 14
27 26 25 25 22 21 19 17 16 15 15 15 16 16 16 17 18 18 18 18 17 18 15 12 6 4 3 5 8 9 8 8 9 9 12 12 12 13 13 13 13 13 13 13
27 24 22 21 21 20 19 17 16 16 16 16 17 17 17 17 17 15 14 10 6 3 2 2 1 5 6 8 9 8 8 9 10 12 13 13 12 12 12 13 13 13 13 13

GFSNGP_sfc_30mbdewp_021.txt.gz
Dewpoint
28 29 30 28 28 28 28 29 27 26 28 30 34 37 38 37 36 37 39 40 40 39 40 44 45 42 40 39 41 41 36 34 31 27 26 24 23 22 22 22 20 17 16 15
27 28 29 29 29 29 29 29 31 32 32 36 38 40 37 37 36 37 37 38 40 40 41 40 41 40 38 37 36 38 31 28 26 25 25 26 26 25 25 18 17 16 15 14
23 28 29 27 29 29 34 36 36 33 35 38 38 39 38 38 39 40 39 39 40 40 33 34 37 40 40 38 33 25 24 24 26 28 30 29 27 24 22 19 16 15 14 14
26 28 22 31 36 36 36 35 37 37 36 33 36 40 38 39 32 39 37 38 35 30 28 30 31 34 34 34 32 31 31 31 31 32 31 31 31 31 28 25 21 19 13 14
27 27 26 30 37 35 34 32 35 34 36 37 36 40 38 38 30 31 30 29 29 29 30 30 31 33 33 33 33 33 33 34 35 35 34 33 31 29 28 26 18 13 15 14
30 25 22 29 35 38 37 32 35 35 36 36 34 33 34 38 31 31 31 32 32 32 34 32 32 34 34 35 35 34 34 34 34 33 31 29 27 22 14 13 14 14 13 12
30 28 28 30 32 38 31 29 35 35 37 34 33 34 35 38 35 35 34 33 34 36 36 36 36 35 34 34 33 34 34 33 32 28 23 20 15 14 13 13 12 10 10 10
31 28 23 30 34 33 33 36 35 36 36 34 34 33 33 36 37 37 36 35 36 36 35 36 36 34 33 33 34 33 31 26 19 14 12 12 12 12 12 10 9 9 10 10
30 28 29 34 34 36 35 35 35 36 35 34 33 32 29 24 31 35 35 36 36 35 33 31 28 25 20 16 15 14 13 12 12 12 13 13 12 11 10 10 10 10 10 10
32 32 33 35 35 35 34 34 35 37 35 33 32 30 25 21 20 20 18 18 19 19 17 15 16 15 15 14 13 12 11 12 13 13 13 12 12 11 9 10 10 11 11 11
34 35 35 34 34 34 34 36 33 34 34 32 31 28 25 22 21 20 18 16 16 15 15 15 15 14 14 13 12 11 12 13 15 14 12 12 12 11 13 14 10 9 14 14
32 35 35 35 34 34 33 33 32 32 31 30 29 26 24 22 20 18 16 15 15 15 15 15 15 14 14 13 13 13 13 13 13 12 12 11 10 11 16 15 14 15 15 14
33 35 35 35 34 34 32 32 31 30 30 28 27 24 23 20 18 19 18 19 22 18 15 15 14 14 13 13 13 14 14 15 15 12 11 10 9 7 4 6 12 11 9 9
37 36 35 34 34 32 31 31 30 28 27 26 24 22 21 20 19 17 17 17 15 13 13 13 13 13 14 14 14 14 15 15 11 11 10 9 8 6 4 4 5 3 6 9
38 37 36 35 33 31 30 28 27 26 25 24 23 22 20 18 16 15 14 14 12 12 12 12 13 14 15 15 15 14 13 11 11 10 10 8 6 4 5 5 3 3 5 8
36 35 34 33 32 30 29 28 27 25 24 22 21 19 18 16 15 14 13 12 12 12 13 13 14 15 17 17 17 17 15 13 9 6 5 4 4 5 6 4 4 6 7 8
36 36 34 33 32 30 29 28 27 25 24 25 19 17 16 15 14 14 13 13 12 13 13 14 15 16 16 17 16 14 9 10 10 5 4 4 4 7 6 5 6 7 8 10
35 36 37 35 34 32 30 28 27 27 26 20 18 16 15 15 14 13 12 12 13 13 13 14 14 15 15 13 11 8 7 5 5 4 3 4 8 7 5 6 8 9 10 10
34 36 36 35 34 32 30 28 26 24 21 19 17 16 17 16 14 13 13 12 12 12 13 16 19 16 14 14 8 6 4 3 3 3 4 7 6 6 7 8 9 10 10 9
33 34 34 35 34 32 29 26 24 23 23 18 18 17 15 14 13 13 13 12 12 12 16 19 17 15 14 14 9 5 4 3 3 3 5 7 6 7 7 9 10 10 10 11
32 32 34 34 33 31 28 25 24 26 23 18 17 16 15 14 14 13 13 12 13 18 18 20 17 16 15 11 6 5 4 3 3 4 5 6 7 7 9 10 11 11 12 13
31 30 32 33 32 31 30 29 28 21 19 18 17 16 15 14 14 14 14 14 17 20 19 19 18 18 14 9 5 4 4 4 5 5 6 7 7 9 11 11 12 12 14 13
28 29 29 29 30 28 24 22 20 19 18 17 16 16 15 14 15 14 14 18 19 18 16 17 20 16 12 6 4 3 4 5 6 6 7 8 11 12 12 12 13 13 13 13
28 28 28 27 24 22 21 21 20 19 18 17 16 16 15 15 16 17 18 20 18 19 19 22 18 12 8 3 3 4 6 7 7 8 8 12 11 11 11 12 13 13 13 13
27 26 26 25 23 22 21 20 19 17 16 16 16 16 16 17 16 19 19 19 21 22 22 20 14 9 2 3 4 7 8 8 8 10 10 9 11 11 12 12 12 13 14 13
27 26 25 25 23 21 19 18 17 16 16 16 17 17 19 19 19 19 19 21 23 23 20 16 7 3 3 5 8 9 8 8 9 9 11 12 12 12 12 12 12 12 12 12
26 26 23 22 21 20 19 17 16 16 16 16 17 20 21 20 19 18 19 18 16 13 7 5 5 5 5 8 9 8 8 9 10 11 13 12 11 11 12 12 12 12 12 12

GFSNGP_sfc_30mbdewp_024.txt.gz
Dewpoint
28 28 29 28 28 28 27 26 25 24 26 28 30 32 36 39 39 38 38 38 39 40 40 42 43 39 39 42 42 41 40 39 36 33 29 28 28 27 28 28 27 27 29 26
27 28 29 28 28 28 28 28 28 28 28 30 34 37 39 38 39 38 39 39 38 40 41 41 40 38 38 39 39 36 35 32 30 28 28 30 30 28 27 28 28 27 23 21
23 27 28 27 29 29 30 31 30 31 33 36 37 36 38 38 34 32 36 39 39 37 35 38 40 39 37 36 36 34 33 31 31 31 29 28 28 29 28 28 27 24 22 19
25 27 21 30 32 32 31 33 36 36 36 37 36 39 39 35 31 31 30 30 29 30 32 35 36 36 36 35 35 34 33 34 34 32 31 32 32 31 30 28 26 27 25 27
25 25 26 29 34 35 34 32 34 35 35 34 38 40 39 33 30 31 32 32 32 31 32 34 35 36 35 34 34 34 34 34 34 35 34 34 33 32 32 32 32 30 28 25
30 25 21 25 36 37 36 31 36 35 34 36 35 34 35 35 32 32 33 33 34 33 33 34 34 34 35 35 34 34 35 35 35 34 34 33 33 32 32 31 25 18 13 13
30 27 28 30 31 38 30 29 35 35 35 35 34 35 36 35 35 35 34 35 36 36 36 36 35 35 34 33 32 34 34 34 33 33 32 30 28 26 21 16 13 12 11 12
31 28 23 31 36 33 33 35 36 35 37 35 34 34 36 36 36 35 35 36 36 34 33 35 36 35 33 32 33 32 32 31 28 22 16 14 13 13 12 10 9 9 10 11
31 28 30 31 34 35 35 35 34 35 36 35 33 32 31 35 35 36 36 35 35 33 29 26 28 31 31 30 26 20 15 13 13 13 13 12 11 10 10 11 10 11 11 10
33 33 33 34 35 34 34 33 35 36 36 34 33 30 24 26 24 23 26 28 26 24 22 16 16 15 15 14 13 13 13 13 13 12 12 12 12 11 10 11 11 10 10 10
33 34 35 35 34 34 34 35 34 35 34 33 31 26 22 21 19 19 20 17 17 16 16 15 14 14 13 13 12 12 13 15 15 14 12 11 12 11 11 10 8 9 12 12
29 33 35 36 35 35 34 34 32 33 32 32 29 25 22 21 20 18 17 17 17 16 15 15 14 14 13 13 13 13 13 13 13 12 11 12 12 15 18 15 16 16 18 15
34 35 36 36 35 34 33 32 32 31 31 30 28 25 22 20 18 18 17 20 21 19 17 15 14 13 13 13 14 13 14 15 15 11 10 8 7 5 3 7 14 12 10 11
39 38 36 35 35 33 32 32 31 29 29 27 25 22 21 20 21 19 21 22 16 15 14 14 13 13 14 14 14 14 16 15 11 11 10 8 7 5 4 5 3 2 7 12
34 36 37 35 33 32 31 29 28 27 26 24 23 22 21 19 18 18 19 15 14 14 13 13 13 14 15 15 15 15 13 12 11 9 8 7 5 4 6 4 3 4 7 9
33 35 34 34 33 31 29 28 27 25 25 23 22 20 19 18 17 17 19 16 14 13 13 14 14 15 16 15 14 12 12 13 9 7 6 4 4 6 5 4 5 7 8 9
33 32 34 33 32 31 29 28 27 26 24 22 21 21 17 16 15 15 14 14 14 14 14 14 15 17 18 17 15 14 13 12 10 5 4 4 6 7 5 5 6 8 9 10
33 34 35 36 36 33 30 29 27 26 26 26 23 17 16 15 15 13 13 13 13 14 14 15 16 16 16 15 12 8 6 5 4 3 3 5 9 6 5 7 8 9 10 10
33 33 34 37 36 34 31 29 27 27 27 23 17 16 16 15 14 13 13 13 13 12 13 15 19 15 12 12 8 6 4 3 2 3 4 8 6 6 7 8 9 10 10 9
33 33 34 35 34 33 31 28 27 23 21 20 17 17 16 14 14 13 13 13 13 12 14 20 17 15 14 14 9 4 3 3 2 4 6 6 6 8 7 9 11 10 10 11
33 32 33 35 33 31 28 25 24 23 22 23 18 17 16 14 14 13 13 13 13 17 19 19 15 14 13 13 6 4 3 2 3 4 5 5 6 7 8 10 11 11 12 13
29 32 30 33 33 33 32 30 28 28 28 24 18 17 15 14 14 14 14 14 16 21 21 18 17 16 13 10 5 4 3 4 4 5 6 7 8 9 11 12 12 13 13 13
28 28 29 29 31 33 32 32 30 27 23 19 18 17 16 15 15 14 14 16 20 22 19 18 19 18 14 5 4 3 3 5 6 7 7 8 11 12 11 11 12 12 12 12
27 27 26 27 25 25 25 24 26 26 24 19 18 17 16 15 16 17 18 20 21 20 17 20 20 16 8 2 2 3 5 7 7 8 9 12 10 10 11 11 11 12 12 13
27 27 26 25 24 23 22 21 20 19 18 18 17 17 17 17 16 18 20 20 21 20 21 22 16 13 2 2 3 6 8 8 8 10 10 9 10 11 11 11 11 12 13 13
26 26 26 25 24 23 21 19 18 17 17 16 17 19 20 21 22 20 19 21 22 22 21 16 10 4 2 3 6 8 8 8 9 9 11 11 11 11 11 11 11 12 12 11
26 27 24 23 23 21 20 19 17 17 17 17 18 21 22 24 23 20 22 23 22 20 16 9 9 5 4 6 9 8 8 9 11 12 12 11 11 11 11 12 12 12 12 12

GFSNGP_sfc_30mbdewp_027.txt.gz
Dewpoint
28 28 28 27 27 27 26 26 24 22 23 25 27 28 30 37 39 38 35 35 39 40 40 41 41 39 39 40 40 41 41 40 41 40 38 38 35 34 33 33 32 31 30 31
26 27 28 27 27 28 28 28 27 27 27 28 29 34 38 39 38 34 33 32 36 39 40 40 39 38 37 35 34 34 34 33 33 33 32 32 30 30 29 30 31 32 32 32
22 26 28 25 28 28 29 29 28 26 28 32 36 37 37 38 33 32 32 31 29 31 35 38 38 37 36 35 35 33 32 31 32 32 31 30 31 32 32 32 31 30 31 32
25 26 21 25 31 30 29 30 31 30 32 35 37 37 39 34 30 31 32 31 31 31 34 36 36 36 37 36 34 34 34 33 33 33 33 34 33 33 32 32 31 31 31 32
24 24 25 28 32 34 32 32 34 34 35 36 36 39 39 34 32 31 32 32 33 33 34 35 36 36 35 33 35 35 34 35 36 35 34 34 33 32 32 31 31 32 32 32
29 25 20 25 36 37 36 29 35 36 35 35 35 33 36 35 34 33 34 34 35 34 35 35 35 36 34 33 33 32 32 33 34 35 33 33 33 33 33 33 32 32 30 30
29 27 27 29 30 37 29 28 35 35 35 35 34 35 36 35 35 35 35 36 36 36 36 35 35 35 32 32 31 33 34 34 34 34 33 33 33 32 31 29 26 20 14 15
30 28 23 33 37 33 33 35 36 35 35 36 34 35 36 36 35 35 36 35 34 32 33 35 36 34 32 31 33 33 33 31 30 30 31 27 24 18 14 11 10 10 11 11
30 29 30 33 33 35 35 35 34 34 35 35 34 33 35 36 36 36 35 34 33 29 27 29 33 33 31 31 28 25 19 17 15 13 13 12 11 10 10 10 10 11 11 10
33 34 33 34 35 35 34 34 34 36 36 35 34 32 31 34 32 31 31 30 28 22 20 18 17 18 17 15 14 14 13 13 12 12 11 11 11 12 11 11 10 10 10 9
33 33 34 35 35 35 34 35 34 35 35 35 34 30 26 26 23 25 22 21 20 18 17 15 15 14 13 13 13 13 15 15 13 12 11 11 12 9 7 7 7 9 11 11
30 33 34 34 36 35 34 34 33 33 33 33 32 28 23 22 21 22 20 19 18 17 16 14 14 13 13 13 14 14 13 12 12 11 13 14 16 17 18 18 18 18 19 16
37 39 39 37 36 35 34 33 32 33 32 32 29 25 22 20 20 20 18 19 18 18 16 15 14 13 14 14 14 13 14 14 15 10 9 7 6 6 3 9 14 12 13 13
37 35 37 37 36 35 33 32 33 31 30 30 27 24 21 19 20 18 20 22 19 16 15 14 13 13 14 14 14 14 16 15 11 10 8 7 5 4 4 4 2 2 8 13
32 33 33 35 35 33 32 30 29 29 27 26 24 23 21 20 20 20 21 17 16 15 15 14 14 14 15 15 15 15 13 11 10 8 8 7 4 5 5 3 3 4 7 9
33 33 34 34 34 32 30 29 28 27 26 24 23 22 21 20 19 20 18 19 18 14 14 14 14 15 16 15 13 12 14 14 10 8 5 3 5 6 4 4 5 7 8 8
31 31 32 33 33 33 31 30 28 27 25 25 25 24 20 20 18 18 18 18 15 14 14 15 15 17 16 15 13 14 14 13 10 4 3 3 6 7 5 5 6 8 8 10
31 32 33 33 34 34 34 31 29 27 26 24 22 21 20 17 16 16 16 14 14 14 15 16 17 17 16 15 13 11 10 8 4 3 3 6 8 6 5 7 8 9 10 10
32 33 33 34 35 36 35 33 29 27 27 25 24 24 20 16 15 15 14 14 14 13 14 16 20 16 14 14 9 7 4 3 3 3 4 9 6 6 7 8 9 10 10 10
32 34 33 35 33 34 33 30 28 28 28 25 22 17 16 15 15 14 14 13 14 14 14 18 17 13 12 16 11 4 3 2 2 3 7 6 5 8 7 9 11 11 11 11
29 32 32 34 34 31 28 27 25 24 22 23 23 19 16 15 14 14 13 13 13 16 15 21 15 14 14 14 8 3 3 2 2 3 4 5 6 7 8 10 11 11 12 13
28 28 28 30 33 34 32 30 28 24 25 26 25 19 16 15 14 14 14 15 14 20 21 18 16 15 14 14 5 3 3 3 4 5 6 6 7 9 11 12 11 11 13 13
27 27 26 27 27 31 33 33 31 30 29 28 26 19 16 16 15 14 14 15 17 22 19 17 17 18 16 7 4 3 3 4 5 6 7 8 10 12 11 10 11 12 11 11
26 27 27 26 25 25 28 29 31 31 29 26 24 22 19 16 16 16 18 19 21 23 18 18 21 20 17 4 2 2 4 6 7 7 8 12 11 10 10 11 11 11 11 12
26 26 26 26 25 24 23 22 24 26 27 26 25 23 19 17 16 17 19 21 23 22 19 21 22 20 7 2 2 4 6 7 7 8 10 9 9 10 11 11 11 11 12 13
25 26 26 25 24 24 23 21 20 19 19 19 19 19 19 21 23 22 21 21 22 20 20 23 19 13 2 2 4 7 8 8 10 10 10 11 11 11 11 11 11 12 12 12
24 26 26 25 25 24 22 20 19 18 19 17 18 20 21 23 25 24 22 22 22 21 19 14 13 7 2 4 9 8 8 8 10 11 11 12 11 10 11 12 12 12 12 12

GFSNGP_sfc_30mbdewp_030.txt.gz
Dewpoint
27 26 28 27 26 27 26 25 22 22 23 24 26 27 28 31 39 37 34 33 31 32 37 39 39 38 37 35 35 39 40 41 41 42 42 39 37 35 34 32 31 31 31 32
25 27 28 27 28 28 27 27 26 26 26 28 28 30 36 38 38 34 32 32 31 31 34 37 37 37 36 35 34 33 33 34 34 34 34 34 33 33 33 32 33 33 33 34
21 26 27 25 27 28 27 28 27 25 26 27 30 35 37 38 35 32 32 32 31 31 33 36 36 36 36 36 35 33 32 32 31 31 31 32 32 33 33 33 33 34 34 34
22 25 20 24 30 30 28 28 29 28 28 30 32 37 38 35 33 31 32 32 32 33 34 36 36 35 36 36 35 34 34 33 33 33 34 34 34 33 33 33 33 33 33 33
23 23 24 27 31 30 30 31 32 30 31 32 36 37 37 36 33 32 33 34 33 34 35 35 36 35 34 34 34 34 34 35 35 35 34 33 32 32 32 32 32 32 32 32
28 24 19 24 36 37 35 29 34 35 34 35 35 32 35 35 34 33 35 35 35 36 35 35 35 34 33 33 33 32 32 32 34 33 33 32 32 32 32 32 31 31 31 32
27 26 26 28 30 37 30 28 34 36 35 35 34 34 36 35 35 35 35 35 35 34 35 35 36 35 33 32 31 33 34 33 33 33 33 32 32 32 31 30 29 29 28 26
28 26 22 32 35 33 33 34 35 35 34 35 36 35 36 36 35 35 35 34 33 32 33 35 35 34 32 32 32 33 32 32 32 32 32 31 30 28 26 18 13 12 12 12
28 27 30 32 34 35 35 35 34 34 34 35 35 35 36 36 35 35 34 33 31 29 29 31 33 32 30 28 24 21 19 17 17 15 14 13 11 11 11 11 11 11 11 11
33 33 33 34 34 35 35 34 34 35 36 36 35 34 35 35 35 34 33 32 27 25 24 23 19 17 16 16 16 15 13 12 12 11 11 12 12 12 11 11 11 10 9 8
33 34 33 35 36 35 35 34 35 34 35 36 35 33 33 33 30 29 28 26 23 22 20 18 16 15 14 15 14 14 14 13 12 11 11 10 9 6 7 8 8 8 9 9
29 33 35 35 37 36 36 36 34 33 33 34 34 32 28 26 25 24 23 22 20 18 17 15 15 13 13 14 14 13 12 12 12 13 15 16 17 18 20 19 19 19 17 15
37 39 37 37 38 38 36 35 34 33 33 33 32 28 25 22 23 24 21 21 19 18 16 15 14 13 14 14 14 13 13 13 14 10 10 9 10 9 8 13 14 15 16 16
34 35 37 36 35 34 35 33 33 32 32 32 30 25 23 21 23 21 21 21 19 17 15 14 13 13 14 14 14 14 15 14 10 8 7 5 4 4 4 2 -0 1 9 14
32 33 33 33 34 34 33 32 31 30 29 28 27 25 22 20 20 20 22 20 19 16 15 14 13 14 15 15 15 15 12 11 9 7 7 6 4 5 4 3 3 5 7 9
31 31 32 32 33 34 32 31 30 29 28 26 25 24 22 21 21 21 19 20 19 16 15 14 14 15 16 15 13 12 12 13 11 7 4 3 5 5 4 4 5 6 7 8
30 30 31 31 32 32 33 32 30 30 28 26 25 23 23 22 22 19 19 21 23 20 15 15 15 16 16 13 12 14 14 12 10 4 3 3 5 6 5 5 6 7 8 10
30 31 32 33 32 33 33 34 33 30 27 26 25 23 23 20 20 19 18 20 18 15 15 16 16 17 15 15 14 12 11 9 3 2 3 5 8 6 5 7 8 8 10 10
30 33 34 33 35 34 35 35 35 31 27 25 23 23 21 23 20 17 17 16 15 14 15 17 20 17 15 14 10 8 5 3 3 3 3 10 5 6 7 7 9 10 10 10
29 31 33 33 35 33 31 32 31 28 26 25 24 23 23 20 17 16 16 16 15 15 15 18 19 15 13 17 11 4 3 2 1 2 5 6 5 7 7 9 11 11 11 11
28 30 31 32 34 35 30 28 28 28 27 25 24 24 23 18 16 16 15 15 14 17 15 22 15 13 14 16 8 3 2 2 2 2 3 4 5 6 7 9 11 11 11 12
27 28 27 27 28 32 33 31 25 23 24 25 26 25 22 17 15 15 15 15 15 20 20 19 15 15 15 16 4 3 2 1 2 4 5 6 7 7 10 11 11 11 11 12
27 27 27 26 25 26 33 33 31 29 29 29 28 27 24 19 17 15 14 15 16 21 20 17 17 19 18 10 4 3 2 2 3 5 6 7 8 10 11 10 10 12 11 11
26 26 26 26 26 24 24 24 31 32 32 32 30 29 26 18 16 16 17 18 19 23 18 17 20 21 19 7 3 2 2 3 5 6 7 11 12 10 9 10 11 11 11 11
25 26 26 25 24 24 24 22 23 27 29 28 28 28 28 27 20 17 19 20 22 24 19 20 21 22 13 4 2 1 3 5 7 7 8 10 9 9 10 10 11 11 12 12
23 25 26 25 24 24 23 22 21 20 20 22 23 25 26 23 22 22 22 23 25 23 18 22 23 18 10 2 2 3 5 7 10 11 11 10 10 10 11 11 11 12 12 12
20 22 22 20 21 21 25 25 23 21 19 19 18 20 22 26 24 24 25 25 24 21 19 21 21 14 5 2 4 6 8 8 10 9 9 11 11 11 10 11 12 12 12 13

GFSNGP_sfc_30mbdewp_033.txt.gz
Dewpoint
26 25 27 27 26 27 25 24 22 20 21 22 24 27 28 30 39 36 33 33 32 31 34 36 37 37 37 36 34 34 35 35 37 40 40 38 38 37 36 35 33 33 33 33
25 27 28 27 28 27 27 26 25 25 25 27 28 29 34 37 37 34 32 32 32 32 34 36 36 36 37 36 35 33 33 32 33 33 34 35 34 35 35 34 34 34 34 35
21 25 26 24 27 27 28 28 27 25 26 28 27 30 34 37 35 32 32 32 32 32 34 35 35 36 36 35 35 34 33 33 33 33 34 34 34 34 34 35 36 36 36 36
23 24 18 23 30 29 28 28 29 28 28 28 29 32 37 35 34 32 32 33 33 33 35 36 36 35 35 36 35 35 35 35 34 34 34 34 34 34 34 34 34 34 34 35
23 22 23 25 29 29 29 31 30 29 29 30 34 36 36 35 33 33 33 35 35 35 35 35 35 35 35 34 34 34 33 34 34 34 33 33 32 32 33 32 32 32 32 32
26 22 19 23 35 36 35 30 34 33 32 34 35 32 33 35 34 34 35 35 35 34 35 35 34 33 33 33 33 32 32 33 33 33 32 31 31 31 32 32 31 32 31 32
26 24 25 27 35 37 31 30 33 36 35 35 34 34 36 35 35 35 35 34 34 35 35 35 35 35 33 32 31 33 33 33 33 32 32 31 31 31 31 30 30 29 29 29
26 24 21 31 33 32 35 34 35 35 34 34 35 35 35 35 35 35 34 33 33 34 35 35 34 34 33 31 33 33 33 32 32 32 32 31 30 29 27 25 19 16 15 16
27 25 28 33 35 36 35 34 35 34 34 35 35 35 36 35 35 35 34 33 31 31 32 32 32 32 29 25 22 22 20 18 16 14 13 12 12 12 12 12 12 12 11 11
31 32 32 33 35 36 35 35 34 34 35 35 35 34 36 36 35 35 34 31 26 26 26 24 20 20 19 19 17 14 12 12 12 12 11 12 12 12 12 12 11 10 9 7
32 33 34 34 35 35 35 35 35 35 34 35 35 34 35 35 35 34 33 29 25 25 24 21 18 17 17 15 14 14 13 11 11 11 9 9 8 7 8 8 8 7 8 9
32 33 34 34 37 38 37 37 37 36 34 34 35 34 33 34 32 31 29 25 24 22 21 18 16 15 14 15 13 12 11 11 13 14 16 18 19 20 21 20 20 19 18 15
35 37 38 39 38 37 34 33 34 34 34 33 33 33 30 29 27 28 26 23 22 21 18 16 14 14 14 14 13 12 12 13 14 12 12 14 13 13 13 13 17 17 17 16
33 34 34 36 35 33 33 34 34 33 32 33 33 29 26 25 26 25 24 23 21 18 15 14 14 14 15 15 14 13 14 14 9 8 6 5 4 3 4 1 -1 1 9 14
32 32 32 32 33 33 34 33 32 31 30 30 29 28 24 23 24 23 23 21 19 16 15 14 14 14 15 15 15 16 14 11 8 7 5 5 5 5 3 2 3 5 7 9
30 30 31 32 32 32 33 32 31 31 30 28 27 26 24 22 22 22 21 20 17 16 16 14 14 15 15 16 14 12 12 12 10 8 5 4 5 4 3 3 4 6 7 8
29 30 30 31 32 32 32 33 33 32 30 28 27 26 23 22 22 21 20 21 20 19 17 15 15 16 16 14 12 14 15 15 9 3 2 3 5 5 5 5 5 7 8 9
29 30 31 32 33 33 33 34 34 34 31 29 26 24 23 22 21 20 20 22 21 20 19 16 16 16 15 13 14 14 12 9 3 2 2 5 7 5 5 6 7 8 9 10
30 30 33 33 34 35 33 33 35 35 32 28 25 24 23 23 22 20 20 21 21 21 17 17 20 17 15 15 14 11 8 4 2 2 3 10 5 5 6 7 8 10 11 10
29 31 32 33 34 35 33 32 30 30 29 26 25 24 23 23 21 20 19 19 19 16 16 18 21 16 14 18 13 6 3 2 1 1 3 5 4 5 7 8 10 10 11 11
28 28 28 29 30 31 34 32 27 28 27 25 24 24 24 22 22 19 17 18 16 18 16 22 17 15 16 17 10 4 2 1 1 1 1 3 4 6 7 8 10 11 11 11
27 27 27 27 26 26 31 33 30 24 26 25 25 24 24 23 20 18 19 19 16 21 20 21 16 15 17 16 5 3 2 1 1 2 3 4 5 6 8 10 11 11 11 12
26 26 26 26 25 25 26 28 32 30 28 28 28 27 27 25 23 23 20 16 16 22 21 18 17 19 20 8 4 3 1 0 1 2 4 6 7 8 11 11 11 12 12 12
25 26 26 26 25 24 24 23 23 29 31 32 31 30 28 26 25 26 17 19 19 23 19 18 20 21 21 7 4 2 1 1 2 4 6 10 10 11 10 10 11 11 12 12
24 26 25 25 24 24 24 23 22 22 25 28 29 29 29 28 28 25 22 25 22 24 19 21 22 23 15 8 4 2 1 2 4 6 7 8 10 10 9 10 11 11 13 14
21 22 23 22 21 19 22 25 23 22 20 20 23 26 28 28 28 27 25 26 27 26 20 22 22 20 13 7 3 1 2 4 9 12 11 11 11 10 10 11 11 12 13 13
17 19 19 16 18 18 20 25 24 23 21 19 19 20 25 27 26 24 25 27 27 25 20 22 24 18 12 6 3 2 4 6 9 8 9 9 10 11 11 11 12 13 13 13

GFSNGP_sfc_30mbdewp_036.txt.gz
Dewpoint
26 26 28 28 27 27 26 24 21 19 19 19 22 27 28 33 37 37 35 34 34 34 35 36 36 37 37 37 36 35 35 35 37 38 39 39 38 38 37 36 36 35 35 34
26 27 28 27 27 27 27 26 25 24 23 25 26 28 29 34 37 36 34 33 33 33 34 34 35 35 36 36 35 35 34 34 35 36 36 36 36 36 36 36 36 36 36 36
23 26 26 24 27 27 27 28 26 24 25 26 27 28 31 36 37 34 33 33 33 33 34 35 35 36 36 36 35 35 35 35 35 35 35 35 35 35 36 36 37 37 37 37
25 25 19 24 29 29 27 27 28 27 27 28 28 30 35 37 36 34 33 34 34 34 34 35 35 36 36 36 35 35 35 34 34 34 34 34 34 34 34 34 34 34 35 36
25 22 22 21 27 28 29 31 29 28 28 29 31 36 37 36 34 34 34 35 35 34 35 34 33 35 35 35 34 34 34 34 34 34 34 33 32 32 33 32 32 31 32 32
26 22 19 24 34 32 32 30 34 31 31 32 35 33 35 36 35 35 35 35 35 35 35 34 34 35 34 33 33 32 33 33 34 33 32 31 32 31 32 32 31 32 31 31
25 21 23 27 35 36 30 31 34 35 36 36 35 35 37 36 35 36 35 35 36 36 35 35 36 35 33 33 32 33 34 34 34 34 33 32 32 32 32 31 31 30 30 30
27 24 20 30 34 31 34 35 35 36 35 35 35 36 36 36 36 36 35 35 35 36 35 35 36 35 34 33 33 34 34 33 33 33 33 33 32 31 30 27 23 19 18 18
25 24 27 33 35 36 35 34 36 35 35 35 35 36 36 36 36 36 35 34 35 35 34 34 35 34 31 29 28 27 27 24 21 18 15 14 13 13 13 12 12 11 12 12
30 29 30 32 34 36 36 36 35 35 35 36 35 36 36 37 36 35 35 33 33 33 33 32 30 29 29 27 25 18 14 13 12 11 11 11 12 12 11 11 10 8 7 6
31 33 34 35 35 36 36 36 37 37 36 35 36 36 36 37 37 36 35 32 31 31 30 29 26 25 24 21 15 14 13 12 12 10 8 7 9 8 7 7 8 5 6 7
30 33 32 33 36 38 38 36 34 36 36 35 35 36 36 36 37 36 34 31 28 30 27 25 25 23 19 15 14 12 10 11 12 13 15 17 18 19 21 21 20 19 18 15
33 35 37 39 38 38 34 34 33 34 35 35 34 35 35 35 36 35 33 29 28 26 25 21 19 17 15 15 14 12 12 13 14 13 14 14 15 13 12 17 19 18 18 17
36 34 34 36 36 34 33 34 34 34 34 33 34 34 33 33 32 33 31 28 26 24 20 18 16 15 15 15 14 13 13 14 10 9 7 5 3 2 2 -0 -2 -1 8 14
33 32 32 32 32 32 33 34 33 33 32 31 32 31 30 28 29 30 30 27 23 20 17 16 15 15 15 15 14 14 15 12 9 7 5 4 3 3 2 1 1 2 5 7
31 30 31 31 32 33 33 33 33 32 31 30 29 29 28 27 27 27 26 24 22 18 17 15 15 15 16 15 16 15 12 11 9 7 7 3 3 2 1 1 2 3 4 5
29 30 31 32 34 34 33 33 34 34 34 32 30 29 27 25 24 24 24 22 21 19 17 16 17 16 16 17 14 13 14 14 10 4 2 2 2 3 3 3 3 4 5 7
30 30 31 32 33 33 34 34 33 34 35 33 30 28 26 24 23 23 22 21 20 19 18 17 17 17 17 15 14 15 14 12 8 3 3 4 5 4 3 4 5 5 6 8
30 30 32 33 33 34 35 33 32 31 35 32 29 26 25 24 23 22 21 22 21 20 19 18 21 19 15 15 16 14 12 7 3 2 2 7 9 3 4 5 5 7 8 8
29 29 29 31 33 33 34 33 31 32 28 29 27 25 24 23 23 21 21 21 21 23 23 22 26 17 15 17 17 12 8 5 3 2 3 4 3 3 5 7 8 7 8 9
28 28 29 29 28 28 32 34 29 26 28 26 25 25 24 24 22 21 21 20 20 20 23 24 21 16 16 20 16 8 5 3 1 1 1 6 3 4 5 6 8 9 10 10
27 27 27 27 26 26 28 31 32 29 26 26 26 25 24 23 23 22 22 23 23 21 19 22 19 17 17 19 9 6 4 2 1 1 2 2 4 5 6 8 10 12 13 15
26 26 26 26 25 25 25 24 24 30 31 29 28 27 25 25 26 26 25 27 27 24 22 22 18 20 20 17 7 5 3 1 0 0 2 4 5 7 9 13 14 15 15 15
25 26 26 25 25 25 25 24 23 24 29 31 31 31 30 28 26 28 29 29 27 27 25 22 21 21 22 12 6 4 3 1 1 1 4 8 8 10 14 13 14 15 15 15
23 25 24 22 19 17 20 26 24 23 21 23 28 30 30 30 29 28 27 25 25 29 26 23 23 23 21 10 6 4 3 2 2 7 7 12 12 14 14 14 14 15 16 18
20 20 21 20 19 17 18 23 26 24 23 21 20 24 28 29 29 27 27 28 28 29 24 26 26 24 18 11 7 4 2 2 6 10 11 12 14 14 13 14 14 15 16 17
17 18 17 14 16 17 20 22 23 24 24 22 20 19 22 27 27 27 27 28 28 28 26 24 24 23 17 12 8 3 2 3 8 12 13 14 14 14 14 14 15 16 17 17

GFSNGP_sfc_30mbdewp_039.txt.gz
Dewpoint
25 25 29 29 26 27 27 26 22 19 15 20 21 24 29 31 35 37 36 35 35 35 35 35 36 36 36 37 36 36 35 36 37 38 38 38 38 38 38 38 37 37 36 35
26 27 27 27 26 26 27 26 24 22 21 22 23 25 28 31 36 36 35 35 34 34 34 34 35 35 36 36 35 36 35 35 36 36 37 37 37 37 37 37 37 37 37 36
24 25 25 23 26 26 26 26 25 23 24 25 27 28 30 33 37 36 35 34 34 34 34 35 35 35 35 36 35 35 34 35 35 35 35 36 36 36 36 37 37 37 38 38
26 26 20 26 29 28 26 26 27 26 25 26 27 29 32 37 37 35 35 35 34 34 34 34 34 35 36 36 35 34 34 34 34 34 34 35 35 34 34 34 33 33 33 33
25 22 21 21 26 28 28 29 28 27 27 27 29 34 37 37 36 35 35 35 35 34 34 34 34 35 36 35 35 34 34 34 34 34 34 34 33 33 33 32 32 31 32 31
24 21 18 25 33 30 31 30 33 30 30 31 34 33 37 37 36 36 36 36 35 35 34 34 34 35 35 34 34 33 34 34 34 33 33 32 32 32 33 32 32 32 30 31
24 22 21 24 35 35 30 31 35 34 35 36 35 36 39 37 36 37 36 36 36 36 35 35 35 36 34 34 33 34 35 35 35 34 33 33 33 32 32 31 31 30 30 30
24 23 21 29 36 32 34 35 37 36 35 35 35 36 37 37 37 37 36 36 37 36 36 36 36 35 35 34 34 35 34 34 34 34 33 34 33 33 32 27 20 17 18 19
24 23 27 30 31 36 35 34 36 37 36 36 35 36 37 37 37 37 37 37 37 37 36 36 36 35 34 32 31 31 30 28 25 20 17 16 14 13 13 13 12 11 12 11
27 27 28 29 33 35 36 36 36 36 36 36 36 36 36 37 37 36 36 36 36 36 35 35 35 33 32 31 30 25 17 14 12 12 11 12 13 12 11 10 9 8 6 6
29 30 34 32 33 35 36 37 37 38 38 37 36 36 36 37 37 37 36 35 35 35 35 34 32 32 31 28 18 15 14 14 13 10 8 9 14 12 9 13 13 6 8 9
27 30 30 30 35 37 37 38 35 35 36 37 37 36 36 37 38 38 36 35 33 34 33 31 30 29 27 20 16 14 11 12 12 14 16 17 18 19 22 21 21 19 19 18
31 34 35 36 38 38 37 36 35 34 34 35 36 36 36 36 37 38 37 35 32 32 31 28 28 27 22 16 16 13 12 14 14 14 14 14 15 13 13 19 20 19 18 17
37 37 35 35 35 35 34 33 34 34 34 34 35 35 35 36 37 37 37 35 31 30 29 24 22 21 17 16 15 14 14 15 14 13 10 9 5 3 2 0 -1 -0 10 12
35 34 33 32 32 32 33 33 33 33 33 33 33 34 33 33 34 35 36 34 30 28 25 21 18 16 16 16 15 14 15 14 12 9 7 5 4 3 2 1 -0 1 3 6
33 32 31 31 32 34 35 34 34 33 33 33 32 31 32 32 32 32 33 32 27 25 22 18 17 16 17 16 16 16 15 13 11 8 8 4 3 3 2 1 1 1 2 4
30 31 32 33 34 34 34 34 34 34 34 34 34 31 30 29 29 29 29 29 27 25 20 19 18 17 18 18 17 15 14 15 12 7 4 3 3 2 2 2 2 2 4 6
31 31 32 32 33 33 34 35 35 33 33 36 35 32 29 28 27 27 27 26 24 21 20 19 18 18 18 18 16 15 15 15 13 5 4 4 4 4 3 2 3 4 5 6
31 31 32 33 33 34 35 35 34 33 32 32 34 31 29 27 26 25 24 22 21 20 19 19 21 19 19 17 16 16 15 13 8 4 3 4 9 5 3 3 4 5 7 7
30 30 30 31 32 32 32 34 34 31 32 29 29 28 27 25 24 23 22 22 22 21 20 20 24 27 25 17 19 15 13 9 5 3 3 6 4 2 3 7 8 6 7 8
29 29 29 29 28 28 29 33 33 30 27 27 27 27 26 25 24 23 22 21 23 25 21 26 28 29 25 17 21 13 10 7 4 3 3 7 4 4 5 5 6 7 9 10
28 27 27 27 26 26 26 26 26 31 31 28 27 26 25 25 23 22 23 23 21 27 29 30 30 29 22 20 19 11 8 5 2 2 3 1 1 3 5 6 9 12 15 16
26 26 26 26 25 25 25 25 24 24 29 32 31 30 28 26 24 23 23 27 26 30 28 29 29 29 22 22 13 9 6 4 2 1 1 3 3 5 7 10 15 16 17 18
26 26 25 25 22 19 19 25 27 25 24 26 31 31 31 30 29 29 30 30 29 30 28 29 29 26 22 19 11 8 6 3 2 1 2 5 7 8 13 16 16 16 17 17
22 24 24 20 17 15 16 18 26 25 24 22 22 27 30 30 29 29 28 28 30 30 28 30 29 28 24 16 10 7 5 4 3 5 5 10 14 15 16 16 16 16 17 18
19 18 18 18 16 16 17 20 22 24 25 24 22 21 23 28 29 29 29 28 29 30 28 28 29 29 26 20 10 7 5 4 6 8 11 13 15 16 17 16 16 17 17 18
18 18 14 13 15 15 19 22 21 20 23 24 23 23 21 23 27 28 28 28 29 29 27 28 29 30 27 18 11 7 5 3 7 11 16 17 17 17 16 16 17 17 18 18

GFSNGP_sfc_30mbdewp_042.txt.gz
Dewpoint
26 26 30 29 28 28 27 27 24 23 21 20 22 24 31 32 36 37 36 35 35 35 35 35 35 35 36 36 36 36 36 36 37 38 37 37 37 38 38 38 38 37 36 36
24 26 26 26 27 27 28 28 27 26 23 23 23 24 28 31 36 37 36 35 35 34 34 34 35 34 34 36 35 36 35 36 36 36 36 37 37 37 37 38 38 38 38 37
24 25 26 23 26 26 26 27 27 25 25 26 27 28 29 31 37 36 35 35 34 34 34 34 34 35 36 36 35 35 34 35 35 35 34 35 35 35 36 35 35 35 36 37
26 25 18 24 28 28 26 26 27 26 26 26 28 29 31 36 37 35 35 35 34 34 34 33 34 35 36 36 35 35 34 34 34 34 34 35 35 34 34 33 33 33 33 33
23 23 23 24 29 28 26 27 27 27 27 27 28 33 35 37 37 35 35 35 34 34 33 33 33 35 36 35 35 35 34 33 34 33 34 33 32 32 33 32 31 31 31 31
26 20 20 29 29 29 30 30 33 28 28 28 31 31 36 36 36 36 36 35 34 34 33 33 34 36 35 34 34 34 34 34 34 34 33 32 32 32 32 31 31 31 30 31
26 23 22 29 31 33 30 31 34 31 31 34 34 37 38 36 36 36 37 35 35 35 34 34 36 36 34 34 33 35 35 35 34 34 33 33 32 31 32 30 29 27 28 30
25 24 21 35 36 33 35 37 36 36 36 36 37 38 37 37 37 37 37 37 36 36 35 35 36 36 34 34 35 34 34 34 34 34 34 33 32 31 30 26 20 18 18 19
24 25 28 32 34 35 35 36 37 36 35 36 35 36 37 37 37 37 37 37 37 37 36 35 36 35 34 34 34 32 30 30 28 27 27 27 20 15 14 13 13 12 12 11
26 27 28 30 35 35 36 36 37 37 36 37 37 37 37 37 37 37 37 37 37 37 36 35 36 35 34 32 31 30 18 13 13 12 12 12 12 11 11 10 9 7 6 7
28 29 33 33 32 36 36 36 37 37 37 37 36 36 37 38 37 37 37 37 37 37 36 35 35 34 32 32 28 16 14 14 13 12 9 15 22 22 13 17 17 9 12 11
27 30 30 31 33 36 36 38 36 35 35 37 38 37 37 37 38 38 37 36 36 36 36 35 33 32 31 26 17 15 13 13 12 12 16 18 20 20 22 22 21 20 19 18
31 35 36 37 38 38 37 36 35 34 34 34 35 37 37 37 38 38 37 36 35 35 34 33 31 29 27 19 17 13 12 14 15 16 16 16 16 16 16 20 20 19 17 16
36 37 36 36 36 35 34 33 33 34 34 34 34 35 35 36 37 39 38 36 34 33 32 30 29 28 23 17 17 14 14 17 15 15 13 13 9 4 3 1 0 1 12 10
35 33 33 33 32 32 34 34 34 34 34 33 34 34 34 35 35 37 38 37 33 32 31 27 26 24 19 17 16 15 15 15 14 12 8 7 5 4 2 1 1 1 2 5
33 32 32 32 33 35 35 34 34 34 34 34 34 33 33 33 33 34 36 35 32 30 29 24 22 19 18 17 16 15 16 16 13 9 8 5 4 3 2 2 1 2 2 4
32 31 31 32 34 34 34 34 35 35 34 34 34 35 32 31 31 31 33 33 31 29 26 23 21 18 18 18 18 16 16 16 15 8 8 4 4 3 3 2 2 2 4 5
32 32 32 33 33 33 34 35 35 34 33 33 32 36 33 30 29 29 30 30 28 26 24 22 20 19 19 20 20 16 15 15 15 8 5 4 3 4 4 3 3 4 5 6
31 32 33 33 33 34 34 34 34 34 32 32 30 33 32 30 28 27 27 27 25 24 22 21 22 20 19 20 19 16 16 15 13 7 5 6 7 6 3 3 4 5 6 7
31 30 31 32 31 30 29 32 34 33 31 30 29 28 28 28 26 25 24 24 23 23 21 21 23 20 20 24 27 17 15 14 10 6 4 4 7 6 3 4 7 7 7 7
29 29 29 28 28 28 28 27 28 32 32 28 28 27 26 26 25 24 23 23 23 23 21 23 22 25 26 29 29 18 14 11 7 5 4 7 5 5 3 5 5 6 7 9
27 27 26 26 26 26 26 26 25 24 29 32 31 30 28 26 25 23 23 23 24 26 24 25 27 29 29 30 28 16 12 9 6 4 4 3 6 3 3 5 6 9 11 14
26 26 26 25 25 25 26 26 27 25 24 25 29 31 31 30 28 25 24 25 24 29 29 29 30 31 31 30 26 14 10 7 5 3 3 3 1 2 4 7 9 12 16 16
26 27 27 24 20 15 13 16 22 26 25 23 24 28 30 29 29 29 30 31 31 31 29 30 31 31 31 28 25 13 9 7 4 3 2 5 4 5 8 10 12 16 16 16
22 24 24 20 16 16 16 18 22 24 25 24 23 22 25 29 29 29 29 29 30 31 29 30 31 31 30 26 24 12 9 6 5 5 3 5 8 9 11 13 16 16 15 16
18 18 17 17 15 16 17 20 21 22 23 23 24 24 22 23 28 28 29 29 29 30 28 29 30 30 28 25 22 10 8 6 8 9 8 10 12 14 16 17 16 16 15 16
18 18 15 14 14 14 17 21 21 20 21 22 23 25 23 21 24 26 28 28 29 29 28 28 29 30 27 26 24 17 8 6 9 10 12 13 14 15 16 16 16 16 16 16

GFSNGP_sfc_30mbdewp_045.txt.gz
Dewpoint
25 29 29 28 28 30 32 28 26 25 18 20 22 23 25 34 37 37 36 35 35 35 35 35 35 35 35 36 36 36 36 36 37 37 37 37 37 38 38 38 37 37 37 37
23 26 27 25 28 28 29 27 26 27 26 25 23 26 31 35 37 37 36 35 35 34 34 34 34 34 35 36 35 35 35 36 36 36 36 36 36 36 37 37 38 38 38 37
23 26 26 21 25 26 27 28 28 26 26 27 26 25 30 34 36 37 35 35 34 34 34 34 34 35 36 36 35 35 35 35 35 35 35 35 36 35 35 35 35 34 35 36
25 24 15 17 28 27 25 26 28 28 28 27 26 30 31 34 37 36 35 34 34 34 33 33 35 36 36 36 35 34 34 34 34 35 35 35 34 34 34 33 33 33 33 34
22 21 21 24 28 27 27 26 28 28 28 27 30 32 35 37 37 36 35 34 34 33 33 33 35 36 36 35 35 35 34 34 34 34 34 33 33 32 32 31 30 31 32 32
26 20 19 29 29 29 31 27 32 28 28 27 32 26 29 36 36 35 34 34 34 33 33 33 35 36 35 35 34 34 34 34 34 34 33 32 32 31 32 31 30 30 29 29
26 23 22 24 31 32 28 29 33 31 29 28 29 32 37 36 36 36 35 34 34 33 33 34 35 35 34 34 33 35 35 34 34 34 33 32 32 32 31 29 28 27 28 29
26 23 19 33 34 31 34 36 36 35 35 36 37 38 36 36 36 36 35 35 35 34 35 36 36 35 34 33 35 35 35 34 34 34 34 32 31 30 28 24 20 20 20 19
24 23 26 35 34 36 36 36 36 35 36 37 37 37 37 37 37 37 36 36 36 36 35 35 36 35 33 33 34 33 33 32 32 33 32 31 28 25 20 17 13 12 13 11
26 27 28 29 35 35 36 36 38 37 36 36 36 37 38 38 37 37 37 37 37 36 36 35 36 35 34 34 33 32 29 25 15 13 13 13 12 13 11 10 9 8 7 8
27 29 31 32 34 35 36 37 36 37 37 37 37 38 38 38 39 38 37 37 37 37 36 36 36 35 34 33 32 30 17 13 13 14 12 17 21 12 13 16 15 8 12 12
27 29 29 29 32 36 36 37 37 36 36 37 38 37 37 38 39 39 38 37 37 37 36 36 36 35 33 33 30 22 14 14 13 11 11 18 21 21 23 22 21 20 21 17
30 35 34 37 37 37 37 36 35 35 34 34 34 35 37 37 37 39 38 37 37 37 37 36 35 34 33 31 23 16 14 14 13 14 17 18 19 18 16 20 20 20 17 15
37 37 36 36 36 35 34 34 34 33 34 34 34 34 35 36 36 38 38 37 37 36 36 36 34 32 31 24 18 16 14 16 15 16 16 16 15 11 5 2 0 -0 12 12
34 34 36 34 33 33 34 34 34 34 34 34 34 34 34 34 35 36 39 38 36 35 34 33 32 30 26 21 18 16 14 18 16 15 14 13 8 5 3 2 1 1 2 6
34 32 32 32 33 34 34 34 34 34 35 34 34 34 34 33 34 34 37 37 35 33 33 31 30 28 24 20 18 16 15 17 16 13 10 8 5 4 2 2 1 1 2 3
33 32 31 32 33 33 34 34 35 35 35 33 33 33 35 33 32 31 32 36 35 34 32 30 28 26 24 23 19 17 17 19 19 11 9 6 4 3 3 2 2 1 3 5
32 32 33 33 33 34 34 35 35 34 33 33 31 31 34 33 31 30 30 32 32 31 30 28 25 22 21 20 19 19 18 17 18 11 9 7 5 4 4 3 2 2 4 6
33 33 33 34 34 34 33 33 34 34 32 32 31 29 30 30 29 28 28 29 29 29 28 25 24 23 20 20 21 20 18 16 16 12 8 7 8 5 4 3 2 4 5 6
32 31 31 31 29 29 29 31 31 32 30 29 28 28 27 27 28 26 25 26 27 26 24 23 24 23 21 23 23 19 19 17 15 12 8 6 6 7 7 6 4 5 7 7
32 31 28 28 27 27 26 26 25 25 30 32 31 30 28 26 25 24 24 24 25 24 24 23 24 22 21 23 26 27 26 22 14 10 7 9 5 8 4 3 3 5 5 7
29 30 26 26 25 25 26 26 26 25 25 26 29 31 31 30 28 26 24 23 24 26 24 24 24 24 25 29 31 27 26 25 19 9 7 6 7 5 4 4 4 6 8 9
26 26 25 23 22 20 20 18 25 26 24 23 24 27 28 29 30 29 28 28 25 26 26 26 26 28 30 31 29 27 26 24 12 8 7 6 4 4 4 4 6 8 10 12
28 27 26 27 21 13 11 17 22 25 25 24 23 23 26 26 27 29 30 30 30 32 31 30 31 32 32 29 27 26 25 23 11 7 6 7 5 4 5 6 8 11 14 17
28 27 27 22 16 15 15 18 20 22 23 23 24 24 22 24 27 27 28 29 29 30 30 31 31 32 32 27 26 25 24 23 11 7 5 6 8 7 8 9 10 12 15 16
23 19 17 16 14 14 15 19 20 20 21 20 21 24 25 23 23 26 27 28 29 29 29 28 30 31 28 26 25 25 24 21 11 11 9 9 10 10 11 12 14 15 16 16
22 19 16 13 14 14 15 19 21 19 21 20 21 23 22 22 22 24 26 26 27 28 28 28 29 30 27 26 25 24 23 17 11 11 13 13 12 13 13 14 15 16 16 15

GFSNGP_sfc_30mbdewp_048.txt.gz
Dewpoint
25 28 28 28 29 33 32 30 27 26 25 21 21 22 24 30 35 38 37 36 36 36 36 35 35 35 35 36 36 36 36 37 37 37 37 37 37 37 38 38 38 38 37 36
24 25 28 26 27 31 32 32 31 27 26 26 23 24 26 30 36 37 36 36 35 35 34 34 34 34 36 36 35 35 36 36 36 36 36 36 36 37 36 36 36 37 36 35
19 26 25 21 25 26 29 31 32 28 27 27 25 23 26 31 37 37 36 35 34 34 34 34 34 35 36 35 36 35 35 35 35 35 35 36 36 35 35 34 35 35 35 37
24 23 17 19 27 26 25 26 29 29 28 27 27 27 30 35 36 37 36 35 34 34 34 34 35 36 36 35 35 34 34 34 35 35 35 35 35 34 33 33 33 33 33 34
22 23 21 21 28 27 26 24 26 28 29 28 28 31 32 34 37 37 36 35 34 34 33 34 35 36 36 35 35 34 34 34 35 35 34 34 33 32 32 31 31 31 32 32
26 19 17 23 30 30 29 26 33 28 29 28 31 27 29 37 37 36 35 34 34 33 33 34 35 36 35 35 34 34 34 34 35 35 34 32 32 31 31 30 30 29 28 28
25 25 23 24 26 32 26 25 34 31 29 29 30 29 32 36 36 35 34 34 33 33 33 34 35 36 34 34 34 34 34 35 34 34 33 32 31 31 29 28 27 28 28 29
26 25 18 28 32 29 31 36 36 34 31 30 34 37 36 36 35 35 34 34 33 33 34 35 35 34 34 34 35 35 34 34 34 32 32 31 30 29 27 25 23 23 22 19
26 25 24 28 33 35 37 36 36 36 37 37 37 36 36 36 36 35 35 35 34 34 34 35 35 34 33 34 34 34 34 33 33 33 32 31 27 27 26 23 16 15 15 11
26 26 27 29 33 36 36 37 37 36 37 37 36 37 37 37 37 37 35 35 35 35 35 35 36 35 33 34 33 33 32 31 31 30 29 27 23 16 14 13 11 10 7 7
27 28 31 31 31 35 36 37 37 37 37 37 37 37 38 38 38 38 38 37 36 36 35 35 36 35 34 34 33 32 30 28 18 14 16 12 12 10 11 13 10 7 8 10
26 29 28 27 30 34 36 36 36 37 37 37 37 37 38 38 39 39 39 38 38 37 36 36 36 35 34 34 33 31 27 17 13 13 13 17 21 21 22 22 21 21 21 15
33 34 35 34 36 36 36 37 36 35 35 34 34 35 36 37 37 39 39 38 38 38 38 37 36 36 35 34 32 30 26 16 14 15 11 16 19 17 16 21 22 21 19 17
35 36 36 36 35 36 36 35 35 34 34 34 34 34 34 35 36 37 38 38 38 38 38 37 36 36 35 33 31 27 22 18 14 17 14 17 19 18 17 10 6 3 10 17
27 36 36 35 34 34 34 34 34 34 34 34 35 34 34 33 34 35 36 38 37 37 37 37 36 35 34 32 28 25 18 18 18 16 16 17 17 13 7 3 2 1 2 6
33 35 35 35 34 34 34 34 34 34 34 34 33 33 34 35 33 33 34 37 36 36 35 35 35 34 31 29 26 22 17 18 19 16 15 16 11 7 4 2 1 1 1 2
31 32 33 33 33 33 34 34 35 35 34 33 33 32 31 33 34 32 32 34 36 36 35 34 33 31 29 27 26 24 19 21 22 16 13 12 8 5 4 3 2 2 1 3
36 34 34 34 33 34 35 35 35 34 33 33 32 30 31 32 32 32 31 30 32 34 34 33 31 29 27 26 26 25 24 20 23 16 12 10 8 6 4 3 3 2 2 4
34 34 34 34 34 34 33 34 34 33 31 30 29 28 28 28 28 27 27 27 29 30 31 30 29 27 25 24 24 21 20 19 20 15 12 11 11 6 4 4 3 3 3 4
33 33 33 29 29 29 29 27 29 31 31 31 30 30 29 28 26 26 25 25 26 28 27 27 28 27 24 24 26 21 20 19 19 24 20 10 9 8 6 7 4 3 3 5
31 31 31 27 27 26 26 25 25 24 27 29 31 31 31 31 28 26 24 24 25 25 25 24 25 25 23 24 26 21 25 27 27 25 24 19 9 9 7 7 5 4 5 6
30 30 30 28 25 25 25 25 26 25 24 23 26 26 28 29 30 30 28 25 25 26 26 24 25 25 23 24 26 28 28 27 26 25 24 22 11 7 7 6 4 5 5 7
30 29 28 26 22 16 17 17 25 25 24 23 22 24 25 26 27 28 28 30 31 30 30 27 26 26 28 29 30 28 27 27 26 25 24 20 8 8 7 7 7 7 7 9
30 29 28 28 26 15 11 16 21 24 24 24 23 23 23 24 24 28 27 28 30 30 31 31 30 30 29 31 29 28 27 26 25 25 24 23 8 7 8 8 8 10 11 13
29 29 27 26 23 18 15 18 20 21 21 21 23 24 24 23 24 25 26 27 28 29 30 31 32 32 32 30 28 27 26 26 25 24 23 13 11 10 9 9 8 9 11 13
28 26 21 21 17 13 14 17 19 19 21 18 20 23 23 22 22 23 25 26 27 28 29 28 29 30 29 28 27 26 25 25 25 25 23 13 12 11 10 10 11 11 14 16
28 28 23 17 14 14 14 16 20 18 20 18 19 21 21 21 21 22 24 24 25 25 27 27 28 29 28 27 26 25 25 24 24 20 16 14 13 12 12 12 12 14 15 15

GFSNGP_sfc_30mbdewp_051.txt.gz
Dewpoint
26 26 29 29 31 32 33 33 28 27 26 26 23 21 22 27 32 37 37 37 36 36 37 36 36 36 36 36 36 37 37 37 37 37 37 37 37 37 37 37 37 36 36 36
24 25 29 27 28 31 31 32 32 31 29 28 27 24 23 25 32 36 37 37 36 36 36 35 35 35 36 36 35 36 36 36 36 36 37 36 37 36 36 36 36 36 36 35
18 25 24 21 24 25 29 32 32 30 31 29 28 25 25 26 34 35 37 37 36 35 35 35 34 35 36 35 36 35 35 35 36 36 36 36 36 35 35 35 35 35 36 36
21 22 12 17 24 25 26 26 32 33 32 31 28 27 26 29 32 35 37 36 35 35 35 35 35 36 36 35 35 35 35 35 35 36 35 35 35 34 33 33 33 33 33 33
21 22 20 18 27 26 25 24 26 28 30 30 29 29 29 32 36 35 37 36 35 35 34 34 35 36 35 35 35 34 34 34 35 35 35 34 33 32 32 32 31 31 31 27
25 18 15 20 31 30 29 25 32 31 28 29 30 27 28 34 37 37 36 35 34 34 34 34 35 36 35 35 35 34 34 35 35 35 34 33 32 32 31 31 29 28 27 27
25 24 24 25 25 30 25 23 35 34 31 29 29 29 30 37 36 35 35 34 34 33 33 34 36 36 35 35 34 34 35 35 35 34 33 32 31 31 30 28 27 27 27 27
27 24 19 26 32 28 29 35 36 35 32 30 32 35 35 36 35 35 34 34 33 33 33 35 36 35 35 34 35 35 35 34 34 33 32 31 30 28 27 25 25 25 23 20
25 24 26 26 32 33 36 36 36 36 36 33 35 36 36 36 35 35 34 34 34 33 34 35 35 35 34 34 35 34 34 34 32 32 31 30 27 25 24 22 18 17 16 13
26 26 27 27 28 34 36 36 37 36 38 37 36 36 36 36 36 35 35 34 34 34 34 34 35 34 34 34 35 34 33 33 32 31 30 29 27 25 23 19 14 11 10 8
27 27 28 29 32 31 34 36 37 36 37 36 37 37 38 39 38 37 37 37 35 34 35 35 35 35 34 34 34 33 32 31 31 30 30 24 21 15 14 12 11 8 7 7
27 33 32 31 32 34 34 36 37 36 36 37 37 37 38 38 39 39 38 38 37 37 37 36 36 35 35 34 33 32 31 30 27 20 17 14 15 18 20 19 24 22 17 13
27 31 29 31 36 36 35 36 37 37 37 35 35 36 37 37 37 39 39 39 39 38 38 38 36 36 35 34 33 32 31 27 22 17 14 15 19 19 16 22 23 22 21 21
18 21 22 31 34 36 37 36 36 34 34 34 34 34 34 34 35 36 38 39 39 38 38 38 37 36 36 35 33 33 31 28 19 17 14 14 16 17 17 15 14 15 18 22
23 29 34 35 36 35 34 34 34 33 34 34 34 34 34 34 33 33 34 36 38 38 38 38 37 37 37 35 34 33 30 27 22 17 16 15 16 18 18 15 9 3 1 6
32 33 34 35 35 36 35 34 33 34 34 34 33 33 32 32 33 34 33 33 36 36 36 37 37 37 36 35 34 32 29 26 23 18 17 18 17 16 14 10 5 2 1 1
31 32 33 32 34 35 34 34 34 34 34 33 33 32 31 31 33 33 33 32 33 35 36 35 36 35 34 34 32 31 27 26 26 19 16 17 16 13 10 7 4 2 2 2
36 34 32 33 33 35 35 35 35 34 33 32 31 30 29 29 29 29 29 29 29 31 33 34 34 33 32 31 30 29 27 28 29 23 21 17 13 11 8 6 4 3 2 3
34 32 32 32 33 34 34 33 33 32 31 30 30 29 28 27 26 26 27 26 27 28 29 30 31 31 30 28 28 28 27 28 28 29 27 25 23 10 7 6 4 4 3 2
32 32 32 31 30 28 26 25 27 28 30 31 31 31 31 31 28 26 25 25 25 25 26 25 28 28 27 26 29 25 24 25 29 28 22 22 26 18 9 8 5 4 3 3
30 31 30 30 28 26 27 26 25 24 25 26 28 28 29 30 31 30 28 27 25 26 27 27 25 25 26 25 29 25 26 29 28 27 26 28 25 22 16 9 7 7 5 4
30 30 29 28 27 25 21 20 26 25 24 23 24 25 25 25 26 28 29 28 30 31 29 26 25 26 25 25 27 23 26 28 28 28 27 27 26 25 23 13 8 7 6 5
30 30 30 29 27 25 19 17 23 25 24 23 22 22 23 24 25 26 26 27 28 30 31 31 30 29 27 28 27 28 29 28 27 27 26 26 26 25 24 22 11 10 10 10
29 30 29 29 28 27 19 13 20 22 23 24 24 23 23 22 22 26 25 26 27 28 29 30 31 31 31 30 29 28 28 28 27 27 27 27 25 24 23 15 12 13 12 12
30 29 29 27 25 23 21 17 19 20 20 20 21 23 24 23 22 22 24 25 26 27 27 29 30 31 32 31 30 28 27 27 27 26 25 25 25 24 18 13 11 10 9 11
29 29 29 24 23 21 14 16 19 19 20 18 18 21 21 22 22 23 23 25 25 25 25 27 27 29 29 29 28 28 27 26 27 27 25 25 24 23 15 12 11 11 12 13
29 29 28 27 24 16 14 14 17 20 19 19 18 20 19 20 21 22 22 22 23 24 24 26 26 27 28 27 27 26 25 25 25 25 25 24 23 16 13 13 12 12 12 13

GFSNGP_sfc_30mbdewp_054.txt.gz
Dewpoint
26 25 30 31 31 33 32 31 27 26 27 27 27 27 23 24 30 35 37 38 37 37 38 37 37 36 36 36 36 36 37 36 36 37 37 37 37 37 37 36 36 36 36 36
24 25 29 27 28 31 32 32 33 33 32 34 30 27 24 23 29 33 35 37 37 37 37 37 36 36 35 36 36 37 37 37 37 37 37 37 37 36 36 36 36 36 36 35
18 24 24 22 25 27 29 32 31 29 30 32 32 32 30 26 27 32 35 37 37 37 36 36 35 35 35 35 36 36 36 36 36 36 36 36 36 35 35 35 35 35 36 35
19 21 13 14 23 24 25 26 31 31 32 33 32 32 31 28 27 31 36 37 37 36 36 35 35 35 36 36 35 35 35 35 36 36 36 36 35 34 34 34 34 33 32 30
20 21 19 18 27 26 25 25 27 27 29 31 32 30 29 30 30 31 34 37 37 36 35 35 35 36 36 35 35 35 34 35 35 36 35 35 33 33 33 32 32 30 28 25
24 19 12 18 30 30 28 24 31 33 32 31 29 28 29 31 33 35 36 36 36 35 34 35 35 36 35 35 34 34 34 35 36 36 35 33 32 32 32 31 30 28 26 25
24 22 23 25 27 29 23 22 33 35 34 31 29 30 30 34 36 36 35 35 34 34 34 34 35 36 35 35 34 35 35 35 35 35 34 33 32 31 30 28 27 26 26 25
27 23 18 26 30 27 27 34 35 36 35 32 31 33 35 36 35 35 34 34 34 34 34 35 36 35 35 34 35 35 35 35 34 34 33 32 31 29 28 26 26 25 25 21
25 23 26 26 31 32 34 34 35 36 36 32 34 35 36 35 35 34 34 34 34 33 34 35 36 35 34 34 35 34 34 34 33 32 32 31 29 26 25 24 22 20 18 14
26 26 27 28 30 31 33 34 36 37 37 36 35 36 36 36 35 35 34 34 34 33 33 34 35 35 34 34 34 34 34 33 32 31 31 30 27 25 23 22 18 15 13 11
27 27 31 29 31 31 27 34 35 37 37 37 37 36 37 36 36 36 35 35 34 34 34 34 35 34 34 34 34 33 33 32 31 31 31 28 27 25 24 20 17 12 10 8
24 32 26 24 24 21 32 35 36 36 36 37 37 37 38 39 39 38 37 38 37 37 37 36 36 35 34 34 34 33 32 31 31 30 30 27 23 18 21 19 19 20 19 11
19 21 22 22 23 24 35 32 36 36 37 36 36 37 37 37 38 39 39 38 38 38 37 38 38 37 36 34 34 33 32 31 30 29 24 20 16 15 15 21 25 24 23 23
30 24 23 23 25 31 34 34 36 36 35 35 34 34 34 34 34 35 36 38 39 38 38 38 38 38 38 36 34 33 32 32 29 27 21 16 16 17 18 16 15 19 23 24
29 28 29 32 33 32 35 35 34 34 33 34 34 34 34 34 34 34 34 34 35 37 38 38 37 37 37 36 34 33 33 32 29 24 21 16 15 16 17 16 15 13 5 6
33 35 34 33 34 34 35 35 35 34 34 34 33 33 32 32 32 32 34 33 33 34 35 36 37 37 37 36 35 34 34 33 31 24 21 19 17 15 16 16 16 12 6 2
30 30 32 31 31 32 34 35 35 35 34 33 33 32 30 31 32 32 31 31 31 32 34 35 35 35 36 36 35 35 34 33 33 27 24 20 18 16 15 14 13 10 6 3
34 34 32 31 30 31 33 33 33 34 33 31 31 29 29 29 28 28 28 27 28 29 30 31 33 34 34 35 34 34 32 30 31 29 25 21 21 17 15 13 11 8 5 3
32 32 32 31 31 31 31 31 32 32 32 31 30 30 30 29 27 26 25 26 26 27 27 26 29 32 31 31 32 31 30 29 29 29 26 26 28 27 25 21 13 7 5 3
30 31 31 31 30 29 27 26 25 26 27 29 31 31 31 31 31 30 28 25 25 25 28 27 26 28 28 28 31 28 28 29 29 29 29 29 29 28 25 25 18 7 5 4
30 30 30 29 29 28 24 25 26 25 25 25 25 25 26 28 28 29 29 28 28 30 30 27 26 26 26 26 28 28 26 26 28 29 28 28 27 27 26 25 22 18 13 4
27 30 29 29 28 25 23 22 27 27 25 23 23 24 24 24 25 26 29 28 28 29 30 30 30 29 28 28 26 27 26 27 29 29 28 28 27 27 26 25 24 24 21 10
25 29 30 29 28 28 27 18 22 23 23 24 23 23 22 23 23 26 23 25 26 27 28 29 31 31 31 28 27 26 25 27 28 28 28 27 27 27 26 25 24 24 24 21
25 27 30 30 29 27 27 26 24 23 22 22 23 24 24 22 21 25 23 25 26 27 27 28 29 31 31 30 29 28 28 28 28 27 27 28 27 26 26 25 25 25 21 15
27 29 29 29 28 26 27 24 18 21 21 20 19 22 23 23 22 22 23 24 25 26 27 27 28 29 29 30 30 29 28 28 27 27 26 26 26 25 25 25 25 22 15 14
27 29 29 29 29 28 25 22 18 20 20 19 18 19 20 21 21 22 22 24 24 24 25 26 27 27 28 28 28 28 28 27 27 27 26 25 25 25 25 24 18 14 14 14
26 29 29 28 28 27 22 16 17 17 22 21 18 19 19 18 19 21 22 21 22 23 23 24 25 25 26 26 27 27 26 25 25 24 25 25 24 23 24 20 14 14 13 12

GFSNGP_sfc_30mbdewp_057.txt.gz
Dewpoint
26 26 31 30 30 31 30 29 27 26 26 28 28 29 29 25 25 32 35 37 38 39 39 38 38 37 37 36 36 37 37 37 37 37 37 38 38 37 36 36 36 36 36 36
23 25 27 27 28 30 31 30 30 30 30 32 34 34 33 31 25 29 34 36 38 38 38 38 37 37 36 36 36 37 37 37 37 37 37 37 37 37 36 36 36 36 35 36
20 24 23 17 21 26 29 32 32 29 30 31 31 31 33 33 33 27 31 36 38 38 38 38 37 36 36 36 36 37 37 37 37 37 37 37 36 36 36 36 36 36 35 35
20 20 14 17 23 26 26 27 30 31 31 31 31 33 33 33 31 29 29 34 37 37 37 37 36 36 36 36 36 36 36 36 36 36 36 36 35 35 35 35 34 33 32 32
20 20 19 21 27 25 24 25 26 26 28 29 30 31 31 32 32 30 29 33 37 37 37 36 36 36 36 35 35 35 35 35 36 36 36 35 34 34 34 33 32 30 28 28
23 19 13 17 29 30 28 25 30 32 33 34 32 28 29 31 32 31 33 36 36 36 36 35 35 36 35 35 35 35 35 36 36 36 35 34 33 33 33 32 31 28 27 26
23 22 21 24 27 28 22 23 31 35 35 35 31 30 31 34 35 36 36 36 35 35 35 35 35 35 35 35 34 35 35 36 36 36 35 34 33 32 31 30 28 26 26 24
26 23 18 26 29 27 29 33 33 35 35 35 34 31 34 35 35 35 35 35 34 35 34 35 35 35 35 34 35 35 35 35 35 35 34 33 32 31 29 28 27 26 25 23
25 23 25 28 28 30 30 26 30 34 35 36 35 34 35 35 35 34 34 34 34 34 34 35 35 35 35 35 35 35 35 35 34 33 32 31 30 29 27 26 24 23 21 17
26 27 29 31 30 28 23 21 28 35 36 37 36 35 35 36 35 35 34 34 34 34 34 34 35 35 35 35 35 34 34 33 33 32 31 30 29 28 25 23 20 17 16 14
27 29 24 29 22 21 21 22 30 34 32 36 37 37 36 36 36 35 35 34 34 34 34 34 35 35 35 34 34 34 34 33 32 31 32 30 29 25 24 23 20 16 13 11
20 24 26 23 25 25 24 23 33 30 29 34 36 37 37 37 37 36 36 36 36 36 35 36 35 35 35 35 34 33 33 32 32 32 31 30 28 25 27 26 24 24 19 12
25 26 29 29 26 24 23 29 32 33 32 34 36 37 38 38 39 39 38 38 37 37 37 37 37 36 36 35 35 34 33 32 32 31 30 29 27 24 22 18 24 23 24 24
31 31 29 28 31 32 33 33 33 34 35 34 35 34 34 34 35 36 37 38 38 38 38 38 38 37 37 36 35 34 34 33 31 32 29 27 24 21 17 15 16 22 26 24
31 32 32 34 34 33 33 33 32 34 34 34 34 34 34 33 33 33 34 34 34 36 37 38 38 38 38 37 36 35 33 33 32 30 28 25 22 18 17 17 16 15 13 14
32 32 32 32 33 32 33 33 33 35 35 35 34 33 33 32 32 32 33 33 33 33 33 35 36 37 37 37 36 35 34 33 33 30 28 26 20 17 16 16 16 15 14 11
28 28 30 30 30 29 31 33 34 35 35 35 34 33 31 31 31 30 29 29 29 30 31 32 34 34 36 36 36 35 34 34 34 31 28 26 22 19 16 16 15 15 14 12
32 32 32 31 30 29 30 31 31 31 31 31 32 32 29 28 27 27 26 26 27 28 27 26 29 32 34 35 36 35 34 34 34 33 29 27 26 24 22 22 16 14 13 10
31 31 31 31 31 29 29 28 29 30 30 31 31 31 31 30 29 29 27 25 25 26 26 27 27 30 31 32 34 34 34 32 32 33 30 29 28 25 24 25 23 25 24 14
30 29 30 30 31 29 28 23 26 26 26 26 28 29 29 30 30 30 29 25 28 29 31 28 27 27 27 28 31 31 31 30 30 30 29 28 29 29 28 28 27 26 25 24
28 29 29 29 29 29 28 25 24 27 25 24 24 24 24 25 26 28 29 28 28 29 30 30 30 28 27 27 27 29 28 28 29 29 30 30 29 30 28 27 27 25 24 24
27 28 27 29 29 28 29 26 23 25 26 25 24 23 23 22 23 26 28 26 26 27 28 29 29 31 31 30 27 27 27 27 27 29 29 29 28 28 27 27 26 26 25 24
27 28 28 28 29 29 28 28 23 24 24 25 25 25 24 23 22 25 21 24 26 26 27 27 28 29 30 29 27 26 25 26 27 28 28 28 28 28 28 27 26 26 25 25
25 28 27 29 30 28 27 27 27 25 25 25 24 24 24 23 22 25 23 24 26 26 26 28 28 29 30 30 29 28 28 28 28 28 27 28 27 27 27 27 27 26 26 26
23 25 27 28 28 28 28 28 26 25 23 24 24 21 23 23 22 22 23 23 25 25 25 26 27 28 28 29 29 29 29 28 28 27 26 26 26 26 26 26 26 25 25 25
21 22 24 27 29 29 29 28 25 24 23 22 23 20 21 20 21 22 22 23 23 24 23 25 26 26 26 27 27 27 27 27 27 26 27 26 25 25 25 25 25 25 24 19
20 23 25 26 28 28 27 27 26 24 22 22 23 24 22 19 18 20 20 20 21 22 22 22 23 24 25 26 26 26 25 24 25 25 25 24 24 24 24 24 24 20 15 14

GFSNGP_sfc_30mbdewp_060.txt.gz
Dewpoint
25 29 31 30 29 29 30 28 26 25 25 25 27 29 30 31 31 30 30 36 39 40 40 40 40 40 39 39 38 38 38 38 38 38 38 39 38 38 38 38 38 37 37 37
25 26 27 27 28 29 30 29 28 28 27 30 30 31 30 30 30 31 31 32 36 39 40 40 40 40 39 39 38 37 37 37 38 38 38 38 38 37 37 37 36 36 37 36
24 24 23 21 23 25 27 30 29 27 27 29 29 29 31 31 31 31 32 32 33 36 39 40 40 39 39 39 38 37 37 37 37 37 37 38 38 37 37 37 37 36 36 36
24 22 16 19 22 25 24 25 27 29 29 29 31 33 33 32 32 33 32 32 32 35 37 39 39 39 39 38 37 37 37 37 37 37 37 37 36 36 36 36 36 35 35 35
23 20 20 24 27 26 25 27 29 30 32 34 35 35 31 32 32 32 33 33 31 34 37 39 39 39 38 37 37 36 36 36 37 37 37 36 35 35 35 35 34 33 32 32
23 20 15 21 28 30 28 24 31 32 31 34 35 31 30 32 33 34 34 32 34 37 37 38 38 38 37 37 36 36 36 36 36 37 36 35 35 34 34 34 32 31 30 31
23 21 20 24 27 29 24 26 30 32 33 34 34 35 36 33 34 36 36 36 37 37 37 37 37 37 36 36 36 36 36 36 36 37 36 35 34 33 33 32 31 31 30 29
24 22 19 28 30 26 29 26 25 25 28 32 34 36 36 35 36 36 36 36 36 37 37 37 37 37 36 36 36 36 36 36 36 36 35 34 33 32 32 31 30 28 25 24
26 24 28 28 29 30 23 22 21 21 24 31 29 34 37 36 36 35 35 35 36 36 36 36 36 36 35 35 36 35 35 35 35 35 34 33 32 31 29 29 29 25 23 21
28 28 26 23 30 24 26 26 26 23 28 30 26 27 36 37 37 36 35 35 35 35 35 35 35 35 35 35 35 35 35 35 34 34 32 32 31 30 30 28 26 22 21 17
23 24 23 28 25 26 28 28 25 26 30 30 29 26 32 37 37 37 36 36 35 35 35 35 35 35 35 35 35 35 34 34 33 33 33 31 30 30 29 24 22 19 16 14
21 25 25 26 28 30 30 29 29 31 32 32 32 30 31 37 38 37 36 36 35 36 36 36 36 35 36 35 35 34 34 33 33 32 33 31 30 31 29 25 25 24 22 16
27 29 30 31 31 31 29 32 33 32 33 33 33 34 34 37 38 40 38 37 37 37 38 37 37 36 36 36 35 35 34 34 33 33 32 31 31 29 22 25 29 28 27 26
31 31 30 31 31 32 34 34 33 33 32 32 34 35 35 35 36 37 38 39 39 39 38 38 38 38 37 36 35 35 34 34 33 33 32 32 32 29 24 21 19 21 25 26
31 31 32 32 32 32 31 32 32 33 34 33 34 34 34 34 34 34 34 34 34 35 37 38 38 38 39 37 36 35 35 34 34 34 32 31 30 28 26 23 17 15 19 24
30 31 31 31 32 32 31 31 32 33 34 35 35 35 33 33 32 32 33 34 33 34 34 34 36 37 39 39 37 36 35 35 34 33 32 31 28 25 24 21 18 16 16 14
28 27 29 29 30 30 29 30 31 31 31 32 32 33 33 32 32 31 30 29 29 30 30 31 32 34 35 38 38 37 37 35 35 33 31 30 28 26 24 21 19 16 16 16
27 27 29 29 30 29 29 29 29 29 29 30 31 31 31 31 30 29 27 26 28 28 27 27 27 31 33 35 37 36 36 35 35 34 32 30 29 27 25 22 23 20 16 15
28 26 27 29 29 29 29 29 26 28 29 29 29 30 31 31 31 31 30 26 26 27 30 28 28 28 30 32 35 36 35 35 34 34 33 31 30 29 27 25 26 27 25 25
25 26 27 29 29 29 29 28 21 23 25 26 26 27 28 28 28 29 30 27 29 29 31 31 30 27 27 28 31 33 34 33 33 32 32 31 30 30 29 29 28 28 27 27
24 25 27 29 29 29 29 28 26 24 24 25 24 23 23 25 25 26 29 28 27 29 28 29 30 31 31 30 28 30 30 30 30 30 30 31 31 31 30 30 29 29 28 27
23 24 26 28 29 29 30 30 28 22 24 24 25 25 24 23 23 26 27 25 26 27 28 28 28 30 31 31 28 28 28 28 28 29 29 30 30 30 29 29 29 29 28 27
24 25 26 29 29 29 30 30 29 25 24 24 25 25 26 26 25 24 22 24 26 26 27 28 29 30 32 29 28 28 27 27 27 28 28 28 28 28 28 28 28 28 28 27
23 23 24 27 29 29 28 28 28 27 26 26 25 25 25 24 25 26 24 24 26 26 26 27 28 29 29 30 30 29 28 28 28 28 28 28 28 28 28 27 27 28 28 28
20 21 23 24 25 26 28 29 28 27 26 25 26 25 26 26 24 25 25 23 25 25 25 26 27 27 27 28 28 29 29 28 28 28 27 28 27 27 27 27 27 27 27 27
18 18 20 23 25 26 28 29 27 28 26 25 23 24 22 22 22 22 23 24 23 24 23 23 24 25 25 26 27 27 26 26 26 26 27 27 27 27 26 26 26 26 27 27
18 19 19 20 21 24 27 28 27 27 27 25 22 24 24 23 20 20 20 19 21 22 22 22 22 23 24 24 25 25 24 24 25 25 26 26 26 26 25 25 25 25 25 20

GFSNGP_sfc_30mbdewp_063.txt.gz
Dewpoint
26 29 31 30 27 27 28 29 26 23 22 24 25 27 28 29 28 29 30 31 32 38 39 40 41 41 40 40 39 39 39 39 38 39 39 39 39 39 39 38 38 38 38 38
26 26 27 27 27 28 27 28 28 27 26 27 28 28 27 28 29 30 30 29 31 34 39 40 40 41 41 40 39 39 38 39 39 38 38 39 38 38 38 38 37 37 37 37
26 24 23 20 22 24 26 27 27 25 25 26 28 30 33 34 33 32 32 33 30 33 35 39 40 40 41 41 40 38 38 38 38 38 38 38 38 38 37 37 37 37 36 36
25 23 17 19 21 23 22 24 25 25 28 31 33 35 35 34 31 31 32 32 33 31 33 36 39 40 41 41 39 38 38 37 38 38 37 37 38 37 37 37 37 36 36 36
24 20 18 25 26 25 25 28 31 30 29 31 33 34 32 35 36 32 33 34 33 33 32 35 38 41 41 40 39 38 38 37 38 37 37 37 37 36 36 36 35 35 35 35
22 19 14 24 26 28 28 25 29 30 30 32 33 28 30 36 37 34 35 36 35 35 35 34 38 40 40 39 39 38 38 37 37 37 37 37 36 36 35 35 34 34 33 33
24 21 20 26 28 28 22 26 27 27 26 27 29 30 31 36 37 36 36 37 37 37 37 37 39 39 39 39 38 38 38 37 37 37 37 37 36 35 35 33 32 32 31 31
22 22 19 28 30 26 28 25 24 24 24 23 24 28 28 29 37 37 36 36 36 37 38 39 38 38 39 38 38 38 37 37 37 37 37 36 35 34 33 32 31 30 28 26
24 25 28 25 28 28 26 26 26 26 26 23 24 27 26 26 30 38 36 36 36 37 37 38 38 38 38 37 37 36 36 36 36 36 36 35 33 32 32 31 30 30 26 23
28 28 29 23 27 27 26 27 29 28 25 26 28 28 28 27 26 37 37 36 36 36 36 36 37 37 36 36 36 35 35 35 36 35 34 33 32 32 31 30 30 29 24 22
23 21 22 24 26 26 29 30 30 29 30 32 32 31 29 28 27 34 38 37 36 36 36 36 36 36 35 35 35 35 35 35 35 34 34 32 31 31 30 31 31 27 22 21
17 24 25 25 27 30 30 30 30 31 31 32 32 33 33 32 30 34 38 38 37 36 36 36 35 36 36 36 36 36 35 35 34 33 34 32 31 30 33 32 28 25 22 19
26 29 30 30 31 30 30 32 32 32 31 31 31 32 32 33 33 35 38 39 37 37 38 38 38 37 37 37 37 36 35 34 34 34 33 32 31 31 31 31 30 26 27 28
30 30 29 30 29 31 32 32 32 31 32 33 34 33 33 34 35 35 36 39 40 38 38 39 38 38 38 37 36 35 35 35 34 34 33 33 32 31 31 23 24 26 29 30
28 29 29 30 30 30 31 32 31 31 32 33 33 35 34 35 34 34 34 34 35 35 37 38 39 39 39 37 36 35 35 35 35 34 34 33 33 32 31 25 23 20 24 27
24 25 25 27 28 30 29 29 29 30 31 32 33 33 34 34 34 34 34 34 33 34 35 35 35 37 38 39 37 36 35 35 35 34 34 34 33 32 29 27 27 24 19 18
26 26 25 25 25 26 29 29 29 29 29 30 29 30 31 32 33 33 33 33 32 30 31 31 32 31 34 37 39 38 36 36 36 35 34 33 32 30 28 27 24 22 19 17
24 25 26 26 26 26 29 30 29 29 28 27 30 30 30 31 30 31 31 31 31 32 31 28 29 29 32 34 36 38 38 37 36 35 33 32 32 30 29 28 28 29 28 23
22 22 24 24 25 26 27 29 29 29 26 27 28 28 30 31 31 31 31 31 31 31 32 31 31 29 29 31 33 36 36 36 35 35 34 33 32 31 29 28 26 26 28 27
22 24 24 24 24 26 28 29 28 28 27 24 24 24 23 25 29 28 27 29 30 29 30 30 30 31 29 28 30 34 35 34 34 34 33 33 32 31 30 30 29 29 30 29
23 25 25 26 25 28 29 29 29 29 27 25 25 23 24 23 23 25 28 29 28 28 29 29 30 30 32 32 31 29 31 32 32 32 32 33 32 32 31 31 30 30 29 30
23 25 25 26 25 26 29 30 30 31 29 23 24 24 26 25 24 24 28 26 26 27 28 28 29 30 32 31 30 28 29 29 29 30 30 30 31 31 31 31 30 30 30 30
20 22 24 24 25 26 28 28 29 31 29 26 25 25 26 28 28 25 24 26 26 26 27 28 29 30 31 30 29 29 29 28 28 29 29 28 28 28 29 29 30 30 30 29
21 21 21 23 24 26 26 26 28 31 30 29 28 28 26 25 27 28 28 25 25 27 26 27 28 28 29 30 30 30 29 29 28 28 28 28 28 29 29 29 28 28 28 27
22 21 21 22 23 21 24 26 28 30 29 28 27 28 28 28 26 27 27 26 25 26 25 25 26 27 27 28 28 28 28 29 29 29 28 28 27 27 27 26 26 27 27 27
21 18 17 19 20 22 24 26 26 29 30 27 27 26 27 27 26 24 25 25 25 23 23 23 24 25 25 26 27 27 26 26 26 27 27 27 26 26 26 26 26 26 26 27
22 20 20 20 19 17 18 21 23 26 29 29 26 27 27 26 25 23 21 22 23 24 22 22 22 22 23 24 24 24 24 24 25 25 25 25 25 25 25 25 25 25 25 26

GFSNGP_sfc_30mbdewp_066.txt.gz
Dewpoint
26 29 31 30 28 28 28 29 26 26 25 24 26 27 28 28 29 31 32 31 30 33 39 40 41 41 41 41 40 39 39 39 39 39 39 39 39 39 39 39 39 38 38 38
26 26 27 27 27 28 27 29 28 28 27 28 29 30 31 33 34 34 33 33 33 32 37 40 41 41 41 41 40 39 39 39 39 39 39 39 39 39 38 38 38 37 37 37
25 24 22 20 23 26 27 28 27 26 27 28 31 33 34 35 34 32 32 32 33 33 34 38 41 41 41 41 40 39 39 39 39 39 38 39 38 38 37 37 37 37 37 36
25 23 17 20 22 23 22 25 26 24 28 31 32 33 34 36 37 35 33 33 34 34 34 34 40 41 42 42 40 39 39 38 38 38 38 38 38 37 37 38 37 37 36 36
25 22 20 25 26 25 26 29 30 30 31 32 32 33 34 33 33 37 35 35 36 37 36 35 37 41 42 41 40 39 39 38 38 38 38 37 37 37 37 37 37 36 36 36
22 19 16 25 26 28 27 27 29 27 27 27 28 29 30 31 31 34 37 37 37 37 37 37 36 42 41 41 40 39 39 38 38 38 37 37 36 37 36 36 35 35 34 35
23 21 23 27 28 28 22 24 25 25 24 24 23 26 26 29 29 29 37 37 37 37 38 38 40 41 40 40 39 39 39 38 38 38 37 37 36 36 35 35 34 33 32 32
24 24 19 27 30 27 26 26 27 27 27 26 26 24 25 28 27 27 28 37 36 37 38 39 39 40 39 39 40 39 38 38 37 37 37 37 35 35 34 33 32 32 30 28
25 26 27 25 28 26 26 26 28 29 29 27 26 26 30 30 30 28 27 36 36 36 38 38 38 39 39 39 38 38 37 37 37 37 36 36 34 33 33 32 31 30 29 26
27 29 29 27 28 27 29 30 30 30 30 30 31 32 32 33 33 31 30 30 37 36 36 37 37 38 38 38 37 36 36 36 36 36 35 35 34 33 32 31 31 31 28 25
24 23 23 26 27 30 30 30 30 31 31 31 31 30 31 31 32 33 33 32 38 37 36 36 36 37 36 36 36 35 35 35 35 35 35 33 33 32 32 31 31 31 28 24
22 27 27 27 30 31 30 30 31 31 31 32 31 30 30 30 32 32 33 34 36 38 37 37 36 36 36 36 36 35 35 35 35 34 35 33 32 31 33 32 33 33 30 25
25 28 30 30 30 30 30 31 32 31 30 30 31 33 34 34 33 33 35 35 37 38 38 37 38 37 37 37 36 36 35 36 35 34 34 32 31 31 31 33 35 30 29 26
29 29 28 29 28 30 30 30 31 31 31 31 31 32 32 33 35 34 34 34 35 35 37 39 40 40 38 38 37 37 36 36 34 34 34 33 32 32 32 31 30 31 31 29
24 26 26 26 26 27 28 29 29 29 29 29 30 30 31 31 31 33 34 34 34 34 35 35 37 39 39 37 36 36 35 35 35 35 34 34 33 32 32 32 28 24 26 28
24 25 26 25 25 25 25 26 26 27 28 28 28 29 29 30 30 32 34 34 33 33 33 34 34 35 37 39 37 36 36 35 35 34 34 34 33 32 32 32 30 27 22 24
24 23 25 25 26 26 26 26 26 27 28 28 28 27 26 29 30 31 31 33 32 32 33 32 32 31 31 33 37 37 36 36 36 35 34 34 34 33 32 32 31 29 27 22
22 23 24 24 24 25 26 26 26 27 27 28 29 27 26 26 27 28 29 31 31 32 33 32 32 32 32 31 33 37 37 36 36 35 34 33 33 33 32 31 31 30 27 25
21 21 22 23 24 24 24 25 27 28 28 28 28 26 26 26 27 28 29 29 29 30 32 32 32 32 31 31 31 35 36 36 36 35 34 34 34 32 32 31 31 30 30 30
22 23 24 25 25 25 25 25 28 28 28 28 29 27 25 24 24 25 27 27 29 30 31 31 31 31 32 32 31 31 35 35 34 34 34 33 32 32 31 31 30 30 29 30
23 23 24 24 24 25 25 25 27 28 29 30 30 27 26 26 25 24 23 25 29 28 28 30 30 30 31 32 33 29 30 32 33 33 33 33 32 32 31 31 31 30 30 30
22 21 21 22 24 23 24 24 26 28 28 27 30 28 27 26 26 28 27 26 27 27 28 28 29 30 32 33 31 29 29 30 30 31 31 32 32 31 31 31 31 30 30 30
21 20 21 20 20 20 23 24 26 27 27 29 30 28 27 27 27 26 25 28 26 26 28 28 29 31 31 31 30 30 30 29 30 30 30 29 29 29 29 28 28 30 30 30
21 21 21 22 21 21 20 22 24 26 27 30 30 30 28 26 26 29 29 29 28 26 26 27 28 29 30 29 29 30 29 29 29 29 28 28 27 28 28 29 29 29 29 28
22 22 22 20 17 18 20 21 23 25 25 28 30 29 28 28 26 27 27 26 27 27 26 26 26 27 27 27 28 28 28 28 29 29 28 29 28 27 26 26 26 26 26 26
22 23 22 20 18 19 21 20 19 21 23 25 28 29 28 28 27 27 26 26 26 26 24 24 24 24 25 26 26 26 26 26 26 26 26 26 26 26 26 26 26 26 26 26
23 23 22 21 21 21 21 21 19 18 22 25 26 28 28 27 26 26 25 24 24 24 23 23 22 22 23 23 23 24 24 24 25 25 25 25 25 26 25 25 25 26 26 26

GFSNGP_sfc_30mbdewp_069.txt.gz
Dewpoint
28 29 30 29 29 30 29 28 25 24 25 27 28 28 30 33 35 34 32 32 32 33 34 39 40 41 41 41 40 40 40 40 40 40 40 40 40 39 39 39 39 39 38 38
25 26 26 27 28 28 29 29 29 28 27 28 31 34 34 35 33 32 33 32 33 33 34 35 40 41 41 41 40 40 40 39 39 39 39 39 39 39 38 38 38 38 37 38
24 23 22 20 23 26 28 28 29 27 28 32 33 33 34 35 36 36 35 33 34 34 35 35 35 41 41 41 40 39 39 39 39 39 38 38 39 38 37 37 37 37 37 37
24 22 16 20 22 24 27 29 28 29 31 32 32 32 35 32 31 33 35 35 36 36 36 37 37 40 42 42 40 39 39 39 39 39 38 38 38 37 37 37 37 36 36 37
24 21 21 24 25 24 26 28 29 29 29 28 26 32 33 30 29 30 31 33 36 37 37 37 37 37 42 42 40 39 39 39 39 39 38 38 37 37 37 37 37 37 36 36
24 19 17 24 26 28 27 26 27 26 24 24 25 25 29 25 26 29 28 28 32 37 37 37 38 39 42 41 40 39 39 39 39 38 38 37 37 37 36 36 36 36 35 36
23 21 23 27 29 28 18 20 26 26 27 26 25 25 26 25 28 30 30 29 30 37 37 38 39 41 41 41 40 40 39 39 38 38 37 37 37 36 36 36 35 34 34 34
24 24 21 26 29 26 26 27 28 29 29 28 28 27 28 31 32 32 31 30 30 34 36 38 39 39 40 40 40 39 39 38 38 37 37 37 36 35 35 34 33 33 32 31
25 24 25 28 26 28 29 29 29 29 30 30 30 31 31 31 32 32 33 33 33 32 36 37 38 38 38 39 39 39 38 37 37 37 37 36 35 34 33 33 32 32 31 29
27 28 27 28 30 30 30 30 30 31 30 30 30 31 30 30 30 31 32 33 33 33 35 36 37 37 38 39 39 38 37 36 36 36 36 35 35 34 33 32 32 31 30 29
24 24 26 29 30 30 30 30 30 31 31 31 31 31 31 31 32 31 31 33 33 34 35 37 37 37 37 37 37 37 36 36 36 36 36 34 34 34 33 33 33 32 31 29
22 26 26 27 30 30 30 30 31 31 31 31 31 30 30 31 32 34 35 34 34 36 38 39 38 37 37 37 36 36 35 35 35 35 35 34 33 33 35 34 34 34 33 30
26 28 29 30 30 30 29 29 31 31 31 31 30 30 32 31 31 32 33 34 34 34 34 35 38 38 38 37 37 37 35 35 35 35 34 33 32 32 31 33 34 35 35 33
29 28 28 29 26 26 28 29 29 29 28 28 29 29 29 30 30 30 30 32 34 34 34 35 35 37 40 40 38 37 36 36 35 35 34 33 32 32 32 31 31 33 35 32
23 25 25 25 24 25 26 26 26 26 26 27 27 27 28 27 26 27 29 30 32 33 34 34 34 35 37 39 38 37 36 36 36 35 34 34 33 32 32 32 32 31 31 32
24 24 25 25 25 25 26 26 25 25 26 27 27 26 27 28 26 26 28 29 30 30 32 32 33 34 33 34 37 37 36 36 36 35 34 34 33 32 32 32 32 30 27 27
20 16 21 20 22 22 23 24 25 26 26 26 25 26 28 28 26 25 25 27 29 29 30 31 32 33 33 32 32 34 37 36 37 36 34 34 33 32 32 32 32 31 30 27
21 22 22 22 21 22 23 23 24 24 25 27 27 27 27 27 26 26 26 26 27 28 29 31 31 32 32 32 32 33 34 36 36 36 34 34 33 34 33 33 32 32 31 29
21 21 21 22 23 24 24 23 24 24 26 28 28 28 28 28 27 26 26 27 26 25 28 31 31 31 31 31 32 31 32 33 35 36 35 34 34 33 33 32 32 32 32 30
22 23 23 23 24 24 23 23 24 24 25 28 28 26 26 28 27 27 26 24 24 25 31 30 30 29 29 30 32 32 31 32 33 34 34 34 33 33 32 32 32 31 31 31
21 21 21 21 21 22 23 23 23 22 23 27 27 26 26 29 28 27 26 25 25 28 29 28 28 29 29 31 32 32 31 31 31 32 32 33 32 32 32 31 31 31 30 30
20 20 20 20 20 21 20 20 22 22 23 25 26 27 28 28 27 27 27 27 28 29 27 28 27 28 31 32 31 30 30 31 31 31 31 31 31 31 31 31 30 31 30 30
20 20 21 20 20 20 21 20 19 21 22 24 25 27 28 29 28 26 24 27 28 28 28 27 28 29 29 30 29 29 29 30 30 31 31 31 30 30 30 30 30 30 30 30
19 19 20 21 21 20 17 17 19 21 22 24 25 27 29 28 27 27 29 29 28 28 28 27 28 28 29 28 28 28 29 28 29 29 29 30 29 28 28 28 28 29 29 29
19 19 19 20 20 20 18 18 20 22 21 21 23 27 29 29 27 27 27 27 27 27 26 26 27 26 26 27 27 27 27 27 28 28 28 28 28 27 27 27 27 26 26 27
19 20 21 22 22 22 21 20 20 21 21 20 22 25 26 28 28 27 26 26 26 26 24 24 24 24 24 25 26 25 25 25 25 25 26 26 26 26 26 26 26 26 26 26
21 22 21 21 20 21 21 21 21 24 21 20 22 25 26 27 27 27 26 25 24 24 24 23 22 22 22 23 23 23 23 24 25 24 24 24 24 24 25 25 25 25 26 26

GFSNGP_sfc_30mbdewp_072.txt.gz
Dewpoint
28 28 30 29 29 30 28 27 22 23 21 27 27 29 33 35 33 32 33 32 33 34 34 35 36 39 41 42 42 41 41 41 42 42 41 41 41 40 40 40 40 39 38 38
25 26 25 26 28 29 31 29 29 28 27 29 32 35 34 34 36 36 36 35 35 36 36 35 36 37 40 41 41 41 40 40 41 40 40 40 39 39 39 38 38 38 38 38
23 23 21 20 22 26 28 29 29 28 29 33 33 34 34 31 30 30 31 31 32 34 36 36 37 37 37 40 42 40 40 40 40 39 39 39 39 38 38 37 37 37 37 37
23 21 18 20 23 25 28 29 29 31 32 30 28 31 30 28 27 27 29 28 29 30 33 37 37 37 38 40 41 40 40 40 39 39 39 38 38 38 37 36 36 36 36 36
22 19 20 23 25 25 26 28 28 27 26 25 25 33 30 27 26 28 29 29 29 29 32 37 37 38 39 40 41 40 40 39 39 39 38 38 38 37 37 36 36 36 36 36
24 21 18 23 26 28 28 24 25 25 25 25 25 23 28 27 28 31 32 32 31 31 32 35 37 39 39 40 41 40 40 40 39 39 38 38 37 37 36 37 36 36 36 36
23 21 22 27 28 28 19 19 27 27 27 27 25 25 27 28 32 33 33 33 34 33 32 34 37 38 38 40 40 41 40 40 39 39 38 37 37 36 36 36 36 36 35 35
23 23 20 26 29 24 25 28 29 29 29 29 29 29 30 31 31 32 32 33 33 33 34 34 36 37 37 38 40 40 40 39 38 38 38 37 36 36 36 35 35 34 34 33
24 24 25 28 27 29 28 28 29 29 30 30 30 30 31 31 31 31 31 31 33 33 33 34 35 37 37 37 39 39 39 38 37 37 37 36 36 36 35 34 34 33 32 32
27 27 27 29 30 30 30 29 30 31 30 30 30 31 31 30 31 31 32 32 32 33 33 34 35 37 37 38 38 38 38 37 36 36 36 36 36 35 34 33 33 32 32 31
24 26 28 29 30 30 30 30 30 31 31 31 31 31 30 30 30 30 31 33 35 34 34 36 37 39 38 37 38 38 37 36 36 36 36 35 35 35 34 34 34 33 32 32
24 25 25 27 30 30 28 28 30 30 31 31 31 30 30 30 31 31 30 32 32 34 34 34 35 36 38 37 37 37 36 36 36 36 36 35 34 34 36 36 36 36 35 33
26 28 29 30 30 29 26 27 29 29 29 28 29 28 27 28 29 30 30 30 29 30 32 34 34 35 36 39 38 38 37 36 36 36 36 34 34 33 32 34 37 37 37 36
28 29 27 28 24 25 25 26 27 27 28 27 27 28 27 26 27 27 27 27 28 29 31 32 34 34 36 38 39 38 38 38 37 36 35 35 34 33 33 32 32 32 36 37
23 24 23 25 24 24 25 25 25 24 24 25 26 27 27 25 25 27 27 26 26 28 30 31 31 32 34 34 35 38 38 37 37 36 35 35 34 33 32 32 32 32 32 35
23 23 24 23 22 22 23 23 23 23 24 25 26 27 26 27 27 28 27 26 25 25 27 28 29 30 32 33 33 34 37 37 37 36 35 34 33 32 32 32 32 32 31 32
15 10 18 18 20 21 21 23 23 23 23 24 24 25 27 26 27 27 27 27 26 25 26 26 28 30 33 33 33 32 33 36 37 36 35 34 34 33 32 32 32 32 32 31
20 21 21 21 21 21 21 22 22 21 20 22 24 26 27 27 27 27 27 27 27 27 27 26 28 32 32 32 32 32 32 33 36 36 35 34 34 34 33 32 32 32 33 33
21 21 21 22 22 23 23 22 21 21 22 23 24 24 27 28 27 28 28 28 26 25 25 26 30 31 29 30 31 32 30 30 32 34 35 35 35 34 33 33 33 33 33 32
21 21 22 22 22 22 21 22 22 21 22 22 22 24 26 26 26 27 29 27 26 26 26 28 30 29 28 29 30 31 31 30 30 32 33 34 34 33 33 33 33 32 32 32
20 20 19 20 20 21 21 22 21 19 19 21 22 23 24 25 25 27 27 26 25 26 28 29 29 27 27 28 30 31 30 30 30 30 31 32 33 33 33 32 32 32 31 31
17 16 16 17 19 19 20 21 20 20 20 20 21 23 24 24 26 27 28 27 28 29 30 28 27 27 28 30 31 29 29 29 30 30 30 31 31 31 31 31 31 31 31 30
16 17 18 18 18 19 21 20 20 19 19 21 21 22 23 25 26 26 25 26 29 29 29 28 28 29 29 29 28 28 28 29 29 30 30 30 30 31 31 31 30 30 30 30
16 17 18 19 19 18 18 18 19 19 19 20 22 22 23 26 25 27 28 29 28 28 28 27 28 29 29 26 27 27 27 28 28 29 29 30 29 28 28 29 28 29 29 30
17 18 18 18 19 20 21 21 21 20 20 21 22 21 22 25 26 27 27 27 27 27 26 26 27 27 25 25 26 26 26 27 27 27 28 28 27 27 27 27 27 27 27 27
17 18 19 21 21 22 21 21 21 21 21 21 22 21 21 24 26 27 27 26 26 26 24 24 25 25 24 24 25 24 25 25 25 25 25 25 26 25 26 26 26 26 26 26
18 20 21 20 21 20 20 21 22 22 23 24 23 21 22 24 24 26 27 26 25 24 24 23 23 23 24 23 23 22 23 23 24 23 23 23 24 24 24 24 24 25 25 25

GFSNGP_sfc_30mbdewp_075.txt.gz
Dewpoint
27 28 30 29 29 30 27 25 21 24 21 27 27 30 34 34 34 35 35 34 34 34 36 36 36 37 37 38 41 42 42 42 43 42 42 42 42 41 41 40 40 39 38 38
24 24 24 27 28 30 30 28 27 26 26 29 33 34 34 35 34 30 30 30 30 30 31 34 36 37 37 37 39 41 41 41 42 41 41 41 40 40 39 39 39 38 38 38
23 22 21 20 22 27 29 30 29 28 29 33 33 34 31 27 26 26 28 28 28 29 29 31 34 37 37 38 39 40 41 41 41 41 40 40 39 39 38 38 37 37 37 37
22 20 15 20 23 24 28 29 30 31 31 31 31 32 27 26 25 26 28 29 30 30 30 30 34 37 38 39 39 40 41 40 40 40 39 39 38 38 37 36 36 36 36 36
21 19 20 22 24 28 27 27 28 29 26 25 26 30 27 26 26 29 30 31 32 32 32 32 33 35 37 38 39 40 40 40 40 39 39 38 38 37 36 36 36 36 36 36
24 21 18 21 26 28 28 22 26 25 25 25 27 29 28 28 29 32 32 33 33 33 33 33 33 35 36 37 38 39 40 40 40 39 39 38 37 37 36 36 36 35 35 35
23 20 21 24 28 28 21 19 26 27 27 27 25 25 27 29 31 32 32 32 33 33 33 34 34 34 35 37 37 38 40 40 40 39 39 38 37 36 36 36 36 36 35 35
23 22 18 27 28 23 24 28 28 28 29 28 29 30 30 31 31 31 31 31 32 32 33 33 34 34 35 36 37 38 39 39 39 39 38 37 36 36 35 35 35 35 35 35
24 23 26 28 28 28 28 28 29 29 30 30 29 29 30 31 31 31 31 31 33 34 33 33 34 35 36 37 37 38 38 38 38 37 37 36 36 35 35 35 35 34 33 33
26 26 27 28 29 29 29 29 30 30 30 30 30 30 31 30 30 30 30 30 31 33 32 33 35 36 35 38 37 37 38 37 36 36 36 36 35 35 35 34 34 33 33 32
25 26 28 29 29 29 30 29 30 30 30 31 30 29 30 28 29 29 31 31 32 31 31 33 33 34 35 35 38 37 37 36 36 36 37 35 35 35 35 36 36 34 33 33
24 25 26 26 30 30 27 25 28 29 28 29 28 27 28 26 27 27 28 29 29 29 28 29 31 32 34 35 36 37 37 37 36 36 36 36 35 35 37 36 37 37 36 34
25 28 28 30 30 29 24 25 27 28 27 27 27 27 27 27 27 26 26 26 27 28 27 28 30 32 33 35 36 37 38 38 37 37 36 36 35 34 34 35 37 37 37 37
28 28 27 27 23 27 24 25 26 25 25 25 25 26 26 27 27 26 25 26 26 26 26 27 28 30 32 33 34 33 35 38 38 37 37 36 35 34 34 33 33 34 37 37
21 23 21 25 23 23 24 23 22 21 22 22 24 24 25 26 26 26 25 26 27 26 26 26 26 27 29 31 32 32 33 35 38 37 37 36 35 34 34 33 33 33 33 35
22 23 23 21 20 20 20 20 20 21 21 21 21 21 23 25 26 26 27 27 27 26 27 27 25 26 27 30 32 32 32 33 36 37 36 35 34 33 33 32 32 32 32 32
15 9 17 17 18 19 19 21 22 22 22 21 20 21 23 24 26 26 27 27 27 27 28 27 27 27 27 30 32 31 31 32 33 35 35 34 34 33 33 32 32 32 32 33
19 20 20 20 20 20 20 21 22 22 20 20 21 21 21 21 22 24 26 27 27 28 28 27 27 27 27 32 30 30 31 31 31 32 34 34 34 34 33 33 32 32 33 33
20 20 21 21 21 21 21 21 21 21 21 21 20 20 21 22 23 25 26 25 26 26 26 26 26 27 30 30 29 28 29 29 30 30 31 33 34 34 33 33 32 33 33 32
19 20 20 19 20 20 19 20 21 21 21 20 20 20 20 21 23 24 25 24 25 26 28 28 27 28 29 28 28 27 28 28 29 30 30 31 32 33 33 33 33 33 32 32
18 18 18 17 17 18 19 19 20 20 20 20 19 20 21 21 23 24 24 24 26 27 29 30 29 29 28 28 27 28 29 29 28 28 29 29 31 33 33 33 33 32 32 32
16 15 15 15 16 17 18 20 20 20 20 20 19 20 22 21 21 23 25 25 26 28 29 29 28 28 28 28 29 30 28 27 27 28 29 29 30 31 32 32 32 32 31 31
16 16 16 16 16 17 19 19 18 19 20 20 19 19 20 22 21 23 23 24 27 29 29 28 29 29 29 30 27 26 26 26 27 28 29 30 30 30 31 31 31 31 31 30
15 16 16 17 17 17 17 19 19 20 21 20 20 21 21 22 21 24 25 27 27 27 28 28 27 28 29 26 25 25 26 26 27 27 28 30 29 29 29 29 29 29 29 30
17 17 17 17 17 18 20 21 21 21 21 21 21 22 22 22 22 22 24 26 27 27 26 26 26 26 26 25 25 25 25 25 27 26 26 27 27 27 27 27 28 28 28 28
17 17 18 19 20 21 21 21 20 21 22 22 22 23 23 23 22 24 24 25 27 26 26 24 24 25 25 24 24 24 24 24 24 24 25 25 25 25 25 26 26 26 26 27
18 19 19 20 20 20 21 21 22 22 22 22 21 22 23 23 22 22 22 24 26 25 24 24 24 24 25 24 22 22 23 22 24 23 23 23 23 23 23 24 24 25 25 25

GFSNGP_sfc_30mbdewp_078.txt.gz
Dewpoint
26 28 29 29 29 29 26 24 20 23 23 25 26 30 33 33 35 32 30 28 28 28 29 31 32 35 37 37 38 39 41 42 42 43 43 43 43 42 41 41 40 39 39 38
24 24 24 27 28 30 29 27 26 24 23 28 30 34 34 34 30 29 27 27 28 29 29 29 30 32 36 37 38 39 39 40 42 42 42 41 41 41 40 39 39 38 38 38
23 22 21 19 22 27 29 30 29 26 27 32 33 34 32 27 25 26 27 28 29 30 31 31 31 32 34 37 38 39 39 40 41 41 41 40 40 39 39 38 38 38 37 37
22 20 17 19 23 24 27 28 30 31 31 30 33 31 27 26 26 28 29 30 31 32 32 32 32 33 35 36 38 38 39 40 40 40 40 40 39 38 37 37 37 36 36 36
21 20 19 22 25 27 26 26 29 29 25 25 28 28 27 26 28 29 31 32 32 33 33 33 33 33 34 35 37 38 38 39 40 40 39 39 38 38 37 36 36 36 36 36
23 20 17 21 26 28 28 20 27 27 25 25 32 26 28 28 30 31 32 32 32 32 33 33 33 34 34 35 36 37 37 38 40 40 39 39 38 37 36 36 35 35 35 35
23 21 21 24 28 27 21 19 26 26 27 27 25 25 28 30 30 31 32 31 32 32 32 33 34 34 34 35 36 37 37 38 39 39 39 39 37 36 36 36 35 35 35 36
23 21 17 27 28 23 24 28 28 28 28 28 29 29 30 30 31 31 31 31 31 32 32 34 34 34 34 34 36 37 37 37 38 38 38 38 37 36 35 35 35 35 36 35
24 22 26 28 28 28 28 28 28 28 29 30 29 29 30 30 30 31 30 30 31 31 32 31 32 35 34 34 35 37 37 37 37 37 37 37 36 36 35 34 34 34 35 34
26 26 27 28 29 29 29 29 30 30 30 30 29 29 28 29 29 28 29 29 30 31 29 30 30 31 33 34 35 35 37 37 36 36 36 36 36 36 35 34 34 34 34 33
26 26 27 28 29 29 29 28 29 29 30 29 27 25 26 26 26 26 26 27 28 28 28 28 28 29 30 32 34 35 37 37 37 36 36 35 34 35 35 36 36 35 35 34
24 25 26 26 29 30 27 24 26 28 26 26 27 25 26 26 26 27 26 26 26 26 26 27 27 28 29 31 32 33 33 35 37 37 36 36 35 35 37 37 37 38 36 35
24 27 27 29 30 29 25 24 26 27 25 24 25 25 25 25 26 27 27 26 26 25 26 26 26 26 27 29 30 30 31 32 35 37 37 36 35 35 34 36 38 38 38 37
29 28 26 28 24 28 23 24 25 24 23 23 23 23 23 24 25 25 26 26 25 25 26 26 26 26 26 27 28 28 29 31 33 36 37 37 35 35 35 34 34 34 37 38
21 22 20 25 22 21 21 21 20 19 20 21 21 21 21 20 21 22 24 26 27 27 27 27 26 26 27 27 27 27 29 30 32 33 36 37 36 35 34 34 34 34 34 36
22 22 22 19 18 18 18 18 18 19 20 21 20 18 18 21 22 22 24 26 26 25 26 27 27 28 28 27 27 27 29 31 32 32 33 35 35 34 33 33 33 33 33 33
15 7 14 13 14 16 18 20 20 20 21 21 21 20 20 20 21 20 21 23 25 26 27 27 26 28 28 27 27 27 30 29 30 31 32 33 34 34 33 33 32 33 33 34
17 18 19 19 18 19 19 20 20 21 21 21 21 21 20 18 18 19 20 23 24 24 25 26 26 27 28 28 27 30 29 29 28 30 31 31 32 34 33 33 32 32 33 33
19 18 19 20 21 20 19 18 18 19 19 20 20 20 19 19 20 20 21 23 23 24 23 25 28 28 28 28 28 30 28 27 26 27 30 30 31 31 33 33 32 33 33 33
18 20 20 19 19 18 17 18 19 19 19 20 20 20 19 19 20 21 22 21 23 24 26 27 28 28 28 28 29 29 28 26 27 28 29 30 30 30 32 33 33 33 33 33
18 18 18 18 16 16 18 18 18 19 19 19 19 19 19 19 21 22 21 21 22 24 26 28 28 28 29 28 28 28 27 27 28 28 26 27 28 29 30 32 32 33 32 32
17 16 15 15 15 15 17 18 19 19 19 19 19 20 20 20 20 21 22 21 23 26 25 26 28 28 28 29 29 29 28 27 26 26 25 27 28 29 29 30 31 32 32 32
17 17 16 16 16 16 17 17 17 18 19 19 20 20 20 20 21 20 20 22 24 26 26 27 28 28 27 29 27 26 25 25 25 25 26 27 28 29 29 30 31 32 31 31
16 16 16 17 16 16 16 18 19 20 20 20 21 21 21 21 21 22 22 24 24 25 25 27 27 27 26 26 25 24 24 24 25 25 26 28 28 28 27 28 28 29 30 30
16 16 17 17 18 19 19 20 21 20 20 20 21 22 23 23 22 23 23 23 24 25 25 26 26 26 25 25 24 24 24 24 24 25 24 25 26 26 26 27 27 28 28 28
17 18 19 19 19 20 20 20 20 20 21 21 22 20 21 23 24 23 22 23 23 24 25 26 25 24 24 24 24 23 23 23 23 23 23 23 24 24 25 25 26 26 26 27
17 18 18 17 17 17 18 17 17 17 19 19 18 19 22 21 20 21 21 21 21 23 25 25 24 24 24 24 23 23 23 22 23 23 22 22 22 22 22 23 23 24 25 25

GFSNGP_sfc_30mbdewp_081.txt.gz
Dewpoint
24 26 29 29 29 29 25 23 19 21 23 26 28 31 32 34 33 29 27 27 29 29 30 30 31 32 33 35 37 39 39 39 40 42 43 43 43 43 42 42 41 40 40 39
23 23 23 27 28 29 29 26 26 23 23 28 30 34 34 31 28 26 27 29 30 30 31 31 32 32 33 34 35 38 38 39 40 41 42 42 42 42 41 40 40 39 39 38
22 22 21 19 21 26 29 30 28 24 27 31 32 34 30 25 26 27 29 30 31 31 32 32 32 33 33 34 36 36 38 38 39 40 41 41 41 41 40 39 39 38 38 38
21 20 16 19 24 25 25 28 30 30 29 31 33 29 26 27 28 29 30 31 31 31 32 33 33 33 34 35 35 36 37 38 39 40 40 41 40 40 39 38 38 38 38 38
21 20 19 22 24 26 26 25 30 28 26 27 28 27 26 27 29 30 31 32 32 32 33 33 33 34 34 35 36 36 37 38 38 39 40 40 40 39 38 37 37 37 37 37
23 19 15 21 26 29 28 19 27 27 26 28 31 27 28 29 30 31 31 31 31 32 32 33 34 34 34 34 35 35 37 38 38 39 40 40 39 38 37 37 36 36 36 36
22 21 21 24 26 28 21 18 26 26 27 26 25 26 28 30 30 31 31 31 32 32 31 33 33 33 34 34 34 35 37 37 37 38 39 39 39 37 37 36 36 35 35 35
22 21 15 27 28 23 24 27 27 28 28 27 28 29 29 30 30 30 30 30 31 30 31 32 31 33 31 31 33 35 35 37 37 37 37 38 38 37 36 36 36 34 34 35
23 21 25 28 28 28 28 28 28 28 29 29 28 28 28 27 28 29 28 29 30 29 30 29 30 30 29 30 31 33 34 35 37 37 36 37 37 36 35 36 35 35 35 35
25 26 27 28 29 29 29 28 29 30 29 29 28 28 26 26 27 27 27 27 28 28 28 27 28 28 28 29 31 30 32 33 35 37 37 36 36 36 36 35 35 35 34 34
26 27 27 28 28 29 29 28 28 29 29 28 28 24 25 25 25 25 26 26 27 27 26 26 27 27 27 28 29 28 30 30 32 35 36 36 35 36 36 36 37 35 35 35
24 26 26 26 28 29 27 24 25 26 25 25 26 25 25 23 24 25 25 27 27 26 26 26 26 27 27 28 28 28 27 27 29 32 34 36 36 36 37 37 38 38 37 36
25 27 26 29 29 29 25 24 25 26 25 23 23 23 23 22 23 24 24 24 24 25 26 25 26 26 27 27 27 27 27 27 27 29 30 34 36 35 35 36 39 39 39 38
28 28 26 28 26 28 25 23 24 23 22 21 21 22 22 21 20 19 19 21 23 25 26 26 26 27 27 27 27 27 27 27 28 28 31 32 35 35 35 34 34 35 38 39
23 22 18 26 23 21 20 19 17 16 18 19 20 21 20 17 17 17 19 21 23 24 25 26 26 26 27 28 28 27 27 27 28 28 29 32 33 35 35 34 34 35 34 37
22 22 22 20 17 17 16 16 17 16 18 19 20 20 20 19 19 20 20 21 21 20 23 25 26 26 26 26 28 27 27 27 28 27 27 29 32 32 34 33 33 32 32 34
17 13 14 14 14 14 16 18 19 19 19 19 19 20 21 20 20 19 17 19 21 22 24 25 25 27 26 27 27 27 27 27 28 26 25 27 30 31 32 33 32 32 32 34
15 15 16 16 16 17 17 18 19 19 17 18 19 20 19 19 18 18 18 19 21 22 22 23 25 26 27 28 28 28 27 28 29 27 25 27 29 30 31 32 32 32 32 33
17 17 18 18 19 20 19 18 16 17 17 18 18 17 18 19 19 19 19 20 21 20 19 22 25 27 27 28 28 27 28 28 27 25 24 25 28 29 30 30 32 32 33 32
18 18 19 19 19 19 18 17 17 18 18 18 19 19 18 18 19 19 20 20 21 21 21 23 26 26 26 26 27 28 28 27 26 26 26 27 29 29 28 30 31 32 32 32
17 17 17 18 17 17 17 17 17 17 18 19 19 19 19 19 20 20 20 20 20 22 24 25 26 24 26 27 27 27 27 27 26 26 26 27 25 26 27 28 29 31 32 32
16 16 15 16 16 16 16 17 18 18 18 18 19 19 20 20 20 20 21 21 22 23 24 26 24 24 27 28 29 28 28 27 26 25 25 25 25 25 27 28 29 30 32 32
16 16 16 16 16 17 16 17 18 18 19 19 20 20 20 20 21 20 19 21 23 25 26 26 25 24 27 29 27 26 25 24 24 24 25 25 26 26 27 28 29 31 31 32
16 16 16 17 16 17 17 18 19 19 20 20 20 20 21 21 20 21 22 23 24 24 24 25 25 26 27 26 24 24 23 24 24 24 25 26 26 27 27 27 27 28 30 31
16 16 17 18 17 17 18 17 18 18 19 19 20 21 22 21 21 22 23 23 22 23 23 23 24 28 26 24 23 23 23 23 24 24 23 23 24 25 25 26 26 27 27 28
16 17 18 16 15 16 15 16 16 15 15 15 14 15 17 21 21 20 21 21 21 22 22 23 25 25 24 24 24 23 23 23 23 22 22 22 22 23 23 24 25 25 26 27
15 16 15 13 13 13 14 15 13 13 14 13 14 17 18 18 18 18 19 19 19 20 22 24 24 24 24 24 23 23 22 21 22 22 21 21 21 20 21 21 22 23 24 25

GFSNGP_sfc_30mbdewp_084.txt.gz
Dewpoint
25 26 29 29 29 28 25 23 21 22 23 27 29 31 32 33 30 28 27 28 29 30 30 30 31 31 32 33 33 34 36 39 39 40 42 44 44 45 44 44 44 44 43 42
24 23 26 26 28 29 28 26 24 23 25 28 29 33 33 31 28 27 28 29 30 30 30 30 31 32 33 34 34 35 34 36 39 39 40 42 44 44 44 43 42 42 41 41
24 22 22 20 22 26 29 30 27 23 27 30 31 33 32 28 27 28 29 30 30 30 30 31 31 33 33 35 35 36 36 37 39 39 40 41 42 43 43 43 42 41 41 40
24 22 18 21 23 25 25 29 30 30 30 32 32 31 27 28 28 29 30 30 30 30 31 32 32 33 34 35 35 36 37 38 39 39 39 41 41 42 42 42 42 41 41 40
23 20 20 22 25 26 25 25 30 29 28 31 29 27 27 28 29 30 30 30 30 31 31 32 33 33 33 34 35 35 35 36 37 38 38 40 41 41 42 42 41 41 41 40
23 19 14 22 26 29 29 19 28 28 28 29 29 29 30 29 30 30 31 31 30 31 30 31 32 30 32 33 33 34 34 35 36 38 38 39 41 42 42 41 41 41 40 40
23 22 22 24 25 28 20 19 27 27 27 28 28 27 28 30 30 31 30 30 30 30 29 31 29 30 29 29 30 31 34 35 35 37 38 38 40 41 41 40 39 39 39 38
22 20 14 27 28 23 25 27 28 28 28 28 28 29 29 28 26 26 27 26 26 26 26 28 26 28 26 26 28 30 30 33 35 37 37 38 38 40 39 39 39 38 37 37
23 20 25 28 28 29 28 28 28 29 29 29 28 28 27 23 23 23 24 24 24 24 25 25 24 25 24 24 26 27 27 29 31 31 34 37 37 38 38 37 37 37 36 36
25 26 27 28 29 29 29 29 30 30 29 29 26 25 22 22 22 22 22 22 23 24 23 22 22 24 24 25 26 26 26 26 27 29 32 33 36 36 37 36 36 36 35 35
26 27 27 28 29 29 29 29 28 28 28 26 26 23 22 21 21 21 21 22 24 24 23 22 23 23 24 25 25 25 25 25 26 26 27 31 33 36 36 37 37 36 36 36
22 27 27 27 28 29 29 26 25 24 24 24 25 22 22 20 19 20 19 20 20 19 20 22 24 24 24 25 25 26 26 26 26 26 26 27 30 32 36 38 38 39 39 37
26 26 26 29 30 30 27 24 24 24 25 22 20 21 20 20 20 18 16 16 15 16 18 19 21 23 24 24 26 26 26 26 26 27 27 27 27 29 32 36 38 39 39 39
27 28 27 29 27 29 27 24 24 22 20 19 19 20 21 20 18 16 14 14 16 16 17 18 20 20 21 24 26 26 26 27 27 27 27 27 28 28 31 33 33 34 38 39
28 26 20 26 25 23 21 19 16 15 15 16 19 19 19 18 17 17 17 17 17 17 18 20 20 20 21 24 26 25 25 26 26 27 27 28 28 27 29 32 33 34 35 36
22 21 22 20 19 17 16 15 15 14 16 16 16 16 16 18 18 18 18 19 18 15 17 19 20 21 23 25 25 25 25 26 26 26 27 28 26 26 27 28 32 33 33 33
21 18 18 17 17 14 13 15 16 17 17 16 16 16 17 17 17 17 15 16 17 17 18 20 21 22 24 26 25 26 26 26 26 27 27 28 24 25 27 28 29 31 32 33
16 13 14 15 15 16 16 18 19 20 19 19 20 20 20 20 19 19 19 19 19 19 19 22 23 23 25 26 26 26 26 24 25 26 28 26 24 25 26 28 30 30 32 33
16 16 17 18 19 19 20 20 20 20 20 19 20 19 20 20 20 20 20 20 19 19 19 20 22 24 25 26 26 26 25 26 26 27 27 25 24 24 25 27 29 30 31 32
18 18 19 19 19 19 18 17 17 16 16 17 17 17 18 18 18 19 19 19 20 20 21 22 24 25 26 26 25 26 26 26 25 25 25 25 26 26 28 27 26 27 29 31
18 17 17 17 16 17 17 17 17 16 17 18 18 18 19 19 20 20 20 19 19 20 22 24 24 26 25 24 26 25 25 27 26 26 26 26 26 26 24 24 25 26 28 31
16 16 15 16 17 17 18 18 18 18 18 18 19 19 19 19 19 21 20 20 21 22 24 25 25 26 27 27 26 29 28 26 25 25 25 25 24 24 24 24 26 27 28 30
16 17 17 17 18 18 17 17 16 16 17 18 19 18 19 19 20 19 18 19 22 23 25 24 24 25 25 25 28 28 25 23 23 23 24 25 25 25 26 26 28 29 30 30
16 17 17 18 16 17 15 15 16 16 17 17 17 19 18 17 17 17 19 21 21 22 23 23 24 23 24 28 26 24 23 23 23 24 24 25 25 26 27 28 28 29 29 30
16 16 17 16 14 13 14 14 14 13 13 13 13 13 15 16 18 20 20 20 20 21 21 22 24 25 26 26 24 23 23 22 23 25 24 24 24 25 26 27 27 28 28 29
16 15 15 13 12 12 13 14 13 12 13 12 12 13 16 17 17 18 18 19 20 20 21 21 24 25 26 24 24 24 23 23 23 23 22 22 22 23 23 24 25 26 27 28
14 15 12 11 11 12 13 13 12 12 12 12 14 15 15 16 16 16 17 17 18 19 21 23 25 25 25 24 23 23 22 22 21 22 21 21 21 21 21 22 23 24 25 26

GFSNGP_sfc_30mbdewp_087.txt.gz
Dewpoint
25 26 29 28 27 25 25 21 19 21 23 27 29 30 32 30 29 28 29 29 30 30 30 30 31 31 32 33 34 34 33 34 37 39 40 41 44 45 45 45 45 46 46 45
25 24 26 24 25 26 27 26 22 23 25 28 29 31 32 30 29 29 29 30 30 30 30 30 30 31 33 34 34 35 35 35 37 38 39 41 41 43 45 44 44 44 43 43
25 23 22 21 21 25 28 29 28 22 27 28 30 32 32 30 29 29 30 30 30 30 30 31 31 32 33 34 35 35 35 36 37 38 39 40 41 41 43 44 44 43 43 42
26 24 20 22 24 26 24 28 30 30 30 31 30 33 30 29 29 30 30 30 29 29 30 30 31 33 32 33 34 35 35 35 36 37 39 39 40 41 42 43 44 44 43 42
25 18 19 22 24 25 25 24 29 29 29 32 31 30 29 29 30 30 30 29 29 30 30 29 31 31 29 31 32 32 33 34 35 36 37 39 39 41 42 43 43 44 43 42
22 20 13 22 26 29 28 20 27 29 29 30 30 29 29 30 30 29 29 29 29 29 29 27 29 28 28 28 28 30 30 32 34 35 36 37 39 39 40 42 42 43 43 43
21 20 21 24 26 28 20 21 28 29 29 30 30 28 29 29 29 29 27 27 25 25 23 24 28 24 25 25 25 27 29 29 31 33 35 36 37 38 40 41 42 41 42 41
20 18 14 27 27 24 25 26 28 28 29 28 28 29 29 28 25 22 22 22 21 22 23 24 25 23 23 22 23 24 25 25 26 28 30 31 35 37 38 40 40 40 40 40
21 20 25 28 29 29 28 28 28 29 30 29 29 28 27 24 20 19 20 20 19 20 20 21 21 21 21 21 22 23 23 23 23 25 26 29 31 33 36 37 37 38 39 38
24 24 26 27 28 29 29 29 30 30 30 29 27 25 22 19 18 18 17 18 19 20 19 19 17 18 19 20 21 22 22 23 23 24 24 25 26 31 33 36 36 36 37 36
25 25 27 28 28 29 29 29 29 29 27 25 24 21 20 18 17 16 17 18 19 18 19 18 17 18 20 20 21 21 22 22 22 23 24 25 25 27 29 31 36 36 36 37
17 26 26 28 28 29 29 28 26 25 24 23 23 20 18 17 16 16 17 15 15 16 15 15 16 17 19 21 21 22 22 23 24 25 26 26 27 27 28 29 32 36 38 39
26 27 27 28 29 30 29 27 25 24 23 21 18 17 16 16 17 17 18 15 13 12 13 13 14 16 17 20 21 22 23 24 26 26 26 26 26 26 26 27 29 30 35 38
27 28 28 29 27 29 28 26 25 23 20 17 15 16 17 17 16 15 14 13 14 14 14 14 13 14 17 19 20 22 24 25 25 25 26 26 27 26 26 26 27 28 31 35
27 28 22 26 27 27 25 20 17 14 13 12 14 15 15 14 13 13 13 15 15 16 16 16 15 16 18 19 21 22 24 25 25 25 25 26 26 27 26 24 26 28 29 31
27 23 21 20 20 19 17 15 13 12 12 13 13 13 13 13 14 15 16 16 15 15 15 16 16 17 20 21 22 24 24 25 25 25 25 26 26 27 26 23 25 27 27 29
22 21 21 20 20 16 15 12 13 15 15 15 15 14 15 15 16 17 17 17 18 18 18 18 19 20 22 23 23 25 25 25 25 25 25 26 26 27 26 23 24 25 26 27
19 17 18 18 17 16 16 17 18 20 21 23 22 21 20 20 20 21 21 21 21 20 20 21 21 22 23 24 25 26 25 25 24 25 25 25 25 27 23 24 24 25 27 26
16 17 17 17 19 19 20 21 21 22 22 22 21 21 21 21 21 20 20 20 20 20 19 20 22 23 24 25 25 27 25 26 26 26 25 25 25 25 24 23 24 26 28 26
18 19 19 18 18 18 17 16 16 16 16 16 17 17 18 18 19 20 21 21 21 20 22 23 25 26 25 26 30 30 28 27 26 25 25 24 25 25 25 25 26 28 25 24
19 18 17 17 17 16 17 18 18 17 17 17 16 16 16 16 16 18 19 19 18 20 24 25 25 26 28 29 29 28 28 26 26 27 27 26 26 26 25 24 24 24 23 24
19 16 15 17 18 17 18 17 16 14 15 16 16 16 16 16 16 18 18 19 20 21 23 25 25 24 27 27 28 27 27 27 28 26 25 24 24 24 24 24 24 24 24 26
17 18 19 18 18 17 17 16 15 15 16 16 16 16 16 16 17 17 17 19 21 22 23 23 22 23 24 25 25 25 28 26 25 24 24 24 24 24 25 26 26 27 28 29
17 18 18 19 17 16 15 15 16 16 15 15 15 16 15 16 17 17 19 19 19 20 21 21 22 23 24 26 28 27 26 25 24 24 24 24 25 25 25 26 27 29 29 30
17 17 18 16 14 12 13 14 14 13 13 13 13 14 16 17 18 18 18 18 18 19 19 21 22 23 25 26 26 25 25 25 24 24 24 23 23 24 24 25 26 27 28 29
16 15 14 13 12 12 13 14 13 12 13 12 12 14 16 16 16 16 17 17 17 18 20 21 23 25 25 25 25 24 24 23 23 22 23 23 23 22 23 23 24 25 26 27
16 15 13 11 11 12 13 14 13 12 13 12 13 16 15 15 15 16 16 17 18 19 20 21 24 25 24 24 23 23 22 21 21 21 21 21 21 21 21 22 23 24 25 25

GFSNGP_sfc_30mbdewp_090.txt.gz
Dewpoint
25 25 28 27 26 26 25 22 22 26 26 29 31 31 30 29 29 29 29 30 30 30 30 30 31 32 34 34 35 35 36 36 37 39 39 40 41 42 45 45 45 46 47 47
26 23 25 23 24 27 28 27 23 25 26 29 31 32 30 29 29 29 30 30 30 30 31 31 31 32 34 34 35 35 35 36 38 39 39 40 40 41 42 44 45 44 44 45
27 25 22 22 21 24 27 29 29 27 28 29 31 32 31 29 30 30 30 30 30 30 30 31 31 33 33 33 34 35 35 35 36 37 38 39 40 40 42 42 44 44 43 43
26 24 20 22 25 26 25 27 30 30 31 32 32 31 29 30 30 30 30 29 29 29 30 29 30 32 30 31 34 33 34 34 35 36 36 38 39 40 41 42 43 43 44 43
23 22 20 22 25 26 26 26 29 29 30 32 30 30 29 29 30 30 30 29 30 30 29 29 28 29 28 30 30 29 31 31 33 35 35 36 36 37 39 40 41 42 43 43
25 21 15 23 27 28 27 23 29 29 30 31 30 30 28 30 30 30 29 29 29 28 28 27 27 26 25 27 27 27 29 30 30 32 34 35 36 36 37 38 40 41 42 43
22 21 21 26 27 28 19 22 29 29 29 30 30 29 29 30 29 28 25 25 24 24 23 23 26 25 24 25 24 25 25 26 27 28 29 31 33 34 36 37 38 40 41 41
19 18 15 27 27 23 26 27 28 29 29 29 29 29 29 28 25 21 21 21 21 21 22 23 24 24 23 23 23 23 23 24 24 25 26 26 28 31 33 34 36 39 39 40
21 22 26 28 29 29 29 28 29 29 30 30 29 28 27 24 21 19 19 18 19 19 20 20 21 20 20 20 21 21 22 23 23 24 24 25 25 26 30 32 31 33 36 37
23 24 26 27 28 29 29 29 30 30 30 29 28 25 23 21 19 18 18 18 19 20 20 19 19 19 18 18 20 21 21 22 22 23 23 24 25 26 28 29 30 30 32 34
25 25 26 27 28 29 29 30 30 29 27 26 24 23 21 19 19 17 17 18 18 17 17 19 18 16 17 18 20 20 21 22 22 23 24 25 26 26 27 28 29 28 28 33
22 26 26 28 29 29 29 29 28 26 25 24 23 22 21 18 17 17 17 18 18 17 16 15 15 15 16 17 18 20 22 23 24 25 26 26 27 27 28 27 27 28 28 30
26 27 28 29 29 30 29 28 26 25 24 23 21 17 16 16 17 18 18 17 16 15 15 14 14 15 15 15 17 19 21 23 24 26 26 26 26 27 26 27 27 26 27 27
27 28 28 29 28 29 28 26 26 24 22 19 17 16 16 16 17 17 16 15 14 14 15 16 16 16 17 16 16 20 21 24 25 25 25 24 24 24 24 25 25 24 25 28
27 27 26 28 29 28 27 23 19 16 14 13 13 14 15 15 15 15 15 15 16 16 16 16 16 16 16 17 19 20 21 23 25 25 24 24 24 26 27 26 23 23 23 24
28 24 23 23 24 23 20 17 14 13 13 15 15 15 16 15 15 15 16 17 17 17 18 19 18 19 19 20 20 22 23 25 25 25 24 24 24 25 25 27 26 23 23 23
24 21 20 19 18 17 16 15 14 16 18 19 20 22 21 20 20 20 19 20 21 21 21 21 21 21 22 23 22 23 24 25 26 25 24 24 24 24 25 26 27 22 23 24
23 23 22 21 19 16 16 18 20 20 19 21 21 21 21 20 20 21 21 21 21 21 21 21 23 26 26 24 25 27 27 29 28 27 27 26 25 26 26 27 25 21 23 25
16 16 17 18 19 18 18 18 18 19 18 18 18 18 18 18 18 18 19 19 20 19 20 25 26 25 25 26 28 29 28 29 28 28 28 27 25 25 24 24 24 23 24 25
18 19 18 18 17 16 15 17 18 17 17 17 16 16 16 16 16 16 17 18 18 19 20 22 23 24 25 26 26 29 29 28 27 26 26 26 26 26 25 25 26 25 26 27
19 18 17 16 15 17 18 18 17 16 15 15 16 16 16 16 16 16 16 17 17 19 20 20 23 23 23 25 27 27 27 27 27 26 26 27 26 25 24 24 24 23 23 22
17 14 14 17 17 17 17 17 16 15 15 16 17 16 16 16 16 16 17 17 18 20 21 23 23 23 25 25 27 26 25 24 25 27 25 24 24 23 23 23 23 25 25 25
17 17 17 17 16 15 17 16 16 16 16 16 15 15 15 15 16 16 16 18 20 20 22 22 22 24 26 27 26 26 26 26 25 25 25 24 24 24 24 24 24 25 25 26
17 18 18 17 15 16 14 15 15 15 15 14 15 15 14 15 17 17 18 19 18 19 20 19 21 23 24 25 25 26 25 25 25 24 24 24 24 23 23 23 24 25 26 27
17 16 16 14 14 13 13 14 14 13 13 13 13 14 14 17 16 16 18 17 18 19 20 20 21 22 25 25 25 25 24 24 24 24 22 22 22 22 22 22 23 23 25 25
16 16 15 13 12 13 13 13 14 13 13 13 13 13 16 16 16 16 16 17 17 18 18 20 21 23 26 25 24 23 23 22 21 21 21 20 21 20 20 21 21 22 23 24
16 16 13 12 12 12 13 14 14 12 13 13 13 15 16 14 15 15 15 16 18 16 17 19 21 22 26 25 23 23 22 21 21 21 19 19 19 18 18 19 20 22 23 23

GFSNGP_sfc_30mbdewp_093.txt.gz
Dewpoint
26 25 27 25 25 27 26 25 23 27 28 30 31 30 29 29 29 29 30 30 30 30 30 31 31 33 34 34 35 35 35 36 37 39 39 40 40 40 41 42 44 45 45 46
27 24 24 22 23 27 28 28 27 27 28 31 32 30 28 29 29 30 30 30 30 30 30 31 31 32 33 33 34 35 35 35 36 37 37 38 39 40 41 41 42 43 44 44
22 27 24 22 21 24 28 29 29 26 29 32 31 31 29 29 30 30 30 30 29 29 30 30 30 33 31 31 33 34 34 35 35 35 35 36 38 38 39 40 41 41 42 43
20 24 19 23 25 26 25 29 30 30 32 32 32 30 29 30 30 30 30 29 29 29 30 29 29 31 29 30 32 29 32 31 31 32 34 35 36 37 37 38 39 40 41 43
20 20 21 22 25 26 25 26 29 29 32 31 30 29 29 30 30 30 29 29 30 30 29 29 28 29 26 26 28 27 30 29 29 31 31 32 33 34 36 37 38 39 40 41
24 21 13 22 26 28 27 20 29 30 31 30 30 29 29 30 30 29 29 28 28 27 26 25 24 26 25 24 25 24 27 26 27 28 28 30 30 31 33 35 36 37 39 41
22 21 21 26 27 28 17 18 29 29 30 31 30 30 31 31 30 30 27 25 25 23 23 23 24 25 24 24 23 24 26 25 25 26 25 26 29 28 31 30 34 34 34 37
20 18 9 26 27 21 24 27 29 29 29 29 29 29 29 28 27 24 22 22 22 21 21 23 24 24 24 23 23 23 23 23 23 24 24 25 25 27 26 29 30 30 30 32
20 18 24 28 28 29 28 28 28 29 30 30 29 28 28 26 23 20 19 18 19 19 20 20 20 20 19 19 19 20 21 21 22 22 23 24 24 25 25 28 28 29 29 29
21 21 25 26 29 29 29 29 30 30 30 29 28 26 23 22 20 19 18 18 19 19 18 17 18 20 19 17 17 19 19 20 21 22 23 24 24 26 26 27 27 28 28 26
24 25 26 27 28 29 29 30 30 29 28 26 25 24 21 20 19 18 17 18 18 18 18 17 17 16 16 16 16 17 18 19 21 22 23 24 26 26 27 28 28 28 26 26
21 24 24 27 29 30 29 29 29 27 25 25 23 22 21 18 17 17 17 19 18 17 17 16 16 16 16 17 17 17 17 19 22 24 25 26 26 26 27 28 28 29 28 25
24 28 28 28 30 30 29 29 26 25 24 23 21 18 16 15 16 19 17 17 16 16 16 15 16 16 17 18 18 18 17 19 22 24 25 26 25 24 23 24 25 25 27 25
28 28 27 28 27 29 28 26 27 24 20 17 16 16 15 15 16 16 16 16 16 16 16 17 17 17 17 18 18 18 18 20 23 25 25 25 24 24 24 24 24 25 25 25
28 27 28 29 29 28 26 24 18 14 14 13 15 16 17 17 17 17 17 18 18 18 18 19 20 20 21 21 21 21 21 21 23 24 25 24 25 24 24 24 26 26 26 24
26 26 27 27 28 25 20 17 14 13 16 17 18 19 20 20 19 20 20 20 20 21 21 21 21 21 22 26 26 24 24 24 24 24 26 29 27 24 24 25 24 26 25 25
25 24 22 21 21 19 16 15 17 19 18 17 19 20 20 20 19 20 20 20 20 20 20 21 22 24 26 25 24 24 24 25 26 27 29 28 27 26 26 25 25 25 26 23
25 24 22 20 19 16 17 19 18 17 17 19 19 18 17 17 17 17 17 18 18 19 20 20 22 24 24 24 24 25 27 27 26 26 28 28 27 27 26 26 25 26 25 24
22 21 19 19 18 18 17 17 17 17 17 17 16 16 16 16 16 16 17 17 17 17 18 20 22 22 22 23 23 24 27 26 25 28 28 26 26 26 26 25 24 24 24 24
18 19 18 18 17 15 15 17 17 17 16 15 16 16 15 16 16 16 16 16 17 17 19 21 21 22 22 22 23 24 25 25 24 24 25 26 26 26 26 27 26 24 25 26
18 18 17 15 16 18 18 17 16 14 15 16 16 15 15 16 15 16 16 16 17 18 20 20 22 21 22 24 27 27 25 25 24 24 24 25 26 25 24 24 23 23 23 23
16 15 15 16 16 17 16 16 15 15 15 16 15 15 15 14 15 16 17 17 18 20 20 22 21 22 24 26 26 25 25 25 25 25 25 24 24 23 22 23 23 23 24 24
15 15 17 16 15 14 17 16 15 15 15 15 14 14 14 14 15 16 15 17 19 19 21 21 21 22 23 26 24 24 24 24 24 24 24 23 23 23 23 22 22 23 23 24
17 17 16 17 15 16 13 14 15 15 16 14 14 15 14 13 16 16 16 18 18 19 19 20 21 21 22 23 24 24 23 22 22 22 22 21 21 22 21 21 21 22 22 23
17 17 17 15 15 14 13 14 14 14 13 13 14 13 14 16 16 15 16 16 17 18 18 17 20 21 22 23 24 23 22 22 22 21 20 20 19 20 19 20 20 20 22 22
15 15 17 16 14 13 13 13 14 14 14 13 13 13 14 17 15 15 15 16 16 18 16 16 17 20 21 22 24 22 22 21 21 20 19 18 18 18 18 18 18 19 20 22
16 17 15 13 13 12 13 13 15 12 13 13 13 14 16 14 14 14 14 14 17 17 15 14 16 18 20 23 22 21 21 21 20 20 19 18 17 17 16 17 17 19 21 21

GFSNGP_sfc_30mbdewp_096.txt.gz
Dewpoint
25 26 25 26 23 26 26 26 23 27 27 30 31 30 30 30 29 29 30 30 30 30 31 31 31 33 32 32 34 35 35 36 36 36 37 37 38 39 40 41 41 42 43 44
27 25 24 24 22 25 28 28 27 28 28 31 32 30 28 29 29 30 30 30 30 30 30 30 30 32 30 30 33 32 33 33 33 33 34 35 36 38 38 38 39 40 40 41
17 25 24 22 21 24 27 29 29 25 29 32 30 28 28 29 30 30 30 30 29 29 30 29 29 32 29 29 32 29 31 31 30 30 31 32 34 34 35 37 37 38 39 40
23 22 13 22 24 26 25 29 30 31 31 31 31 30 30 30 30 30 30 29 29 29 29 29 29 30 28 27 27 27 26 29 28 28 29 29 31 31 32 34 35 37 37 39
21 20 19 21 24 25 26 25 29 30 32 30 29 29 29 30 30 30 30 29 30 30 29 28 26 28 26 25 25 25 24 27 26 26 26 27 27 29 30 31 33 34 37 38
23 20 8 19 26 28 26 18 28 30 31 30 30 29 30 30 30 30 29 29 27 26 24 24 23 26 25 24 24 23 23 24 26 26 25 25 25 26 29 29 29 32 35 34
22 22 21 24 27 27 16 9 29 30 31 31 30 31 31 30 30 30 27 23 24 23 22 22 23 25 24 24 24 25 25 25 25 25 25 24 25 27 26 27 27 29 29 30
20 19 10 27 27 21 19 28 29 29 29 30 30 29 30 29 28 26 22 21 21 20 20 21 21 21 20 20 21 20 19 20 22 23 23 23 23 24 24 25 26 27 27 28
19 16 21 27 24 27 27 26 28 29 29 29 29 29 29 28 26 21 19 19 18 19 19 20 19 19 18 19 19 17 17 18 18 18 20 22 22 23 24 25 26 26 27 28
21 18 23 26 28 29 29 28 29 30 30 30 29 28 25 23 21 20 18 18 18 19 18 18 18 18 18 18 16 16 16 17 18 19 19 22 24 24 25 25 26 26 27 25
24 24 25 26 28 29 29 30 30 30 29 28 26 24 22 20 18 18 17 17 18 19 18 18 18 17 16 16 16 16 16 17 17 18 19 21 22 25 26 27 28 27 28 28
21 23 22 23 28 29 29 29 29 28 26 25 23 22 21 18 17 16 17 19 17 17 17 17 17 16 17 18 18 18 18 18 18 19 20 22 24 25 28 27 27 27 27 27
25 25 27 28 29 30 29 29 29 26 25 23 21 17 15 15 16 19 16 16 16 16 16 17 17 18 19 19 20 20 19 19 20 21 22 23 25 25 24 24 25 26 26 26
27 28 27 28 28 30 29 27 27 23 20 17 16 15 15 16 17 17 17 18 18 19 19 19 20 20 21 21 21 22 23 23 23 22 23 24 25 25 24 23 23 24 25 26
27 28 27 29 29 27 26 24 19 14 13 15 17 18 18 17 17 18 20 20 20 20 20 21 21 21 22 23 25 26 24 23 24 24 25 25 26 27 25 25 23 23 25 25
27 28 29 28 27 26 23 17 13 13 16 17 17 18 19 19 19 20 19 19 18 18 19 20 21 21 23 25 24 23 23 23 24 26 26 27 27 27 27 27 26 25 24 24
25 26 25 27 26 22 17 15 14 17 17 16 18 20 18 18 18 16 16 17 18 18 19 20 20 21 24 22 22 23 22 23 24 25 25 26 27 27 27 26 25 25 25 24
26 26 24 24 22 17 17 18 17 16 16 19 18 17 16 16 15 15 16 17 17 17 18 19 20 22 21 21 22 23 23 24 24 24 23 25 26 27 26 26 26 25 25 26
23 23 21 21 18 18 18 17 17 17 18 17 15 15 16 15 16 16 16 16 16 16 17 19 21 21 21 21 22 23 24 24 23 23 23 23 24 25 25 25 25 25 25 25
19 19 18 18 18 16 15 16 17 17 15 15 16 15 14 15 15 15 16 15 16 17 19 21 20 21 21 21 23 27 26 23 23 23 23 24 25 25 26 25 25 24 23 23
18 17 16 15 15 16 17 16 15 13 15 16 15 14 14 15 15 15 15 15 16 17 19 20 21 21 21 24 27 23 23 22 23 23 23 23 23 23 23 22 23 23 23 23
18 16 15 16 16 16 16 16 15 15 15 16 14 14 15 14 14 15 16 16 17 19 19 22 21 22 24 25 24 23 23 22 22 22 21 22 22 22 22 22 22 21 21 22
17 15 16 16 15 15 16 16 15 15 15 14 14 14 14 14 15 15 15 16 18 19 20 19 20 21 22 24 22 23 22 22 21 20 20 21 20 20 20 21 21 21 20 21
15 16 16 17 15 15 14 16 15 15 15 15 14 15 14 14 16 16 16 17 17 18 19 19 18 20 22 21 21 22 22 21 21 20 20 19 19 18 18 18 18 19 19 19
17 17 16 14 13 14 15 15 14 14 14 13 14 14 14 16 16 15 16 15 17 17 18 16 17 19 19 20 20 22 21 20 21 21 19 19 17 17 17 17 17 17 19 19
17 16 16 15 14 16 15 14 13 14 14 13 13 13 14 16 15 15 14 15 15 16 17 15 15 16 18 18 21 20 20 20 19 20 19 18 17 16 16 16 16 17 18 19
16 17 16 16 15 14 14 13 14 14 14 13 13 14 16 14 13 13 13 13 14 16 15 13 14 14 16 17 18 19 19 18 18 19 18 17 17 16 16 16 17 18 19 20

GFSNGP_sfc_30mbdewp_099.txt.gz
Dewpoint
26 26 26 25 26 22 26 26 23 25 27 28 30 31 31 31 30 29 30 30 30 30 30 30 31 32 29 31 33 32 34 32 31 32 33 33 34 36 37 38 38 39 39 40
25 27 26 24 24 23 27 28 27 28 27 30 32 30 29 29 29 29 30 30 30 30 29 29 29 31 29 29 31 29 31 30 29 29 30 30 32 32 32 34 35 37 37 38
17 23 24 21 23 23 27 29 28 26 27 31 31 29 28 29 29 30 30 30 29 29 29 29 29 30 28 27 27 26 26 29 28 28 28 28 29 30 30 31 32 33 35 36
23 20 8 19 23 25 25 27 30 30 31 31 31 30 30 30 30 30 30 29 29 29 29 28 28 28 27 26 24 24 23 23 25 26 25 25 25 26 27 30 30 31 32 35
20 21 17 21 23 24 25 22 29 30 31 30 30 29 29 30 31 31 30 29 29 29 27 26 23 25 25 24 24 24 23 23 24 25 25 25 24 25 26 29 28 28 31 32
23 18 4 16 26 28 25 16 27 30 31 30 29 29 30 30 30 30 29 29 26 25 23 22 22 24 24 23 24 23 23 23 24 24 24 24 24 24 25 25 26 28 29 29
23 21 20 23 27 27 14 7 28 30 31 31 29 30 30 30 30 30 27 22 24 22 21 22 22 22 20 20 18 21 20 19 20 22 22 23 23 24 24 24 25 26 26 27
20 19 10 27 27 20 19 28 29 30 30 31 31 30 30 30 28 25 21 20 19 18 19 20 20 18 17 17 19 20 18 17 17 17 18 19 21 22 22 23 24 25 26 26
19 17 20 26 25 26 27 27 29 29 29 29 29 29 29 28 25 20 19 18 18 18 19 19 18 18 16 17 17 16 16 16 16 17 17 18 19 20 22 23 24 25 26 26
21 20 20 24 27 28 28 27 28 29 30 30 29 29 28 24 21 19 18 17 18 18 17 17 17 17 17 17 17 17 17 17 17 17 18 19 19 20 22 23 24 25 26 26
24 23 24 25 26 27 29 29 30 30 30 29 28 25 23 21 18 17 16 18 18 17 17 17 18 17 17 18 19 19 19 18 18 19 19 19 20 21 23 25 26 27 27 27
22 23 22 21 24 27 29 29 30 28 27 25 25 23 21 18 16 16 18 17 16 17 17 17 18 19 19 20 20 20 21 21 21 22 22 22 22 22 25 27 29 28 27 27
25 26 25 26 29 29 29 30 29 27 26 23 21 18 15 14 16 18 16 17 17 18 19 19 20 20 20 21 22 22 23 23 23 23 22 22 22 23 24 25 26 26 26 26
28 27 27 28 27 30 30 29 28 24 23 20 16 15 15 15 16 16 17 19 20 20 20 19 20 20 21 22 23 24 24 23 23 23 23 24 24 25 25 25 24 24 24 25
28 28 27 28 29 29 27 24 22 18 14 15 16 17 16 14 16 18 20 19 18 18 18 19 19 20 21 22 24 24 22 22 22 23 25 25 25 25 25 25 24 25 26 26
27 28 28 28 28 26 25 21 18 13 14 16 17 16 18 18 19 19 17 17 16 16 17 19 20 20 21 23 24 21 20 20 21 22 24 24 23 23 24 24 26 26 25 25
26 26 27 27 27 25 23 18 14 14 17 16 16 19 18 17 17 15 15 16 17 17 17 18 19 20 22 23 20 21 22 23 23 23 23 23 23 23 24 24 25 23 23 25
27 27 28 28 27 23 18 16 16 18 16 17 18 17 16 15 14 14 15 16 16 16 17 17 19 22 22 20 21 22 23 23 23 24 22 21 22 24 24 24 24 23 23 24
24 24 24 26 24 19 18 18 18 17 18 18 16 15 16 15 15 15 16 16 15 15 16 18 21 21 20 21 22 22 23 24 22 20 21 21 22 23 23 24 25 25 25 25
21 21 21 20 19 18 17 17 17 17 17 16 16 15 14 14 15 15 15 15 16 16 18 19 21 21 21 21 22 25 23 22 20 20 21 21 21 21 23 21 22 23 22 22
18 18 18 17 16 16 15 16 16 14 14 15 15 14 13 14 14 15 15 15 15 17 19 19 21 21 20 22 26 23 22 21 20 19 19 20 20 20 20 21 22 22 21 21
17 16 15 15 15 15 16 16 15 14 14 15 15 14 14 14 14 15 16 16 17 19 19 21 21 20 21 24 24 21 21 20 20 20 19 19 19 18 18 18 19 20 20 20
17 16 16 16 15 14 16 16 15 15 15 15 14 14 14 14 14 15 14 16 18 18 20 20 19 19 20 24 20 20 20 20 20 19 19 20 19 18 17 17 17 18 17 18
17 16 15 16 16 15 13 15 16 16 16 16 15 15 15 13 14 16 17 17 17 18 18 19 18 18 19 19 18 19 19 20 19 19 20 18 19 17 16 16 16 16 16 17
17 16 16 15 13 12 13 15 15 15 15 15 15 15 15 15 16 16 16 15 16 17 17 17 16 17 16 16 17 18 19 19 19 19 18 19 17 17 16 16 16 16 18 17
18 16 16 15 13 13 15 15 13 14 14 13 14 14 14 15 16 15 14 15 15 15 15 15 14 15 15 15 17 17 18 18 17 17 18 17 17 17 17 17 17 17 17 17
18 18 16 16 15 15 16 15 14 13 15 14 13 13 14 16 14 14 13 13 14 14 15 13 13 13 15 15 15 15 16 16 17 17 17 16 16 17 17 17 17 17 18 18

GFSNGP_sfc_30mbdewp_102.txt.gz
Dewpoint
27 26 26 25 25 25 24 25 23 22 26 27 30 33 34 35 32 30 30 30 30 30 30 30 31 30 28 29 29 29 30 29 27 28 28 28 28 30 31 32 32 34 35 36
25 26 27 25 25 25 23 27 26 27 27 30 31 31 31 30 29 29 29 30 30 30 29 28 29 30 28 26 26 26 24 26 27 26 26 26 26 27 27 28 30 31 30 32
20 22 22 17 21 24 24 28 27 25 26 31 31 30 29 29 29 29 30 30 29 29 29 29 28 29 26 26 25 24 23 23 25 26 25 25 26 25 25 26 29 28 29 30
23 21 4 13 23 24 24 25 29 29 30 31 31 31 30 29 29 30 31 30 29 29 28 27 27 27 26 25 24 23 22 21 22 23 23 24 24 23 23 25 27 27 27 29
20 20 16 16 22 23 22 20 26 29 30 31 30 30 30 30 31 30 30 30 29 29 27 24 22 24 24 22 23 22 21 20 20 22 22 22 21 22 23 25 25 25 27 28
22 17 3 9 25 28 25 15 21 30 31 30 29 29 30 30 31 30 30 29 26 25 23 22 22 23 21 20 21 21 21 20 21 22 22 21 21 21 23 24 24 25 25 26
24 22 20 22 27 27 16 5 27 30 31 30 29 30 30 30 30 30 28 23 24 22 21 21 21 20 18 19 19 21 21 19 19 19 18 19 19 20 21 21 22 22 24 25
21 21 12 26 27 20 18 25 28 30 30 31 31 31 30 30 30 27 22 20 19 19 19 20 20 18 16 16 18 18 17 17 17 17 18 18 18 20 20 21 22 22 23 24
19 16 20 25 26 25 25 26 27 28 29 31 31 30 30 29 25 21 19 18 18 18 18 18 18 17 16 17 17 17 18 18 18 18 18 19 19 19 19 20 21 22 24 25
21 20 21 22 24 27 28 27 27 29 29 30 29 29 29 26 22 20 17 17 18 17 15 16 17 17 17 18 19 19 19 19 19 19 20 20 20 20 20 21 22 23 25 26
23 23 23 23 24 25 26 29 29 29 30 30 29 29 26 23 19 17 16 18 17 16 16 17 18 18 19 20 20 20 20 21 21 21 22 22 22 22 22 23 24 26 27 28
21 22 23 23 23 26 26 27 29 30 29 28 28 25 22 19 16 16 17 16 16 17 17 18 19 20 20 21 21 21 22 22 22 22 22 22 22 23 24 25 26 27 27 27
26 27 26 26 26 28 28 28 30 29 27 25 24 22 19 14 17 20 16 16 17 19 19 19 19 19 21 21 22 23 23 22 22 22 22 22 22 22 22 23 25 25 26 26
29 28 27 27 27 28 29 30 31 27 25 23 19 16 15 15 18 15 16 19 20 19 18 18 19 19 20 21 22 23 23 21 21 22 22 22 22 24 22 21 22 22 24 25
27 28 28 28 29 29 29 27 26 24 20 17 16 15 16 14 13 16 19 19 17 17 16 17 18 19 20 21 22 23 21 20 20 21 21 22 23 23 21 20 21 23 25 26
26 26 27 28 28 28 27 25 24 19 16 15 16 16 16 17 17 18 17 16 15 14 16 17 18 19 20 21 23 20 19 21 22 23 23 21 22 21 20 22 22 22 24 23
24 25 26 27 27 27 26 23 21 17 15 16 16 17 17 17 17 16 15 15 16 16 16 17 18 19 20 24 20 20 21 21 22 22 21 21 22 20 20 22 23 23 24 24
27 27 27 27 27 26 24 21 17 16 16 17 17 17 16 15 13 14 15 16 16 15 16 17 18 20 22 20 20 21 21 22 22 22 21 21 21 23 22 21 22 23 24 25
26 26 26 27 27 25 22 18 17 18 18 18 16 15 15 15 15 15 15 15 14 15 15 17 19 22 21 21 21 22 23 22 22 21 20 20 21 21 19 20 22 21 22 22
22 22 23 24 23 21 19 18 18 16 17 17 16 15 14 15 15 14 15 14 15 15 17 18 21 21 21 20 22 23 24 21 20 19 19 20 19 19 19 18 17 18 19 19
20 20 20 21 20 18 18 17 15 14 15 15 14 13 14 14 14 14 14 14 15 16 18 20 19 21 20 21 24 24 20 20 21 20 19 19 19 18 18 17 17 17 17 18
18 18 18 17 16 16 16 16 15 14 14 14 15 15 14 14 14 14 15 15 16 18 19 19 21 20 21 20 23 20 19 19 20 19 19 18 18 18 18 17 16 16 17 17
18 16 16 15 14 14 15 15 14 13 13 14 15 15 14 14 14 14 12 16 17 18 19 20 20 20 20 21 18 18 18 18 18 18 18 18 19 18 18 16 16 17 16 16
18 17 16 15 15 14 13 14 14 14 15 15 16 16 14 14 14 15 16 18 17 17 18 18 19 19 19 16 15 16 16 17 17 17 18 17 17 18 17 16 16 16 16 16
19 18 16 15 15 14 13 13 14 15 15 16 16 15 15 16 14 15 16 16 16 17 17 17 17 17 16 15 14 15 16 16 16 19 17 16 17 16 16 17 17 17 18 17
20 18 17 16 15 15 14 14 13 15 15 14 15 15 15 15 15 17 17 15 16 15 15 15 15 15 14 14 15 15 14 15 15 15 16 16 16 15 16 16 17 17 17 17
20 20 17 16 16 15 15 14 13 13 15 14 13 14 14 14 15 16 15 14 13 14 14 14 13 13 14 14 14 13 14 14 15 16 16 15 15 15 16 16 17 18 19 20

GFSNGP_sfc_30mbdewp_105.txt.gz
Dewpoint
28 28 27 26 26 25 25 24 23 22 25 26 29 33 35 36 36 32 30 30 30 30 30 29 31 29 27 27 27 27 28 27 27 27 26 26 26 26 26 28 29 28 28 28
25 25 26 25 26 26 26 25 25 26 26 29 30 32 33 34 32 29 29 30 30 30 29 28 28 29 27 25 25 24 23 24 25 25 25 25 25 25 25 25 28 27 27 28
20 22 22 14 18 23 25 25 25 23 26 30 31 30 31 31 30 29 30 30 30 29 29 28 27 29 26 25 24 23 22 22 22 23 23 24 24 23 22 22 25 25 25 26
22 20 -4 9 23 24 24 25 28 28 28 30 31 32 31 30 30 29 30 31 30 29 29 27 26 26 26 25 23 22 21 18 19 19 19 20 20 20 20 22 23 24 25 26
19 19 14 10 22 22 21 20 23 25 29 31 31 30 30 30 30 30 31 31 30 29 27 24 22 24 23 21 21 20 20 19 19 20 20 20 20 20 21 22 23 23 24 25
22 17 4 3 23 28 24 14 16 27 28 30 30 29 29 31 31 31 31 30 29 26 24 21 22 21 18 18 18 18 20 20 20 20 20 20 20 20 21 22 22 23 23 24
25 22 21 22 26 26 14 5 23 30 30 30 30 30 30 31 30 30 29 26 24 22 20 21 20 19 16 17 17 19 20 19 19 19 19 19 20 20 21 22 22 22 22 23
23 22 13 24 27 19 19 21 25 29 30 31 31 31 30 30 30 28 24 22 19 19 19 20 19 18 16 16 18 18 18 18 18 19 19 19 20 20 20 20 20 21 22 23
18 16 20 25 25 25 24 25 26 28 29 31 31 31 31 30 29 25 21 19 18 18 18 18 18 17 16 16 18 19 19 19 19 20 20 21 21 20 20 20 21 21 22 23
20 20 20 21 23 24 25 25 27 28 28 30 30 31 30 30 26 21 18 17 18 16 15 15 17 17 18 19 20 20 20 20 21 20 22 22 22 21 21 22 22 22 23 24
22 23 23 23 24 24 24 26 27 28 29 29 29 29 29 28 23 20 17 18 17 15 16 16 18 19 20 20 21 21 21 21 21 21 22 22 22 22 23 23 24 24 25 26
21 23 23 23 25 25 26 27 27 28 29 30 30 29 27 24 20 17 17 16 16 17 18 19 19 19 20 21 21 22 21 21 21 21 21 21 21 21 22 22 23 22 23 24
25 27 27 27 28 27 27 28 28 29 29 28 27 25 23 18 17 19 16 16 16 18 19 19 17 18 20 21 21 22 22 21 21 20 21 21 21 20 21 21 22 22 22 22
28 28 27 27 27 28 28 29 30 30 28 26 23 20 17 16 21 16 14 17 19 18 16 17 17 18 19 20 21 22 22 21 20 20 21 22 22 23 20 20 21 20 20 21
29 28 28 28 26 26 28 29 28 27 23 20 17 16 15 15 15 14 18 19 16 16 16 16 17 18 19 20 21 22 21 19 20 22 23 22 20 20 20 20 20 20 21 21
27 27 25 24 25 27 28 27 27 25 20 18 16 16 15 14 15 17 18 16 13 13 15 16 17 18 19 20 22 22 19 20 22 22 22 21 21 21 20 19 20 20 20 20
25 20 23 25 26 27 27 27 26 23 19 17 16 16 16 16 16 17 15 15 15 15 16 16 17 18 19 22 22 19 20 21 22 21 20 20 21 20 21 20 18 19 19 22
25 25 26 26 26 26 27 25 24 21 18 17 17 17 16 14 12 13 14 15 15 15 16 17 17 20 22 22 20 21 22 22 22 22 21 20 19 19 19 18 18 18 18 19
25 26 27 27 27 27 26 24 21 19 17 17 17 15 14 15 15 15 15 14 14 13 14 16 19 21 21 21 21 22 22 22 21 20 19 19 20 19 18 18 18 18 17 16
24 23 23 24 26 26 24 21 18 17 18 17 16 15 14 14 15 14 14 13 14 14 16 17 20 21 20 21 21 23 24 21 19 20 20 19 18 18 18 17 17 17 17 16
23 22 21 22 23 22 21 19 17 16 16 16 14 12 13 14 15 14 13 12 14 16 17 20 19 20 21 21 23 23 20 18 18 19 18 18 18 17 17 17 17 17 16 16
21 20 19 20 21 19 18 18 16 15 14 14 14 14 14 13 14 14 14 13 15 17 19 19 20 21 21 21 21 19 17 18 18 18 18 17 17 17 17 17 17 17 16 17
20 19 18 18 18 17 16 16 15 14 12 13 13 14 14 14 14 13 11 15 17 18 19 19 20 20 20 19 17 15 15 15 16 17 17 17 17 17 16 17 17 18 17 16
20 19 18 17 16 15 13 14 14 14 13 13 14 15 15 14 14 15 15 17 19 18 18 19 19 19 19 16 15 14 14 14 15 15 16 17 15 16 16 16 16 17 17 17
22 20 18 16 15 15 15 14 14 14 14 14 15 16 15 15 13 13 15 16 17 17 16 17 17 17 16 15 14 13 14 14 14 17 15 15 16 16 16 16 16 17 19 19
22 21 20 18 17 16 16 15 13 14 14 13 15 15 16 15 15 16 16 17 16 16 16 15 15 15 15 14 14 15 14 13 14 14 15 15 15 15 15 16 16 17 18 19
22 23 20 19 18 17 16 15 14 13 15 14 12 14 15 15 15 15 16 15 15 13 13 14 14 13 14 14 14 13 13 13 14 15 16 14 14 15 15 16 16 17 19 20

GFSNGP_sfc_30mbdewp_108.txt.gz
Dewpoint
28 27 27 27 26 25 25 25 20 17 21 21 26 32 33 34 35 36 35 32 30 31 29 28 29 27 24 23 23 22 24 23 24 23 23 22 22 21 20 19 20 21 20 19
26 24 25 25 25 25 25 25 24 23 22 24 26 29 33 34 35 35 31 30 30 31 30 28 27 27 25 23 22 22 20 20 19 17 17 18 18 18 17 18 18 18 18 19
22 23 23 17 18 21 24 25 25 22 22 23 30 31 32 33 34 33 30 30 31 31 30 29 26 27 25 24 23 22 19 17 16 16 15 16 16 15 16 16 17 18 17 18
25 23 6 12 22 23 23 23 25 25 27 29 30 32 32 32 32 31 30 30 31 31 30 29 26 25 26 25 21 20 18 15 15 16 16 17 17 17 17 18 19 19 20 20
24 20 15 12 22 23 23 18 23 24 25 29 31 32 31 32 31 31 30 31 32 31 30 26 22 23 23 21 20 18 17 16 17 17 17 18 18 19 19 19 20 20 20 21
23 20 9 6 22 27 26 14 18 23 25 28 31 27 24 32 32 31 31 32 31 30 25 22 22 21 19 18 17 16 18 18 18 18 18 18 19 19 21 21 21 21 22 22
24 22 22 22 25 27 15 8 20 29 29 31 30 29 31 32 32 32 31 31 29 25 22 21 20 19 17 16 15 18 19 19 19 19 18 18 19 21 21 20 20 21 20 20
24 23 18 25 27 18 18 21 23 27 29 31 31 32 32 31 31 31 29 26 24 22 21 21 20 17 15 15 17 18 19 19 17 18 18 18 19 18 18 18 18 18 18 19
19 18 22 25 25 26 25 25 26 27 26 29 30 31 32 32 31 30 26 22 20 20 20 18 17 17 15 15 18 19 18 16 17 18 17 19 18 18 18 19 19 19 19 19
19 18 20 21 22 23 23 24 25 26 27 28 29 29 32 32 31 27 22 20 19 17 15 14 16 16 17 18 19 19 17 17 18 17 19 18 19 19 19 20 20 21 21 20
21 22 23 24 24 24 25 26 26 28 28 28 29 30 31 31 30 25 21 19 18 15 15 14 17 18 19 19 19 19 18 18 18 18 19 18 19 20 20 21 21 22 22 22
21 23 22 21 24 27 27 28 28 28 28 30 30 30 30 30 28 23 19 18 17 17 16 17 18 18 18 20 20 19 19 18 18 19 18 19 19 19 20 21 23 23 23 22
23 24 25 25 28 29 28 28 27 29 29 29 30 30 28 26 22 20 18 16 16 15 16 17 16 17 19 19 20 19 20 19 18 18 19 19 20 19 20 20 20 21 21 21
28 28 27 28 27 28 28 27 28 30 30 30 28 26 24 21 20 18 16 16 16 17 15 15 15 15 18 19 19 19 20 20 19 19 20 20 20 20 19 19 19 19 19 20
28 28 28 29 28 27 27 27 28 29 27 24 23 22 19 19 19 16 15 17 17 15 14 15 15 15 18 18 19 20 20 18 18 20 21 21 21 19 20 19 18 19 20 19
28 28 28 27 26 24 26 27 28 28 25 22 20 18 17 16 15 15 17 16 13 11 13 14 15 16 17 18 20 20 18 19 21 21 21 20 19 19 19 19 19 18 17 17
27 26 25 23 26 26 27 28 28 28 24 21 20 17 16 15 15 16 16 14 13 14 14 15 15 17 18 20 21 19 18 20 20 20 20 20 19 19 19 20 19 16 16 16
29 28 25 25 27 27 27 27 27 26 24 22 19 18 18 17 15 15 15 14 14 14 15 15 16 17 20 21 20 20 20 20 20 20 19 19 19 20 19 18 16 16 16 15
25 24 27 27 27 28 27 27 26 25 23 21 19 18 18 17 16 16 16 15 15 14 13 15 17 20 21 20 21 20 21 21 20 19 18 19 19 18 17 16 16 16 16 15
23 25 26 25 25 26 27 26 24 21 20 19 19 17 16 15 15 15 15 14 13 13 15 16 18 21 20 20 21 22 22 20 18 17 18 18 18 17 17 16 16 15 15 15
23 25 24 24 23 24 25 23 21 19 18 17 16 14 14 13 14 15 14 12 12 16 17 18 19 19 20 20 22 23 20 18 17 17 17 17 17 16 16 16 15 16 16 16
23 22 23 22 22 22 22 22 20 18 17 16 15 13 13 13 14 15 14 14 14 18 18 18 18 20 20 21 22 19 17 15 16 16 16 16 16 16 16 16 16 17 18 19
22 22 22 21 21 22 20 19 18 17 16 16 15 14 14 14 15 14 13 15 16 17 18 19 19 20 20 21 19 16 15 15 15 15 15 16 16 16 16 17 18 18 18 19
21 21 22 21 20 19 18 18 18 17 16 16 15 16 16 15 16 17 17 18 19 19 19 19 19 19 19 19 16 15 15 15 15 15 15 16 16 16 17 17 18 18 18 19
22 23 22 20 18 18 19 19 17 17 17 15 15 16 16 17 16 16 16 16 18 19 18 17 18 18 17 15 15 15 15 15 15 16 16 16 16 17 17 17 18 18 20 20
22 21 21 21 20 19 18 17 15 15 16 14 14 15 16 17 16 16 16 17 17 17 17 16 15 15 16 14 14 15 15 14 14 14 16 16 16 16 17 17 18 18 19 20
24 24 22 21 21 20 19 18 16 16 17 15 14 15 15 16 16 16 16 16 17 16 15 13 15 14 14 15 15 14 14 14 15 15 16 16 16 16 16 17 18 19 20 21

GFSNGP_sfc_30mbdewp_111.txt.gz
Dewpoint
27 26 25 24 23 23 22 24 22 20 15 15 17 22 28 33 34 34 34 34 34 32 31 29 27 27 24 22 21 20 20 20 20 19 18 17 16 16 16 16 16 16 16 16
27 24 21 21 22 22 22 23 22 22 22 22 22 22 24 27 32 33 33 34 31 31 31 30 28 26 25 23 21 21 18 17 16 15 14 15 15 14 14 15 16 16 16 17
22 21 22 18 18 19 20 21 21 20 20 20 22 26 29 29 32 32 33 33 30 31 31 31 28 26 25 24 22 20 19 17 15 14 14 15 15 15 16 16 17 18 18 19
24 23 15 16 19 18 18 19 21 22 23 23 25 28 31 32 32 32 33 33 31 31 32 31 28 25 25 25 20 19 18 16 15 15 16 16 17 17 17 18 18 19 20 20
23 20 17 15 20 22 21 15 20 21 21 21 23 28 30 30 32 32 32 32 31 32 32 31 26 23 24 22 20 19 16 16 17 17 17 17 17 18 19 20 20 21 21 21
22 19 12 9 23 25 26 16 20 22 21 24 28 22 22 32 33 32 32 32 32 32 30 27 23 22 20 18 18 16 16 18 18 18 18 17 18 19 21 21 21 21 22 22
25 21 20 21 25 27 13 11 20 24 24 25 27 24 30 32 32 32 32 32 32 31 27 24 22 20 19 18 15 17 18 18 19 18 17 17 18 20 21 21 20 21 19 19
23 21 19 23 26 18 18 21 22 25 25 24 25 26 29 31 32 32 32 31 30 27 24 22 21 19 18 15 16 17 18 18 16 16 16 16 17 18 18 17 17 17 18 18
20 21 22 25 20 24 26 25 24 24 25 25 26 27 28 31 32 32 31 28 26 24 22 21 19 17 14 13 16 17 17 15 15 16 16 16 17 17 17 18 19 19 19 20
16 17 19 20 23 23 23 23 24 25 26 27 27 28 28 28 32 31 29 25 22 21 20 17 15 15 14 16 18 17 16 16 16 17 17 18 18 18 18 19 19 19 19 21
20 20 21 22 23 23 23 24 26 27 27 28 29 28 28 29 32 31 27 24 21 19 17 14 15 15 16 17 16 16 16 16 17 17 17 17 17 18 19 20 20 21 22 23
20 21 21 21 23 25 25 27 28 28 28 28 29 29 29 30 31 30 25 22 20 18 16 15 15 16 16 16 18 17 17 17 17 18 18 18 18 19 20 21 22 22 22 22
23 23 23 24 27 26 27 28 28 27 26 27 29 30 30 30 30 27 23 21 19 18 16 15 17 16 16 18 18 18 18 18 18 19 17 18 19 20 20 21 20 21 21 21
27 26 25 27 27 28 29 29 28 27 27 29 30 30 29 28 25 23 20 18 17 15 14 14 13 13 15 18 18 18 18 20 20 18 19 19 20 21 21 20 20 20 20 20
26 28 27 27 29 29 29 28 26 25 27 28 28 27 25 23 23 20 18 16 16 15 13 13 13 13 15 17 17 17 19 19 18 19 20 20 21 21 20 20 20 19 20 19
28 28 28 29 29 28 26 24 26 27 28 27 24 24 22 22 21 17 16 16 14 13 12 13 13 14 16 17 17 19 19 18 20 20 20 20 20 20 20 19 20 20 19 18
28 27 28 28 27 25 27 27 28 28 28 25 23 21 19 17 16 16 16 15 14 12 12 13 14 15 17 18 19 20 18 18 20 20 19 20 19 20 20 20 21 18 18 18
30 30 28 27 25 26 28 28 28 28 28 26 23 20 18 17 17 16 15 14 13 13 13 14 15 16 17 20 21 19 19 19 20 20 19 19 19 20 21 20 19 17 17 17
29 29 28 25 27 28 28 29 29 29 28 25 22 21 21 21 20 19 18 16 15 14 13 14 17 19 20 20 21 20 20 20 20 20 19 18 18 19 19 18 18 17 17 17
27 25 25 27 28 28 28 28 28 27 26 24 23 22 20 19 18 16 16 16 14 13 15 16 18 19 20 21 21 21 20 20 19 18 17 18 18 18 18 17 17 17 16 16
23 25 26 26 26 26 27 27 25 24 22 21 20 19 17 17 15 15 14 13 13 14 15 16 18 19 19 20 20 21 21 20 19 17 17 18 18 17 16 16 17 17 16 17
24 24 24 26 25 24 25 25 24 22 20 19 18 17 15 14 14 15 16 15 14 16 17 18 19 19 19 21 22 21 20 18 17 17 17 17 17 16 16 17 17 17 18 19
24 24 24 25 24 24 24 23 23 21 20 19 18 17 15 14 15 15 14 16 17 18 18 18 19 20 21 21 21 20 18 16 16 16 16 17 16 17 17 18 18 18 19 20
21 23 24 25 25 23 21 22 22 20 20 20 20 20 18 16 17 19 19 19 18 18 19 20 20 21 20 20 20 18 16 16 16 16 16 17 17 17 17 18 17 18 19 20
22 23 24 23 22 22 22 23 22 22 21 20 20 20 19 19 16 19 18 18 19 20 20 20 20 20 19 18 17 17 16 16 17 17 17 17 16 17 17 17 18 18 20 21
23 23 23 24 22 22 21 22 20 20 19 18 18 17 18 17 18 18 19 18 18 20 19 18 18 18 16 16 16 15 16 16 16 16 16 16 17 17 17 17 18 19 20 21
26 25 24 23 22 22 21 22 23 22 20 19 17 16 16 17 17 17 16 17 18 18 18 17 16 17 16 15 15 15 15 15 15 16 17 17 17 17 17 18 19 19 20 21

GFSNGP_sfc_30mbdewp_114.txt.gz
Dewpoint
28 27 27 26 25 24 22 24 23 21 21 22 23 23 24 32 35 36 36 36 35 35 34 30 29 27 24 22 22 21 20 20 18 16 16 17 17 16 16 17 17 17 18 19
26 26 25 24 24 24 24 23 23 23 22 24 24 24 25 27 29 35 35 34 34 34 32 31 28 27 25 23 22 21 19 17 17 15 16 16 17 17 17 18 18 19 20 20
23 25 25 20 20 22 22 22 22 22 23 23 22 24 26 30 30 32 33 34 34 33 31 32 30 27 26 24 22 20 19 18 16 16 16 17 18 19 19 19 19 20 21 21
23 24 18 19 18 17 20 21 22 21 21 23 23 24 27 30 31 32 33 33 34 32 32 32 29 26 26 25 21 20 19 17 17 17 18 19 19 19 20 20 21 21 22 22
22 22 22 21 19 19 17 15 18 19 21 21 24 28 25 32 31 32 32 33 33 32 32 31 28 25 25 24 21 20 18 17 18 18 19 19 19 19 20 21 22 22 22 22
23 21 15 16 22 25 25 13 20 21 20 22 27 20 21 32 32 33 33 32 32 32 32 29 25 24 23 21 19 18 18 18 19 19 19 18 19 19 21 22 22 23 22 23
24 22 23 21 24 26 12 9 20 21 22 24 26 26 28 32 32 33 33 32 33 31 29 26 22 21 20 19 18 19 19 19 20 19 17 18 18 19 20 21 21 21 21 20
24 22 18 26 26 19 18 21 21 24 24 25 25 26 26 28 31 32 32 32 32 29 26 22 21 20 20 18 18 17 18 19 17 16 17 17 16 18 18 18 18 19 19 20
23 23 24 26 23 26 25 24 25 25 26 26 26 27 27 28 32 32 32 31 30 27 23 22 22 19 17 15 16 17 17 16 16 16 17 17 18 18 18 19 19 20 19 19
18 18 18 20 25 25 26 25 25 25 25 26 27 28 28 29 30 32 32 29 26 24 22 20 18 16 14 17 18 17 16 16 16 17 18 18 18 18 18 19 19 19 20 22
20 21 21 21 22 22 23 24 24 26 27 27 28 29 29 29 29 32 31 27 23 22 21 19 16 15 16 17 17 16 16 16 16 17 17 18 18 18 19 20 21 21 23 23
20 21 20 21 23 24 24 25 26 27 29 29 29 29 30 30 30 32 29 24 22 21 19 15 15 15 16 16 17 17 17 17 18 19 18 19 18 19 22 22 22 22 22 23
23 25 24 24 26 26 25 27 28 29 29 27 27 29 30 30 31 31 26 23 22 20 18 16 17 17 17 17 19 18 18 18 19 20 20 18 19 20 21 22 22 21 21 21
27 27 26 26 26 28 28 29 29 29 28 28 27 30 30 30 30 27 24 22 20 19 16 16 16 15 16 18 18 18 18 19 21 20 19 19 20 21 21 22 20 20 21 20
25 26 27 28 28 28 29 29 28 28 27 26 29 30 29 27 26 24 21 19 17 15 15 14 13 13 15 17 18 18 17 19 20 19 20 21 21 21 21 20 20 20 20 21
28 28 27 27 28 29 29 29 27 25 26 28 27 27 26 25 24 21 17 17 15 15 15 13 13 14 16 17 17 18 19 21 20 20 21 21 20 20 20 20 20 20 21 19
27 26 27 27 28 28 28 26 27 27 28 28 26 25 23 23 20 17 16 16 16 13 13 14 14 15 17 18 18 19 20 19 19 20 20 20 20 20 19 20 22 21 20 19
29 29 29 27 27 26 25 27 28 28 28 29 26 22 20 19 18 17 17 16 14 13 13 14 15 17 18 18 19 20 20 19 20 20 20 20 19 19 20 21 20 19 18 18
29 30 30 28 27 25 27 28 28 28 29 28 25 22 20 19 19 18 17 15 14 12 13 15 17 18 18 19 21 21 20 20 20 20 21 20 18 18 19 19 19 19 19 18
29 30 29 27 27 27 27 28 29 29 29 27 24 23 21 21 21 19 18 15 15 15 15 15 17 19 19 21 22 21 20 21 20 20 19 18 18 18 19 18 18 17 17 17
27 27 25 24 25 27 28 27 27 27 26 26 24 23 22 21 20 18 16 15 15 16 16 17 19 19 20 21 21 20 21 21 20 19 18 17 18 18 18 18 17 17 17 17
24 23 22 24 26 26 26 26 26 26 24 23 22 21 20 19 17 16 16 15 15 17 17 17 18 19 20 20 20 20 21 20 19 17 16 17 17 17 17 17 17 17 17 18
24 23 23 23 24 25 25 25 25 24 23 22 21 20 19 18 16 15 14 16 17 18 18 18 19 20 21 22 21 21 20 19 17 16 16 16 17 17 18 18 17 18 17 18
21 21 22 24 25 25 23 24 24 24 23 23 22 22 20 18 17 18 18 19 19 18 20 19 20 21 22 21 21 20 19 17 16 16 16 17 18 18 18 17 17 17 17 18
24 24 24 23 23 23 24 24 23 23 22 22 23 23 22 21 18 20 20 19 21 20 20 20 20 22 22 21 19 18 17 16 16 16 16 17 17 17 17 17 17 18 19 19
24 24 23 24 23 23 23 24 22 22 22 21 22 22 22 22 21 20 20 19 19 21 21 20 21 22 20 19 17 17 16 16 16 16 16 16 16 17 17 17 17 17 18 18
25 26 25 24 24 24 23 23 22 21 22 21 22 25 24 22 20 19 20 19 19 20 21 19 20 20 18 17 17 16 15 15 16 15 15 16 17 17 17 16 17 18 18 19

GFSNGP_sfc_30mbdewp_117.txt.gz
Dewpoint
28 28 28 27 27 26 25 24 23 18 20 21 23 23 24 28 33 36 37 38 38 38 38 38 36 29 24 22 22 21 20 20 17 16 16 17 17 17 18 19 19 19 20 21
26 26 26 25 25 26 26 25 24 23 23 24 25 24 23 25 28 34 36 37 37 37 36 33 30 28 25 23 22 21 19 17 17 15 16 17 18 18 19 19 20 20 21 22
22 24 24 17 19 20 22 24 24 23 23 23 24 23 23 25 28 30 34 36 36 36 35 33 29 28 25 24 22 21 20 18 16 16 17 19 19 20 19 20 21 21 22 22
24 23 10 10 21 19 19 20 23 22 22 23 23 23 25 27 30 31 32 33 35 35 34 32 30 27 27 25 22 20 19 18 17 18 18 19 19 19 20 21 21 22 22 22
21 22 19 22 19 19 17 14 19 22 23 22 23 26 21 29 31 31 32 33 33 35 33 32 29 27 26 25 22 20 20 18 18 19 19 20 19 19 20 21 21 21 22 22
23 21 9 14 21 25 21 11 17 19 18 21 26 18 17 25 31 30 33 32 32 32 32 29 26 26 25 24 22 20 19 19 19 20 19 18 18 18 19 21 21 22 22 22
24 22 22 24 24 25 14 7 21 21 21 23 20 20 22 31 32 32 32 32 32 31 30 28 25 24 23 22 20 20 19 19 19 19 18 17 18 18 20 19 19 19 20 20
24 21 15 25 25 18 18 20 21 21 21 23 25 26 27 27 29 32 32 33 32 30 28 24 23 22 21 19 19 19 18 18 18 17 16 17 17 18 18 18 19 19 20 20
23 22 24 26 23 24 23 20 22 22 24 26 26 26 26 27 28 31 32 32 31 29 24 22 21 21 20 19 17 16 17 16 16 16 17 17 18 18 18 18 19 19 19 20
20 21 24 25 26 26 26 25 25 25 25 25 25 26 27 28 29 30 33 32 30 27 23 22 21 19 17 16 17 17 16 15 16 16 18 18 18 18 18 18 19 19 20 21
21 21 21 21 22 22 23 24 24 26 26 25 27 27 28 28 29 30 32 31 28 26 24 22 19 17 15 17 17 16 15 16 16 17 18 18 18 18 19 20 22 22 22 22
22 22 21 21 22 24 23 23 24 25 26 28 28 29 29 28 29 30 32 29 26 25 23 21 17 16 16 17 16 16 16 16 18 19 19 19 19 19 22 22 23 23 23 23
24 24 23 24 25 24 24 24 26 27 28 29 29 28 28 28 30 31 31 27 25 23 21 18 16 16 17 17 17 18 17 17 18 20 20 19 19 19 20 21 23 23 22 22
27 27 27 27 26 26 26 26 28 29 29 28 28 28 28 29 30 32 29 26 24 22 19 17 16 17 17 18 19 18 18 20 20 21 20 19 19 20 21 21 21 20 21 21
27 27 27 27 27 28 29 29 28 28 28 28 28 27 28 30 30 29 26 24 22 20 18 16 16 16 16 18 18 18 18 17 19 19 19 20 21 21 21 20 20 20 20 21
27 28 28 27 27 28 28 28 28 28 28 27 26 27 28 29 28 26 23 20 19 18 17 15 14 14 15 17 17 18 17 20 21 20 20 20 21 20 20 20 20 20 21 21
26 26 27 27 27 28 28 28 28 27 26 27 28 28 27 26 25 22 20 18 17 17 16 15 13 14 16 17 17 17 18 19 21 20 20 20 20 20 20 20 20 22 21 20
27 27 28 28 27 26 27 26 26 27 27 28 29 27 25 24 23 21 19 17 17 15 14 15 15 15 17 18 18 18 19 20 19 19 20 20 20 20 19 19 19 20 19 19
29 29 29 29 27 27 27 25 25 27 28 28 28 26 24 23 22 21 19 17 16 15 14 14 17 19 17 18 19 20 20 20 20 20 21 21 20 17 18 19 19 19 19 18
24 28 30 30 30 28 27 26 28 28 29 28 28 26 24 22 21 20 19 17 16 15 15 14 17 19 19 18 21 21 20 20 20 21 20 20 19 18 18 18 18 18 18 18
22 23 23 23 23 25 26 27 28 28 28 28 27 26 24 23 22 21 19 18 17 18 17 17 18 18 20 20 21 22 21 20 20 20 20 19 17 17 18 18 18 18 17 17
22 23 22 23 22 21 24 26 27 27 26 26 26 26 24 24 22 21 20 19 18 19 19 19 20 19 19 20 22 21 20 20 21 19 18 17 16 16 17 18 17 18 17 18
22 23 24 24 24 23 23 24 25 26 25 25 24 24 24 23 22 21 21 20 19 17 21 21 20 21 21 21 22 21 20 20 19 18 17 16 16 16 17 17 18 18 18 17
23 23 23 24 24 24 23 23 25 25 25 25 24 24 24 23 22 22 22 20 20 20 21 22 21 21 21 23 22 21 20 19 18 17 16 17 16 17 18 18 17 18 18 17
25 25 24 24 24 24 24 24 24 23 24 24 24 24 25 25 24 23 21 21 22 24 22 24 22 21 22 22 21 21 20 19 17 15 15 15 16 17 16 17 18 17 18 18
26 25 25 25 25 25 24 24 23 23 23 22 23 23 24 25 23 23 23 24 23 26 24 23 23 22 22 22 21 20 19 17 18 17 16 16 16 16 17 17 17 16 16 17
27 27 27 26 26 25 25 24 23 23 23 23 22 22 23 23 24 25 26 25 24 24 24 21 22 22 22 21 20 18 17 16 16 15 15 14 14 15 16 16 16 16 17 17